<?xml version="1.0" encoding="UTF-8"?>
<gpx creator="Garmin Connect" version="1.1"
  xsi:schemaLocation="http://www.topografix.com/GPX/1/1 http://www.topografix.com/GPX/11.xsd"
  xmlns:ns3="http://www.garmin.com/xmlschemas/TrackPointExtension/v1"
  xmlns="http://www.topografix.com/GPX/1/1"
  xmlns:xsi="http://www.w3.org/2001/XMLSchema-instance" xmlns:ns2="http://www.garmin.com/xmlschemas/GpxExtensions/v3">
  <metadata>
    <name>SPARNA 24</name>
    <link href="connect.garmin.com">
      <text>Garmin Connect</text>
    </link>
    <time>2024-01-01T10:37:36.000Z</time>
  </metadata>
  <trk>
    <name>SPARNA 24</name>
    <trkseg>
      <trkpt lat="49.02784184552729" lon="3.960705902427435">
        <ele>89.74</ele>
        <time>2024-01-01T10:37:36.000Z</time>
      </trkpt>
      <trkpt lat="49.02784796431661" lon="3.960738927125931">
        <ele>89.9</ele>
        <time>2024-01-01T10:37:36.001Z</time>
      </trkpt>
      <trkpt lat="49.02782793156803" lon="3.9607589598745108">
        <ele>89.98</ele>
        <time>2024-01-01T10:37:36.003Z</time>
      </trkpt>
      <trkpt lat="49.027802953496575" lon="3.9607749693095684">
        <ele>90.05</ele>
        <time>2024-01-01T10:37:36.006Z</time>
      </trkpt>
      <trkpt lat="49.02779197320342" lon="3.960793996229768">
        <ele>90.12</ele>
        <time>2024-01-01T10:37:36.010Z</time>
      </trkpt>
      <trkpt lat="49.02779398486018" lon="3.9608079940080643">
        <ele>90.2</ele>
        <time>2024-01-01T10:37:36.015Z</time>
      </trkpt>
      <trkpt lat="49.02779792435467" lon="3.9608149509876966">
        <ele>90.28</ele>
        <time>2024-01-01T10:37:36.020Z</time>
      </trkpt>
      <trkpt lat="49.02779691852629" lon="3.9608149509876966">
        <ele>90.34</ele>
        <time>2024-01-01T10:37:36.025Z</time>
      </trkpt>
      <trkpt lat="49.02779197320342" lon="3.9608199801295996">
        <ele>90.39</ele>
        <time>2024-01-01T10:37:36.030Z</time>
      </trkpt>
      <trkpt lat="49.027779987081885" lon="3.9608279429376125">
        <ele>90.44</ele>
        <time>2024-01-01T10:37:36.036Z</time>
      </trkpt>
      <trkpt lat="49.02776397764683" lon="3.960846969857812">
        <ele>90.47</ele>
        <time>2024-01-01T10:37:36.043Z</time>
      </trkpt>
      <trkpt lat="49.02774696238339" lon="3.9608759712427855">
        <ele>90.51</ele>
        <time>2024-01-01T10:37:36.051Z</time>
      </trkpt>
      <trkpt lat="49.02773095294833" lon="3.9609079901129007">
        <ele>90.54</ele>
        <time>2024-01-01T10:37:36.060Z</time>
      </trkpt>
      <trkpt lat="49.027713937684894" lon="3.960940930992365">
        <ele>90.58</ele>
        <time>2024-01-01T10:37:36.071Z</time>
      </trkpt>
      <trkpt lat="49.027695916593075" lon="3.9609719440340996">
        <ele>90.62</ele>
        <time>2024-01-01T10:37:36.083Z</time>
      </trkpt>
      <trkpt lat="49.027673956006765" lon="3.9610069803893566">
        <ele>90.66</ele>
        <time>2024-01-01T10:37:36.096Z</time>
      </trkpt>
      <trkpt lat="49.027652917429805" lon="3.96103598177433">
        <ele>90.7</ele>
        <time>2024-01-01T10:37:36.111Z</time>
      </trkpt>
      <trkpt lat="49.02763699181378" lon="3.9610599540174007">
        <ele>90.74</ele>
        <time>2024-01-01T10:37:36.127Z</time>
      </trkpt>
      <trkpt lat="49.02761595323682" lon="3.9610909670591354">
        <ele>90.8</ele>
        <time>2024-01-01T10:37:36.144Z</time>
      </trkpt>
      <trkpt lat="49.027597932145" lon="3.961116950958967">
        <ele>90.86</ele>
        <time>2024-01-01T10:37:36.162Z</time>
      </trkpt>
      <trkpt lat="49.02757597155869" lon="3.9611489698290825">
        <ele>90.92</ele>
        <time>2024-01-01T10:37:36.182Z</time>
      </trkpt>
      <trkpt lat="49.02756096795201" lon="3.9611819945275784">
        <ele>90.99</ele>
        <time>2024-01-01T10:37:36.203Z</time>
      </trkpt>
      <trkpt lat="49.02753892354667" lon="3.9612199645489454">
        <ele>91.05</ele>
        <time>2024-01-01T10:37:36.225Z</time>
      </trkpt>
      <trkpt lat="49.027520986273885" lon="3.9612479601055384">
        <ele>91.11</ele>
        <time>2024-01-01T10:37:36.249Z</time>
      </trkpt>
      <trkpt lat="49.02750497683883" lon="3.9612779673188925">
        <ele>91.17</ele>
        <time>2024-01-01T10:37:36.274Z</time>
      </trkpt>
      <trkpt lat="49.02748393826187" lon="3.961306968703866">
        <ele>91.24</ele>
        <time>2024-01-01T10:37:36.300Z</time>
      </trkpt>
      <trkpt lat="49.0274649951607" lon="3.9613359700888395">
        <ele>91.31</ele>
        <time>2024-01-01T10:37:36.327Z</time>
      </trkpt>
      <trkpt lat="49.02744898572564" lon="3.961364971473813">
        <ele>91.38</ele>
        <time>2024-01-01T10:37:36.356Z</time>
      </trkpt>
      <trkpt lat="49.02742895297706" lon="3.9613959845155478">
        <ele>91.45</ele>
        <time>2024-01-01T10:37:36.386Z</time>
      </trkpt>
      <trkpt lat="49.02740498073399" lon="3.9614239800721407">
        <ele>91.52</ele>
        <time>2024-01-01T10:37:36.417Z</time>
      </trkpt>
      <trkpt lat="49.02738494798541" lon="3.9614429231733084">
        <ele>91.59</ele>
        <time>2024-01-01T10:37:36.449Z</time>
      </trkpt>
      <trkpt lat="49.02736499905586" lon="3.9614729303866625">
        <ele>91.66</ele>
        <time>2024-01-01T10:37:36.483Z</time>
      </trkpt>
      <trkpt lat="49.0273439604789" lon="3.961503943428397">
        <ele>91.74</ele>
        <time>2024-01-01T10:37:36.518Z</time>
      </trkpt>
      <trkpt lat="49.027329962700605" lon="3.961539985612035">
        <ele>91.81</ele>
        <time>2024-01-01T10:37:36.554Z</time>
      </trkpt>
      <trkpt lat="49.027309929952025" lon="3.9615689869970083">
        <ele>91.88</ele>
        <time>2024-01-01T10:37:36.592Z</time>
      </trkpt>
      <trkpt lat="49.02729299850762" lon="3.9615889359265566">
        <ele>91.94</ele>
        <time>2024-01-01T10:37:36.631Z</time>
      </trkpt>
      <trkpt lat="49.02727698907256" lon="3.9616149198263884">
        <ele>92.01</ele>
        <time>2024-01-01T10:37:36.671Z</time>
      </trkpt>
      <trkpt lat="49.02725695632398" lon="3.961640987545252">
        <ele>92.08</ele>
        <time>2024-01-01T10:37:36.712Z</time>
      </trkpt>
      <trkpt lat="49.0272369235754" lon="3.9616669714450836">
        <ele>92.15</ele>
        <time>2024-01-01T10:37:36.754Z</time>
      </trkpt>
      <trkpt lat="49.027222925797105" lon="3.9616979844868183">
        <ele>92.23</ele>
        <time>2024-01-01T10:37:36.797Z</time>
      </trkpt>
      <trkpt lat="49.02720892801881" lon="3.96172396838665">
        <ele>92.31</ele>
        <time>2024-01-01T10:37:36.841Z</time>
      </trkpt>
      <trkpt lat="49.02719099074602" lon="3.961749952286482">
        <ele>92.4</ele>
        <time>2024-01-01T10:37:36.887Z</time>
      </trkpt>
      <trkpt lat="49.0271729696542" lon="3.9617739245295525">
        <ele>92.49</ele>
        <time>2024-01-01T10:37:36.934Z</time>
      </trkpt>
      <trkpt lat="49.027156960219145" lon="3.9618019200861454">
        <ele>92.58</ele>
        <time>2024-01-01T10:37:36.982Z</time>
      </trkpt>
      <trkpt lat="49.02714195661247" lon="3.9618239644914865">
        <ele>92.68</ele>
        <time>2024-01-01T10:37:37.031Z</time>
      </trkpt>
      <trkpt lat="49.02712795883417" lon="3.9618469309061766">
        <ele>92.77</ele>
        <time>2024-01-01T10:37:37.081Z</time>
      </trkpt>
      <trkpt lat="49.02710993774235" lon="3.961870986968279">
        <ele>92.85</ele>
        <time>2024-01-01T10:37:37.132Z</time>
      </trkpt>
      <trkpt lat="49.027088982984424" lon="3.961898982524872">
        <ele>92.94</ele>
        <time>2024-01-01T10:37:37.184Z</time>
      </trkpt>
      <trkpt lat="49.027072973549366" lon="3.961923960596323">
        <ele>93.02</ele>
        <time>2024-01-01T10:37:37.237Z</time>
      </trkpt>
      <trkpt lat="49.02705796994269" lon="3.9619509503245354">
        <ele>93.1</ele>
        <time>2024-01-01T10:37:37.291Z</time>
      </trkpt>
      <trkpt lat="49.027046989649534" lon="3.96198196336627">
        <ele>93.18</ele>
        <time>2024-01-01T10:37:37.346Z</time>
      </trkpt>
      <trkpt lat="49.027027962729335" lon="3.9620129764080048">
        <ele>93.25</ele>
        <time>2024-01-01T10:37:37.403Z</time>
      </trkpt>
      <trkpt lat="49.027009941637516" lon="3.96204499527812">
        <ele>93.3</ele>
        <time>2024-01-01T10:37:37.461Z</time>
      </trkpt>
      <trkpt lat="49.02698999270797" lon="3.9620719850063324">
        <ele>93.35</ele>
        <time>2024-01-01T10:37:37.520Z</time>
      </trkpt>
      <trkpt lat="49.02697498910129" lon="3.962102998048067">
        <ele>93.4</ele>
        <time>2024-01-01T10:37:37.580Z</time>
      </trkpt>
      <trkpt lat="49.02695193886757" lon="3.9621429797261953">
        <ele>93.45</ele>
        <time>2024-01-01T10:37:37.642Z</time>
      </trkpt>
      <trkpt lat="49.02693391777575" lon="3.96217399276793">
        <ele>93.49</ele>
        <time>2024-01-01T10:37:37.705Z</time>
      </trkpt>
      <trkpt lat="49.02691296301782" lon="3.962204921990633">
        <ele>93.51</ele>
        <time>2024-01-01T10:37:37.770Z</time>
      </trkpt>
      <trkpt lat="49.02689192444086" lon="3.962237946689129">
        <ele>93.5</ele>
        <time>2024-01-01T10:37:37.836Z</time>
      </trkpt>
      <trkpt lat="49.02686996385455" lon="3.962269965559244">
        <ele>93.49</ele>
        <time>2024-01-01T10:37:37.904Z</time>
      </trkpt>
      <trkpt lat="49.02684699743986" lon="3.9623019844293594">
        <ele>93.47</ele>
        <time>2024-01-01T10:37:37.973Z</time>
      </trkpt>
      <trkpt lat="49.02682897634804" lon="3.9623299799859524">
        <ele>93.44</ele>
        <time>2024-01-01T10:37:38.043Z</time>
      </trkpt>
      <trkpt lat="49.02680994942784" lon="3.9623579755425453">
        <ele>93.41</ele>
        <time>2024-01-01T10:37:38.114Z</time>
      </trkpt>
      <trkpt lat="49.026792934164405" lon="3.9623849652707577">
        <ele>93.38</ele>
        <time>2024-01-01T10:37:38.187Z</time>
      </trkpt>
      <trkpt lat="49.02677399106324" lon="3.9624179899692535">
        <ele>93.36</ele>
        <time>2024-01-01T10:37:38.261Z</time>
      </trkpt>
      <trkpt lat="49.026750940829515" lon="3.9624489191919565">
        <ele>93.34</ele>
        <time>2024-01-01T10:37:38.336Z</time>
      </trkpt>
      <trkpt lat="49.02673392556608" lon="3.962476998567581">
        <ele>93.31</ele>
        <time>2024-01-01T10:37:38.413Z</time>
      </trkpt>
      <trkpt lat="49.02671397663653" lon="3.962507927790284">
        <ele>93.29</ele>
        <time>2024-01-01T10:37:38.491Z</time>
      </trkpt>
      <trkpt lat="49.02669394388795" lon="3.9625369291752577">
        <ele>93.25</ele>
        <time>2024-01-01T10:37:38.570Z</time>
      </trkpt>
      <trkpt lat="49.02667491696775" lon="3.962568948045373">
        <ele>93.2</ele>
        <time>2024-01-01T10:37:38.650Z</time>
      </trkpt>
      <trkpt lat="49.02665295638144" lon="3.962598955258727">
        <ele>93.15</ele>
        <time>2024-01-01T10:37:38.732Z</time>
      </trkpt>
      <trkpt lat="49.02663392946124" lon="3.96262695081532">
        <ele>93.1</ele>
        <time>2024-01-01T10:37:38.815Z</time>
      </trkpt>
      <trkpt lat="49.02660995721817" lon="3.9626589696854353">
        <ele>93.06</ele>
        <time>2024-01-01T10:37:38.900Z</time>
      </trkpt>
      <trkpt lat="49.02659093029797" lon="3.962687971070409">
        <ele>93.03</ele>
        <time>2024-01-01T10:37:38.986Z</time>
      </trkpt>
      <trkpt lat="49.02657098136842" lon="3.9627189841121435">
        <ele>92.99</ele>
        <time>2024-01-01T10:37:39.073Z</time>
      </trkpt>
      <trkpt lat="49.02654893696308" lon="3.9627449680119753">
        <ele>92.95</ele>
        <time>2024-01-01T10:37:39.161Z</time>
      </trkpt>
      <trkpt lat="49.02652697637677" lon="3.9627669285982847">
        <ele>92.93</ele>
        <time>2024-01-01T10:37:39.251Z</time>
      </trkpt>
      <trkpt lat="49.02650493197143" lon="3.9627949241548777">
        <ele>92.92</ele>
        <time>2024-01-01T10:37:39.342Z</time>
      </trkpt>
      <trkpt lat="49.02648598887026" lon="3.9628229197114706">
        <ele>92.93</ele>
        <time>2024-01-01T10:37:39.434Z</time>
      </trkpt>
      <trkpt lat="49.026467967778444" lon="3.962851921096444">
        <ele>92.94</ele>
        <time>2024-01-01T10:37:39.527Z</time>
      </trkpt>
      <trkpt lat="49.026450952515006" lon="3.962879916653037">
        <ele>92.95</ele>
        <time>2024-01-01T10:37:39.622Z</time>
      </trkpt>
      <trkpt lat="49.02643192559481" lon="3.9629119355231524">
        <ele>92.97</ele>
        <time>2024-01-01T10:37:39.718Z</time>
      </trkpt>
      <trkpt lat="49.02641298249364" lon="3.962942948564887">
        <ele>93.01</ele>
        <time>2024-01-01T10:37:39.815Z</time>
      </trkpt>
      <trkpt lat="49.02639395557344" lon="3.9629739616066217">
        <ele>93.07</ele>
        <time>2024-01-01T10:37:39.914Z</time>
      </trkpt>
      <trkpt lat="49.02637392282486" lon="3.963003968819976">
        <ele>93.14</ele>
        <time>2024-01-01T10:37:40.014Z</time>
      </trkpt>
      <trkpt lat="49.02635891921818" lon="3.9630329702049494">
        <ele>93.22</ele>
        <time>2024-01-01T10:37:40.115Z</time>
      </trkpt>
      <trkpt lat="49.02633695863187" lon="3.9630659949034452">
        <ele>93.32</ele>
        <time>2024-01-01T10:37:40.217Z</time>
      </trkpt>
      <trkpt lat="49.026319943368435" lon="3.9630929846316576">
        <ele>93.43</ele>
        <time>2024-01-01T10:37:40.321Z</time>
      </trkpt>
      <trkpt lat="49.02629999443889" lon="3.9631269313395023">
        <ele>93.55</ele>
        <time>2024-01-01T10:37:40.426Z</time>
      </trkpt>
      <trkpt lat="49.02628599666059" lon="3.963159956037998">
        <ele>93.69</ele>
        <time>2024-01-01T10:37:40.532Z</time>
      </trkpt>
      <trkpt lat="49.02626898139715" lon="3.963192980736494">
        <ele>93.84</ele>
        <time>2024-01-01T10:37:40.640Z</time>
      </trkpt>
      <trkpt lat="49.02624593116343" lon="3.9632289391011">
        <ele>94.01</ele>
        <time>2024-01-01T10:37:40.749Z</time>
      </trkpt>
      <trkpt lat="49.02622799389064" lon="3.9632649812847376">
        <ele>94.2</ele>
        <time>2024-01-01T10:37:40.859Z</time>
      </trkpt>
      <trkpt lat="49.026209972798824" lon="3.9633009396493435">
        <ele>94.4</ele>
        <time>2024-01-01T10:37:40.971Z</time>
      </trkpt>
      <trkpt lat="49.026192957535386" lon="3.9633309468626976">
        <ele>94.6</ele>
        <time>2024-01-01T10:37:41.084Z</time>
      </trkpt>
      <trkpt lat="49.026172924786806" lon="3.963362965732813">
        <ele>94.81</ele>
        <time>2024-01-01T10:37:41.198Z</time>
      </trkpt>
      <trkpt lat="49.02615498751402" lon="3.9633959904313087">
        <ele>95.01</ele>
        <time>2024-01-01T10:37:41.314Z</time>
      </trkpt>
      <trkpt lat="49.02613897807896" lon="3.9634299371391535">
        <ele>95.21</ele>
        <time>2024-01-01T10:37:41.431Z</time>
      </trkpt>
      <trkpt lat="49.02611995115876" lon="3.96346396766603">
        <ele>95.4</ele>
        <time>2024-01-01T10:37:41.549Z</time>
      </trkpt>
      <trkpt lat="49.02609991841018" lon="3.963495986536145">
        <ele>95.6</ele>
        <time>2024-01-01T10:37:41.669Z</time>
      </trkpt>
      <trkpt lat="49.026080975309014" lon="3.9635289274156094">
        <ele>95.8</ele>
        <time>2024-01-01T10:37:41.790Z</time>
      </trkpt>
      <trkpt lat="49.02606597170234" lon="3.963559940457344">
        <ele>96.0</ele>
        <time>2024-01-01T10:37:41.912Z</time>
      </trkpt>
      <trkpt lat="49.02604795061052" lon="3.9635959826409817">
        <ele>96.17</ele>
        <time>2024-01-01T10:37:42.036Z</time>
      </trkpt>
      <trkpt lat="49.02603093534708" lon="3.9636279176920652">
        <ele>96.33</ele>
        <time>2024-01-01T10:37:42.161Z</time>
      </trkpt>
      <trkpt lat="49.026016937568784" lon="3.9636589307338">
        <ele>96.49</ele>
        <time>2024-01-01T10:37:42.287Z</time>
      </trkpt>
      <trkpt lat="49.026000928133726" lon="3.963693967089057">
        <ele>96.64</ele>
        <time>2024-01-01T10:37:42.414Z</time>
      </trkpt>
      <trkpt lat="49.02598693035543" lon="3.9637259859591722">
        <ele>96.77</ele>
        <time>2024-01-01T10:37:42.543Z</time>
      </trkpt>
      <trkpt lat="49.02597092092037" lon="3.9637629501521587">
        <ele>96.91</ele>
        <time>2024-01-01T10:37:42.673Z</time>
      </trkpt>
      <trkpt lat="49.02595893479884" lon="3.9637959748506546">
        <ele>97.05</ele>
        <time>2024-01-01T10:37:42.804Z</time>
      </trkpt>
      <trkpt lat="49.02594493702054" lon="3.9638349507004023">
        <ele>97.18</ele>
        <time>2024-01-01T10:37:42.936Z</time>
      </trkpt>
      <trkpt lat="49.025931945070624" lon="3.9638719987124205">
        <ele>97.29</ele>
        <time>2024-01-01T10:37:43.070Z</time>
      </trkpt>
      <trkpt lat="49.02591895312071" lon="3.9639049395918846">
        <ele>97.4</ele>
        <time>2024-01-01T10:37:43.205Z</time>
      </trkpt>
      <trkpt lat="49.02590294368565" lon="3.9639409817755222">
        <ele>97.49</ele>
        <time>2024-01-01T10:37:43.341Z</time>
      </trkpt>
      <trkpt lat="49.02588693425059" lon="3.96397995762527">
        <ele>97.54</ele>
        <time>2024-01-01T10:37:43.479Z</time>
      </trkpt>
      <trkpt lat="49.025869918987155" lon="3.964014993980527">
        <ele>97.58</ele>
        <time>2024-01-01T10:37:43.618Z</time>
      </trkpt>
      <trkpt lat="49.02585499919951" lon="3.96404592320323">
        <ele>97.62</ele>
        <time>2024-01-01T10:37:43.758Z</time>
      </trkpt>
      <trkpt lat="49.02584192343056" lon="3.964080959558487">
        <ele>97.65</ele>
        <time>2024-01-01T10:37:43.899Z</time>
      </trkpt>
      <trkpt lat="49.025823986157775" lon="3.964120941236615">
        <ele>97.67</ele>
        <time>2024-01-01T10:37:44.042Z</time>
      </trkpt>
      <trkpt lat="49.0258089825511" lon="3.964161928743124">
        <ele>97.66</ele>
        <time>2024-01-01T10:37:44.186Z</time>
      </trkpt>
      <trkpt lat="49.0257949847728" lon="3.9642039220780134">
        <ele>97.63</ele>
        <time>2024-01-01T10:37:44.332Z</time>
      </trkpt>
      <trkpt lat="49.025780986994505" lon="3.9642359409481287">
        <ele>97.58</ele>
        <time>2024-01-01T10:37:44.479Z</time>
      </trkpt>
      <trkpt lat="49.02576497755945" lon="3.9642739947885275">
        <ele>97.53</ele>
        <time>2024-01-01T10:37:44.627Z</time>
      </trkpt>
      <trkpt lat="49.02574896812439" lon="3.964308947324753">
        <ele>97.46</ele>
        <time>2024-01-01T10:37:44.777Z</time>
      </trkpt>
      <trkpt lat="49.025735976174474" lon="3.9643379487097263">
        <ele>97.39</ele>
        <time>2024-01-01T10:37:44.928Z</time>
      </trkpt>
      <trkpt lat="49.025718960911036" lon="3.964370973408222">
        <ele>97.3</ele>
        <time>2024-01-01T10:37:45.080Z</time>
      </trkpt>
      <trkpt lat="49.02570295147598" lon="3.9644029922783375">
        <ele>97.22</ele>
        <time>2024-01-01T10:37:45.233Z</time>
      </trkpt>
      <trkpt lat="49.02568493038416" lon="3.9644389506429434">
        <ele>97.12</ele>
        <time>2024-01-01T10:37:45.388Z</time>
      </trkpt>
      <trkpt lat="49.02566992677748" lon="3.9644709695130587">
        <ele>97.02</ele>
        <time>2024-01-01T10:37:45.544Z</time>
      </trkpt>
      <trkpt lat="49.025655928999186" lon="3.964505922049284">
        <ele>96.92</ele>
        <time>2024-01-01T10:37:45.701Z</time>
      </trkpt>
      <trkpt lat="49.02564193122089" lon="3.9645369350910187">
        <ele>96.82</ele>
        <time>2024-01-01T10:37:45.859Z</time>
      </trkpt>
      <trkpt lat="49.025629945099354" lon="3.9645649306476116">
        <ele>96.7</ele>
        <time>2024-01-01T10:37:46.018Z</time>
      </trkpt>
      <trkpt lat="49.02561494149268" lon="3.964603990316391">
        <ele>96.59</ele>
        <time>2024-01-01T10:37:46.179Z</time>
      </trkpt>
      <trkpt lat="49.02560194954276" lon="3.964634919539094">
        <ele>96.48</ele>
        <time>2024-01-01T10:37:46.341Z</time>
      </trkpt>
      <trkpt lat="49.025587951764464" lon="3.9646689500659704">
        <ele>96.38</ele>
        <time>2024-01-01T10:37:46.504Z</time>
      </trkpt>
      <trkpt lat="49.02557194232941" lon="3.9646989572793245">
        <ele>96.27</ele>
        <time>2024-01-01T10:37:46.668Z</time>
      </trkpt>
      <trkpt lat="49.02555794455111" lon="3.964727958664298">
        <ele>96.16</ele>
        <time>2024-01-01T10:37:46.833Z</time>
      </trkpt>
      <trkpt lat="49.02554092928767" lon="3.9647649228572845">
        <ele>96.06</ele>
        <time>2024-01-01T10:37:47.000Z</time>
      </trkpt>
      <trkpt lat="49.025526931509376" lon="3.9647949300706387">
        <ele>95.96</ele>
        <time>2024-01-01T10:37:47.168Z</time>
      </trkpt>
      <trkpt lat="49.02551293373108" lon="3.9648249372839928">
        <ele>95.87</ele>
        <time>2024-01-01T10:37:47.337Z</time>
      </trkpt>
      <trkpt lat="49.025500947609544" lon="3.964854944497347">
        <ele>95.78</ele>
        <time>2024-01-01T10:37:47.507Z</time>
      </trkpt>
      <trkpt lat="49.02548795565963" lon="3.964886963367462">
        <ele>95.7</ele>
        <time>2024-01-01T10:37:47.678Z</time>
      </trkpt>
      <trkpt lat="49.02547496370971" lon="3.9649189822375774">
        <ele>95.62</ele>
        <time>2024-01-01T10:37:47.850Z</time>
      </trkpt>
      <trkpt lat="49.02546599507332" lon="3.964952928945422">
        <ele>95.56</ele>
        <time>2024-01-01T10:37:48.024Z</time>
      </trkpt>
      <trkpt lat="49.02545291930437" lon="3.964993916451931">
        <ele>95.51</ele>
        <time>2024-01-01T10:37:48.199Z</time>
      </trkpt>
      <trkpt lat="49.025439927354455" lon="3.9650259353220463">
        <ele>95.46</ele>
        <time>2024-01-01T10:37:48.375Z</time>
      </trkpt>
      <trkpt lat="49.02542995288968" lon="3.965063989162445">
        <ele>95.42</ele>
        <time>2024-01-01T10:37:48.552Z</time>
      </trkpt>
      <trkpt lat="49.025418972596526" lon="3.9650989416986704">
        <ele>95.39</ele>
        <time>2024-01-01T10:37:48.731Z</time>
      </trkpt>
      <trkpt lat="49.0254099201411" lon="3.965134983882308">
        <ele>95.37</ele>
        <time>2024-01-01T10:37:48.911Z</time>
      </trkpt>
      <trkpt lat="49.025397934019566" lon="3.9651749655604362">
        <ele>95.35</ele>
        <time>2024-01-01T10:37:49.092Z</time>
      </trkpt>
      <trkpt lat="49.02538795955479" lon="3.9652119297534227">
        <ele>95.33</ele>
        <time>2024-01-01T10:37:49.274Z</time>
      </trkpt>
      <trkpt lat="49.025375973433256" lon="3.9652499835938215">
        <ele>95.32</ele>
        <time>2024-01-01T10:37:49.458Z</time>
      </trkpt>
      <trkpt lat="49.02536599896848" lon="3.9652839303016663">
        <ele>95.32</ele>
        <time>2024-01-01T10:37:49.643Z</time>
      </trkpt>
      <trkpt lat="49.02535795234144" lon="3.9653159491717815">
        <ele>95.33</ele>
        <time>2024-01-01T10:37:49.829Z</time>
      </trkpt>
      <trkpt lat="49.0253459662199" lon="3.965349979698658">
        <ele>95.34</ele>
        <time>2024-01-01T10:37:50.016Z</time>
      </trkpt>
      <trkpt lat="49.02533699758351" lon="3.965382920578122">
        <ele>95.36</ele>
        <time>2024-01-01T10:37:50.204Z</time>
      </trkpt>
      <trkpt lat="49.02532492764294" lon="3.9654189627617598">
        <ele>95.38</ele>
        <time>2024-01-01T10:37:50.393Z</time>
      </trkpt>
      <trkpt lat="49.02531394734979" lon="3.965448969975114">
        <ele>95.41</ele>
        <time>2024-01-01T10:37:50.583Z</time>
      </trkpt>
      <trkpt lat="49.02530296705663" lon="3.965483922511339">
        <ele>95.44</ele>
        <time>2024-01-01T10:37:50.775Z</time>
      </trkpt>
      <trkpt lat="49.02529198676348" lon="3.9655249938368797">
        <ele>95.49</ele>
        <time>2024-01-01T10:37:50.968Z</time>
      </trkpt>
      <trkpt lat="49.02528293430805" lon="3.965562963858247">
        <ele>95.54</ele>
        <time>2024-01-01T10:37:51.162Z</time>
      </trkpt>
      <trkpt lat="49.0252719540149" lon="3.965604957193136">
        <ele>95.59</ele>
        <time>2024-01-01T10:37:51.358Z</time>
      </trkpt>
      <trkpt lat="49.025262985378504" lon="3.965640999376774">
        <ele>95.66</ele>
        <time>2024-01-01T10:37:51.555Z</time>
      </trkpt>
      <trkpt lat="49.02525393292308" lon="3.9656779635697603">
        <ele>95.73</ele>
        <time>2024-01-01T10:37:51.753Z</time>
      </trkpt>
      <trkpt lat="49.025242952629924" lon="3.9657129999250174">
        <ele>95.81</ele>
        <time>2024-01-01T10:37:51.952Z</time>
      </trkpt>
      <trkpt lat="49.02523599565029" lon="3.965746946632862">
        <ele>95.9</ele>
        <time>2024-01-01T10:37:52.152Z</time>
      </trkpt>
      <trkpt lat="49.025224931538105" lon="3.9657869283109903">
        <ele>96.0</ele>
        <time>2024-01-01T10:37:52.354Z</time>
      </trkpt>
      <trkpt lat="49.02521696873009" lon="3.965822970494628">
        <ele>96.1</ele>
        <time>2024-01-01T10:37:52.557Z</time>
      </trkpt>
      <trkpt lat="49.02520992793143" lon="3.965858928859234">
        <ele>96.2</ele>
        <time>2024-01-01T10:37:52.761Z</time>
      </trkpt>
      <trkpt lat="49.02521093375981" lon="3.965888936072588">
        <ele>96.32</ele>
        <time>2024-01-01T10:37:52.966Z</time>
      </trkpt>
      <trkpt lat="49.02521696873009" lon="3.9659079629927874">
        <ele>96.45</ele>
        <time>2024-01-01T10:37:53.171Z</time>
      </trkpt>
      <trkpt lat="49.02523197233677" lon="3.965890947729349">
        <ele>96.58</ele>
        <time>2024-01-01T10:37:53.377Z</time>
      </trkpt>
      <trkpt lat="49.02525099925697" lon="3.9658689871430397">
        <ele>96.73</ele>
        <time>2024-01-01T10:37:53.584Z</time>
      </trkpt>
      <trkpt lat="49.0252769831568" lon="3.965843925252557">
        <ele>96.88</ele>
        <time>2024-01-01T10:37:53.793Z</time>
      </trkpt>
      <trkpt lat="49.025305984541774" lon="3.9658219646662474">
        <ele>97.04</ele>
        <time>2024-01-01T10:37:54.003Z</time>
      </trkpt>
      <trkpt lat="49.0253269392997" lon="3.9657979924231768">
        <ele>97.2</ele>
        <time>2024-01-01T10:37:54.215Z</time>
      </trkpt>
      <trkpt lat="49.025352923199534" lon="3.9657739363610744">
        <ele>97.37</ele>
        <time>2024-01-01T10:37:54.428Z</time>
      </trkpt>
      <trkpt lat="49.025373961776495" lon="3.9657509699463844">
        <ele>97.54</ele>
        <time>2024-01-01T10:37:54.642Z</time>
      </trkpt>
      <trkpt lat="49.025395922362804" lon="3.965721968561411">
        <ele>97.72</ele>
        <time>2024-01-01T10:37:54.858Z</time>
      </trkpt>
      <trkpt lat="49.025418972596526" lon="3.9656969904899597">
        <ele>97.9</ele>
        <time>2024-01-01T10:37:55.075Z</time>
      </trkpt>
      <trkpt lat="49.025440933182836" lon="3.9656689949333668">
        <ele>98.1</ele>
        <time>2024-01-01T10:37:55.293Z</time>
      </trkpt>
      <trkpt lat="49.02546599507332" lon="3.9656449388712645">
        <ele>98.31</ele>
        <time>2024-01-01T10:37:55.513Z</time>
      </trkpt>
      <trkpt lat="49.02548594400287" lon="3.965622978284955">
        <ele>98.53</ele>
        <time>2024-01-01T10:37:55.734Z</time>
      </trkpt>
      <trkpt lat="49.02550991624594" lon="3.965597916394472">
        <ele>98.76</ele>
        <time>2024-01-01T10:37:55.956Z</time>
      </trkpt>
      <trkpt lat="49.02552994899452" lon="3.9655759558081627">
        <ele>98.98</ele>
        <time>2024-01-01T10:37:56.179Z</time>
      </trkpt>
      <trkpt lat="49.02554897591472" lon="3.9655509777367115">
        <ele>99.21</ele>
        <time>2024-01-01T10:37:56.403Z</time>
      </trkpt>
      <trkpt lat="49.025567919015884" lon="3.9655289333313704">
        <ele>99.45</ele>
        <time>2024-01-01T10:37:56.629Z</time>
      </trkpt>
      <trkpt lat="49.0255859401077" lon="3.9655079785734415">
        <ele>99.69</ele>
        <time>2024-01-01T10:37:56.856Z</time>
      </trkpt>
      <trkpt lat="49.025606978684664" lon="3.9654859341681004">
        <ele>99.94</ele>
        <time>2024-01-01T10:37:57.084Z</time>
      </trkpt>
      <trkpt lat="49.02562097646296" lon="3.9654649794101715">
        <ele>100.19</ele>
        <time>2024-01-01T10:37:57.313Z</time>
      </trkpt>
      <trkpt lat="49.02563899755478" lon="3.9654399175196886">
        <ele>100.45</ele>
        <time>2024-01-01T10:37:57.543Z</time>
      </trkpt>
      <trkpt lat="49.025655928999186" lon="3.9654189627617598">
        <ele>100.71</ele>
        <time>2024-01-01T10:37:57.774Z</time>
      </trkpt>
      <trkpt lat="49.02566992677748" lon="3.9653919730335474">
        <ele>100.97</ele>
        <time>2024-01-01T10:37:58.006Z</time>
      </trkpt>
      <trkpt lat="49.02568895369768" lon="3.9653689227998257">
        <ele>101.24</ele>
        <time>2024-01-01T10:37:58.239Z</time>
      </trkpt>
      <trkpt lat="49.02570295147598" lon="3.965347968041897">
        <ele>101.51</ele>
        <time>2024-01-01T10:37:58.473Z</time>
      </trkpt>
      <trkpt lat="49.025719966739416" lon="3.9653209783136845">
        <ele>101.79</ele>
        <time>2024-01-01T10:37:58.708Z</time>
      </trkpt>
      <trkpt lat="49.02573497034609" lon="3.965299939736724">
        <ele>102.07</ele>
        <time>2024-01-01T10:37:58.944Z</time>
      </trkpt>
      <trkpt lat="49.02575198560953" lon="3.9652729500085115">
        <ele>102.36</ele>
        <time>2024-01-01T10:37:59.181Z</time>
      </trkpt>
      <trkpt lat="49.02576799504459" lon="3.9652479719370604">
        <ele>102.65</ele>
        <time>2024-01-01T10:37:59.419Z</time>
      </trkpt>
      <trkpt lat="49.025778975337744" lon="3.9652269333601">
        <ele>102.95</ele>
        <time>2024-01-01T10:37:59.658Z</time>
      </trkpt>
      <trkpt lat="49.02579297311604" lon="3.965202961117029">
        <ele>103.25</ele>
        <time>2024-01-01T10:37:59.898Z</time>
      </trkpt>
      <trkpt lat="49.025804959237576" lon="3.965179994702339">
        <ele>103.55</ele>
        <time>2024-01-01T10:38:00.139Z</time>
      </trkpt>
      <trkpt lat="49.02582096867263" lon="3.9651589561253786">
        <ele>103.86</ele>
        <time>2024-01-01T10:38:00.381Z</time>
      </trkpt>
      <trkpt lat="49.02583798393607" lon="3.965136995539069">
        <ele>104.18</ele>
        <time>2024-01-01T10:38:00.624Z</time>
      </trkpt>
      <trkpt lat="49.02585399337113" lon="3.965116962790489">
        <ele>104.5</ele>
        <time>2024-01-01T10:38:00.868Z</time>
      </trkpt>
      <trkpt lat="49.02587394230068" lon="3.9650929905474186">
        <ele>104.83</ele>
        <time>2024-01-01T10:38:01.113Z</time>
      </trkpt>
      <trkpt lat="49.025888945907354" lon="3.965071951970458">
        <ele>105.15</ele>
        <time>2024-01-01T10:38:01.359Z</time>
      </trkpt>
      <trkpt lat="49.025908978655934" lon="3.965051919221878">
        <ele>105.49</ele>
        <time>2024-01-01T10:38:01.606Z</time>
      </trkpt>
      <trkpt lat="49.02592892758548" lon="3.96503197029233">
        <ele>105.83</ele>
        <time>2024-01-01T10:38:01.854Z</time>
      </trkpt>
      <trkpt lat="49.0259469486773" lon="3.96501193754375">
        <ele>106.16</ele>
        <time>2024-01-01T10:38:02.103Z</time>
      </trkpt>
      <trkpt lat="49.02596798725426" lon="3.9649949222803116">
        <ele>106.5</ele>
        <time>2024-01-01T10:38:02.354Z</time>
      </trkpt>
      <trkpt lat="49.02598491869867" lon="3.964980924502015">
        <ele>106.84</ele>
        <time>2024-01-01T10:38:02.605Z</time>
      </trkpt>
      <trkpt lat="49.02600394561887" lon="3.964964998885989">
        <ele>107.17</ele>
        <time>2024-01-01T10:38:02.857Z</time>
      </trkpt>
      <trkpt lat="49.02602397836745" lon="3.964952928945422">
        <ele>107.51</ele>
        <time>2024-01-01T10:38:03.110Z</time>
      </trkpt>
      <trkpt lat="49.026042921468616" lon="3.9649399369955063">
        <ele>107.84</ele>
        <time>2024-01-01T10:38:03.364Z</time>
      </trkpt>
      <trkpt lat="49.02606597170234" lon="3.964929962530732">
        <ele>108.17</ele>
        <time>2024-01-01T10:38:03.620Z</time>
      </trkpt>
      <trkpt lat="49.026086926460266" lon="3.964921999722719">
        <ele>108.5</ele>
        <time>2024-01-01T10:38:03.877Z</time>
      </trkpt>
      <trkpt lat="49.02611098252237" lon="3.9649159647524357">
        <ele>108.83</ele>
        <time>2024-01-01T10:38:04.135Z</time>
      </trkpt>
      <trkpt lat="49.02613294310868" lon="3.964912947267294">
        <ele>109.15</ele>
        <time>2024-01-01T10:38:04.394Z</time>
      </trkpt>
      <trkpt lat="49.02615297585726" lon="3.964909929782152">
        <ele>109.46</ele>
        <time>2024-01-01T10:38:04.654Z</time>
      </trkpt>
      <trkpt lat="49.02617594227195" lon="3.9649189822375774">
        <ele>109.77</ele>
        <time>2024-01-01T10:38:04.915Z</time>
      </trkpt>
      <trkpt lat="49.02619496919215" lon="3.9649269450455904">
        <ele>110.06</ele>
        <time>2024-01-01T10:38:05.177Z</time>
      </trkpt>
      <trkpt lat="49.026211984455585" lon="3.9649419486522675">
        <ele>110.35</ele>
        <time>2024-01-01T10:38:05.440Z</time>
      </trkpt>
      <trkpt lat="49.026232939213514" lon="3.9649619814008474">
        <ele>110.62</ele>
        <time>2024-01-01T10:38:05.704Z</time>
      </trkpt>
      <trkpt lat="49.026253977790475" lon="3.964980924502015">
        <ele>110.89</ele>
        <time>2024-01-01T10:38:05.969Z</time>
      </trkpt>
      <trkpt lat="49.02627392672002" lon="3.965000957250595">
        <ele>111.13</ele>
        <time>2024-01-01T10:38:06.235Z</time>
      </trkpt>
      <trkpt lat="49.0262939594686" lon="3.9650199841707945">
        <ele>111.35</ele>
        <time>2024-01-01T10:38:06.502Z</time>
      </trkpt>
      <trkpt lat="49.0263129863888" lon="3.9650409389287233">
        <ele>111.57</ele>
        <time>2024-01-01T10:38:06.770Z</time>
      </trkpt>
      <trkpt lat="49.02633092366159" lon="3.965061977505684">
        <ele>111.77</ele>
        <time>2024-01-01T10:38:07.039Z</time>
      </trkpt>
      <trkpt lat="49.02634995058179" lon="3.9650779869407415">
        <ele>111.96</ele>
        <time>2024-01-01T10:38:07.309Z</time>
      </trkpt>
      <trkpt lat="49.02636998333037" lon="3.965101959183812">
        <ele>112.13</ele>
        <time>2024-01-01T10:38:07.581Z</time>
      </trkpt>
      <trkpt lat="49.02638892643154" lon="3.965119980275631">
        <ele>112.29</ele>
        <time>2024-01-01T10:38:07.854Z</time>
      </trkpt>
      <trkpt lat="49.02640895918012" lon="3.965139929205179">
        <ele>112.44</ele>
        <time>2024-01-01T10:38:08.128Z</time>
      </trkpt>
      <trkpt lat="49.026427986100316" lon="3.96516096778214">
        <ele>112.57</ele>
        <time>2024-01-01T10:38:08.403Z</time>
      </trkpt>
      <trkpt lat="49.026446929201484" lon="3.965177983045578">
        <ele>112.69</ele>
        <time>2024-01-01T10:38:08.679Z</time>
      </trkpt>
      <trkpt lat="49.026469979435205" lon="3.9651999436318874">
        <ele>112.8</ele>
        <time>2024-01-01T10:38:08.956Z</time>
      </trkpt>
      <trkpt lat="49.026490934193134" lon="3.9652179647237062">
        <ele>112.9</ele>
        <time>2024-01-01T10:38:09.234Z</time>
      </trkpt>
      <trkpt lat="49.026513984426856" lon="3.9652379974722862">
        <ele>112.98</ele>
        <time>2024-01-01T10:38:09.513Z</time>
      </trkpt>
      <trkpt lat="49.026534939184785" lon="3.965253923088312">
        <ele>113.06</ele>
        <time>2024-01-01T10:38:09.794Z</time>
      </trkpt>
      <trkpt lat="49.02655798941851" lon="3.9652709383517504">
        <ele>113.13</ele>
        <time>2024-01-01T10:38:10.076Z</time>
      </trkpt>
      <trkpt lat="49.0265809558332" lon="3.9652899652719498">
        <ele>113.19</ele>
        <time>2024-01-01T10:38:10.359Z</time>
      </trkpt>
      <trkpt lat="49.02660199441016" lon="3.965304968878627">
        <ele>113.24</ele>
        <time>2024-01-01T10:38:10.643Z</time>
      </trkpt>
      <trkpt lat="49.02662596665323" lon="3.965324917808175">
        <ele>113.29</ele>
        <time>2024-01-01T10:38:10.928Z</time>
      </trkpt>
      <trkpt lat="49.02664599940181" lon="3.9653409272432327">
        <ele>113.32</ele>
        <time>2024-01-01T10:38:11.214Z</time>
      </trkpt>
      <trkpt lat="49.02666795998812" lon="3.965357942506671">
        <ele>113.36</ele>
        <time>2024-01-01T10:38:11.502Z</time>
      </trkpt>
      <trkpt lat="49.02668899856508" lon="3.965377975255251">
        <ele>113.38</ele>
        <time>2024-01-01T10:38:11.791Z</time>
      </trkpt>
      <trkpt lat="49.026705930009484" lon="3.9653939846903086">
        <ele>113.4</ele>
        <time>2024-01-01T10:38:12.081Z</time>
      </trkpt>
      <trkpt lat="49.02672093361616" lon="3.9654239919036627">
        <ele>113.41</ele>
        <time>2024-01-01T10:38:12.372Z</time>
      </trkpt>
      <trkpt lat="49.02672998607159" lon="3.9654549211263657">
        <ele>113.42</ele>
        <time>2024-01-01T10:38:12.664Z</time>
      </trkpt>
      <trkpt lat="49.02673493139446" lon="3.965486939996481">
        <ele>113.43</ele>
        <time>2024-01-01T10:38:12.957Z</time>
      </trkpt>
      <trkpt lat="49.02673199772835" lon="3.965526921674609">
        <ele>113.43</ele>
        <time>2024-01-01T10:38:13.251Z</time>
      </trkpt>
      <trkpt lat="49.026728980243206" lon="3.9655639696866274">
        <ele>113.43</ele>
        <time>2024-01-01T10:38:13.546Z</time>
      </trkpt>
      <trkpt lat="49.02672193944454" lon="3.9656019397079945">
        <ele>113.43</ele>
        <time>2024-01-01T10:38:13.842Z</time>
      </trkpt>
      <trkpt lat="49.02671297080815" lon="3.965635970234871">
        <ele>113.44</ele>
        <time>2024-01-01T10:38:14.140Z</time>
      </trkpt>
      <trkpt lat="49.02670391835272" lon="3.9656689949333668">
        <ele>113.46</ele>
        <time>2024-01-01T10:38:14.439Z</time>
      </trkpt>
      <trkpt lat="49.02669193223119" lon="3.965708976611495">
        <ele>113.48</ele>
        <time>2024-01-01T10:38:14.739Z</time>
      </trkpt>
      <trkpt lat="49.026682963594794" lon="3.965741917490959">
        <ele>113.52</ele>
        <time>2024-01-01T10:38:15.040Z</time>
      </trkpt>
      <trkpt lat="49.026662930846214" lon="3.965774942189455">
        <ele>113.57</ele>
        <time>2024-01-01T10:38:15.342Z</time>
      </trkpt>
      <trkpt lat="49.02664792723954" lon="3.9658069610595703">
        <ele>113.63</ele>
        <time>2024-01-01T10:38:15.646Z</time>
      </trkpt>
      <trkpt lat="49.02663292363286" lon="3.965837974101305">
        <ele>113.7</ele>
        <time>2024-01-01T10:38:15.951Z</time>
      </trkpt>
      <trkpt lat="49.026619931682944" lon="3.9658719208091497">
        <ele>113.79</ele>
        <time>2024-01-01T10:38:16.257Z</time>
      </trkpt>
      <trkpt lat="49.02661398053169" lon="3.965903939679265">
        <ele>113.91</ele>
        <time>2024-01-01T10:38:16.564Z</time>
      </trkpt>
      <trkpt lat="49.02661498636007" lon="3.9659409876912832">
        <ele>114.04</ele>
        <time>2024-01-01T10:38:16.872Z</time>
      </trkpt>
      <trkpt lat="49.02662496082485" lon="3.9659699890762568">
        <ele>114.2</ele>
        <time>2024-01-01T10:38:17.181Z</time>
      </trkpt>
      <trkpt lat="49.026639964431524" lon="3.9659959729760885">
        <ele>114.39</ele>
        <time>2024-01-01T10:38:17.491Z</time>
      </trkpt>
      <trkpt lat="49.026659997180104" lon="3.966017933562398">
        <ele>114.59</ele>
        <time>2024-01-01T10:38:17.802Z</time>
      </trkpt>
      <trkpt lat="49.026682963594794" lon="3.9660319313406944">
        <ele>114.81</ele>
        <time>2024-01-01T10:38:18.115Z</time>
      </trkpt>
      <trkpt lat="49.02670391835272" lon="3.9660439174622297">
        <ele>115.05</ele>
        <time>2024-01-01T10:38:18.429Z</time>
      </trkpt>
      <trkpt lat="49.026724956929684" lon="3.9660599268972874">
        <ele>115.31</ele>
        <time>2024-01-01T10:38:18.744Z</time>
      </trkpt>
      <trkpt lat="49.02674691751599" lon="3.9660769421607256">
        <ele>115.59</ele>
        <time>2024-01-01T10:38:19.060Z</time>
      </trkpt>
      <trkpt lat="49.02676695026457" lon="3.966097980737686">
        <ele>115.88</ele>
        <time>2024-01-01T10:38:19.377Z</time>
      </trkpt>
      <trkpt lat="49.02678698301315" lon="3.9661159180104733">
        <ele>116.19</ele>
        <time>2024-01-01T10:38:19.695Z</time>
      </trkpt>
      <trkpt lat="49.02680793777108" lon="3.9661399740725756">
        <ele>116.52</ele>
        <time>2024-01-01T10:38:20.014Z</time>
      </trkpt>
      <trkpt lat="49.0268259588629" lon="3.966156989336014">
        <ele>116.86</ele>
        <time>2024-01-01T10:38:20.334Z</time>
      </trkpt>
      <trkpt lat="49.02684599161148" lon="3.966174926608801">
        <ele>117.21</ele>
        <time>2024-01-01T10:38:20.655Z</time>
      </trkpt>
      <trkpt lat="49.02686392888427" lon="3.9661929477006197">
        <ele>117.58</ele>
        <time>2024-01-01T10:38:20.977Z</time>
      </trkpt>
      <trkpt lat="49.026879938319325" lon="3.9662059396505356">
        <ele>117.96</ele>
        <time>2024-01-01T10:38:21.300Z</time>
      </trkpt>
      <trkpt lat="49.026897959411144" lon="3.9662219490855932">
        <ele>118.34</ele>
        <time>2024-01-01T10:38:21.624Z</time>
      </trkpt>
      <trkpt lat="49.02691296301782" lon="3.9662339352071285">
        <ele>118.74</ele>
        <time>2024-01-01T10:38:21.949Z</time>
      </trkpt>
      <trkpt lat="49.02693098410964" lon="3.9662519562989473">
        <ele>119.15</ele>
        <time>2024-01-01T10:38:22.275Z</time>
      </trkpt>
      <trkpt lat="49.0269469935447" lon="3.9662739168852568">
        <ele>119.56</ele>
        <time>2024-01-01T10:38:22.602Z</time>
      </trkpt>
      <trkpt lat="49.026964930817485" lon="3.9662939496338367">
        <ele>119.98</ele>
        <time>2024-01-01T10:38:22.930Z</time>
      </trkpt>
      <trkpt lat="49.026984963566065" lon="3.9663199335336685">
        <ele>120.41</ele>
        <time>2024-01-01T10:38:23.259Z</time>
      </trkpt>
      <trkpt lat="49.027002984657884" lon="3.9663379546254873">
        <ele>120.84</ele>
        <time>2024-01-01T10:38:23.589Z</time>
      </trkpt>
      <trkpt lat="49.02702494524419" lon="3.9663549698889256">
        <ele>121.28</ele>
        <time>2024-01-01T10:38:23.920Z</time>
      </trkpt>
      <trkpt lat="49.02704296633601" lon="3.966368967667222">
        <ele>121.71</ele>
        <time>2024-01-01T10:38:24.252Z</time>
      </trkpt>
      <trkpt lat="49.02706098742783" lon="3.966378942131996">
        <ele>122.15</ele>
        <time>2024-01-01T10:38:24.585Z</time>
      </trkpt>
      <trkpt lat="49.027079930529" lon="3.966393945738673">
        <ele>122.59</ele>
        <time>2024-01-01T10:38:24.919Z</time>
      </trkpt>
      <trkpt lat="49.027095939964056" lon="3.966409955173731">
        <ele>123.03</ele>
        <time>2024-01-01T10:38:25.254Z</time>
      </trkpt>
      <trkpt lat="49.027115972712636" lon="3.966424958780408">
        <ele>123.47</ele>
        <time>2024-01-01T10:38:25.590Z</time>
      </trkpt>
      <trkpt lat="49.027134999632835" lon="3.966441974043846">
        <ele>123.91</ele>
        <time>2024-01-01T10:38:25.927Z</time>
      </trkpt>
      <trkpt lat="49.027154948562384" lon="3.9664519485086203">
        <ele>124.35</ele>
        <time>2024-01-01T10:38:26.265Z</time>
      </trkpt>
      <trkpt lat="49.02717196382582" lon="3.9664659462869167">
        <ele>124.79</ele>
        <time>2024-01-01T10:38:26.604Z</time>
      </trkpt>
      <trkpt lat="49.02718797326088" lon="3.9664789382368326">
        <ele>125.22</ele>
        <time>2024-01-01T10:38:26.944Z</time>
      </trkpt>
      <trkpt lat="49.02720398269594" lon="3.9664889965206385">
        <ele>125.65</ele>
        <time>2024-01-01T10:38:27.285Z</time>
      </trkpt>
      <trkpt lat="49.027221919968724" lon="3.966503916308284">
        <ele>126.08</ele>
        <time>2024-01-01T10:38:27.627Z</time>
      </trkpt>
      <trkpt lat="49.027240946888924" lon="3.9665149804204702">
        <ele>126.5</ele>
        <time>2024-01-01T10:38:27.970Z</time>
      </trkpt>
      <trkpt lat="49.027261985465884" lon="3.966533923521638">
        <ele>126.93</ele>
        <time>2024-01-01T10:38:28.314Z</time>
      </trkpt>
      <trkpt lat="49.02728193439543" lon="3.9665499329566956">
        <ele>127.34</ele>
        <time>2024-01-01T10:38:28.659Z</time>
      </trkpt>
      <trkpt lat="49.02729995548725" lon="3.9665679540485144">
        <ele>127.76</ele>
        <time>2024-01-01T10:38:29.005Z</time>
      </trkpt>
      <trkpt lat="49.02731797657907" lon="3.966585975140333">
        <ele>128.16</ele>
        <time>2024-01-01T10:38:29.352Z</time>
      </trkpt>
      <trkpt lat="49.02733993716538" lon="3.9665979612618685">
        <ele>128.57</ele>
        <time>2024-01-01T10:38:29.700Z</time>
      </trkpt>
      <trkpt lat="49.02735996991396" lon="3.966616988182068">
        <ele>128.97</ele>
        <time>2024-01-01T10:38:30.049Z</time>
      </trkpt>
      <trkpt lat="49.02737799100578" lon="3.966631991788745">
        <ele>129.37</ele>
        <time>2024-01-01T10:38:30.399Z</time>
      </trkpt>
      <trkpt lat="49.027396934106946" lon="3.9666489232331514">
        <ele>129.76</ele>
        <time>2024-01-01T10:38:30.750Z</time>
      </trkpt>
      <trkpt lat="49.027412943542004" lon="3.9666689559817314">
        <ele>130.15</ele>
        <time>2024-01-01T10:38:31.102Z</time>
      </trkpt>
      <trkpt lat="49.0274319704622" lon="3.966682953760028">
        <ele>130.53</ele>
        <time>2024-01-01T10:38:31.455Z</time>
      </trkpt>
      <trkpt lat="49.02745191939175" lon="3.9667039923369884">
        <ele>130.92</ele>
        <time>2024-01-01T10:38:31.809Z</time>
      </trkpt>
      <trkpt lat="49.02746692299843" lon="3.9667169842869043">
        <ele>131.29</ele>
        <time>2024-01-01T10:38:32.164Z</time>
      </trkpt>
      <trkpt lat="49.027480920776725" lon="3.966732993721962">
        <ele>131.67</ele>
        <time>2024-01-01T10:38:32.520Z</time>
      </trkpt>
      <trkpt lat="49.02749793604016" lon="3.9667499251663685">
        <ele>132.05</ele>
        <time>2024-01-01T10:38:32.877Z</time>
      </trkpt>
      <trkpt lat="49.02751394547522" lon="3.966760989278555">
        <ele>132.42</ele>
        <time>2024-01-01T10:38:33.235Z</time>
      </trkpt>
      <trkpt lat="49.0275289490819" lon="3.966780938208103">
        <ele>132.8</ele>
        <time>2024-01-01T10:38:33.594Z</time>
      </trkpt>
      <trkpt lat="49.027542946860194" lon="3.9667979534715414">
        <ele>133.17</ele>
        <time>2024-01-01T10:38:33.953Z</time>
      </trkpt>
      <trkpt lat="49.02755996212363" lon="3.9668149687349796">
        <ele>133.55</ele>
        <time>2024-01-01T10:38:34.313Z</time>
      </trkpt>
      <trkpt lat="49.02757898904383" lon="3.9668359234929085">
        <ele>133.94</ele>
        <time>2024-01-01T10:38:34.674Z</time>
      </trkpt>
      <trkpt lat="49.02759893797338" lon="3.966846987605095">
        <ele>134.33</ele>
        <time>2024-01-01T10:38:35.036Z</time>
      </trkpt>
      <trkpt lat="49.0276219882071" lon="3.9668609853833914">
        <ele>134.72</ele>
        <time>2024-01-01T10:38:35.400Z</time>
      </trkpt>
      <trkpt lat="49.02764193713665" lon="3.9668739773333073">
        <ele>135.11</ele>
        <time>2024-01-01T10:38:35.765Z</time>
      </trkpt>
      <trkpt lat="49.02765895240009" lon="3.966884957626462">
        <ele>135.51</ele>
        <time>2024-01-01T10:38:36.130Z</time>
      </trkpt>
      <trkpt lat="49.02767596766353" lon="3.966899961233139">
        <ele>135.91</ele>
        <time>2024-01-01T10:38:36.496Z</time>
      </trkpt>
      <trkpt lat="49.027694994583726" lon="3.966914964839816">
        <ele>136.31</ele>
        <time>2024-01-01T10:38:36.863Z</time>
      </trkpt>
      <trkpt lat="49.02771192602813" lon="3.9669269509613514">
        <ele>136.72</ele>
        <time>2024-01-01T10:38:37.231Z</time>
      </trkpt>
      <trkpt lat="49.02772894129157" lon="3.966942960396409">
        <ele>137.14</ele>
        <time>2024-01-01T10:38:37.600Z</time>
      </trkpt>
      <trkpt lat="49.02774495072663" lon="3.966955952346325">
        <ele>137.56</ele>
        <time>2024-01-01T10:38:37.970Z</time>
      </trkpt>
      <trkpt lat="49.02776498347521" lon="3.966972967609763">
        <ele>137.99</ele>
        <time>2024-01-01T10:38:38.341Z</time>
      </trkpt>
      <trkpt lat="49.02778199873865" lon="3.9669869653880596">
        <ele>138.43</ele>
        <time>2024-01-01T10:38:38.713Z</time>
      </trkpt>
      <trkpt lat="49.027800941839814" lon="3.9670019689947367">
        <ele>138.87</ele>
        <time>2024-01-01T10:38:39.086Z</time>
      </trkpt>
      <trkpt lat="49.027820974588394" lon="3.967021917924285">
        <ele>139.32</ele>
        <time>2024-01-01T10:38:39.460Z</time>
      </trkpt>
      <trkpt lat="49.02783698402345" lon="3.967036921530962">
        <ele>139.77</ele>
        <time>2024-01-01T10:38:39.835Z</time>
      </trkpt>
      <trkpt lat="49.02785399928689" lon="3.9670529309660196">
        <ele>140.22</ele>
        <time>2024-01-01T10:38:40.211Z</time>
      </trkpt>
      <trkpt lat="49.027869924902916" lon="3.9670659229159355">
        <ele>140.69</ele>
        <time>2024-01-01T10:38:40.588Z</time>
      </trkpt>
      <trkpt lat="49.027888951823115" lon="3.9670759811997414">
        <ele>141.15</ele>
        <time>2024-01-01T10:38:40.966Z</time>
      </trkpt>
      <trkpt lat="49.027908984571695" lon="3.967089978978038">
        <ele>141.63</ele>
        <time>2024-01-01T10:38:41.345Z</time>
      </trkpt>
      <trkpt lat="49.02792499400675" lon="3.967097941786051">
        <ele>142.1</ele>
        <time>2024-01-01T10:38:41.725Z</time>
      </trkpt>
      <trkpt lat="49.02794393710792" lon="3.967107916250825">
        <ele>142.58</ele>
        <time>2024-01-01T10:38:42.105Z</time>
      </trkpt>
      <trkpt lat="49.02796195819974" lon="3.9671339839696884">
        <ele>143.06</ele>
        <time>2024-01-01T10:38:42.487Z</time>
      </trkpt>
      <trkpt lat="49.0279779676348" lon="3.9671509992331266">
        <ele>143.54</ele>
        <time>2024-01-01T10:38:42.870Z</time>
      </trkpt>
      <trkpt lat="49.027996994555" lon="3.967172959819436">
        <ele>144.03</ele>
        <time>2024-01-01T10:38:43.254Z</time>
      </trkpt>
      <trkpt lat="49.0280139259994" lon="3.9671919867396355">
        <ele>144.5</ele>
        <time>2024-01-01T10:38:43.639Z</time>
      </trkpt>
      <trkpt lat="49.02802993543446" lon="3.96720296703279">
        <ele>144.97</ele>
        <time>2024-01-01T10:38:44.024Z</time>
      </trkpt>
      <trkpt lat="49.02804795652628" lon="3.9672149531543255">
        <ele>145.43</ele>
        <time>2024-01-01T10:38:44.410Z</time>
      </trkpt>
      <trkpt lat="49.028061954304576" lon="3.96722299978137">
        <ele>145.87</ele>
        <time>2024-01-01T10:38:44.797Z</time>
      </trkpt>
      <trkpt lat="49.028077963739634" lon="3.9672319684177637">
        <ele>146.31</ele>
        <time>2024-01-01T10:38:45.185Z</time>
      </trkpt>
      <trkpt lat="49.02809497900307" lon="3.9672469720244408">
        <ele>146.74</ele>
        <time>2024-01-01T10:38:45.574Z</time>
      </trkpt>
      <trkpt lat="49.02810998260975" lon="3.9672579523175955">
        <ele>147.15</ele>
        <time>2024-01-01T10:38:45.964Z</time>
      </trkpt>
      <trkpt lat="49.0281299315393" lon="3.9672759734094143">
        <ele>147.56</ele>
        <time>2024-01-01T10:38:46.355Z</time>
      </trkpt>
      <trkpt lat="49.028147952631116" lon="3.967294916510582">
        <ele>147.94</ele>
        <time>2024-01-01T10:38:46.747Z</time>
      </trkpt>
      <trkpt lat="49.028164967894554" lon="3.9673059806227684">
        <ele>148.31</ele>
        <time>2024-01-01T10:38:47.140Z</time>
      </trkpt>
      <trkpt lat="49.02818399481475" lon="3.967324923723936">
        <ele>148.66</ele>
        <time>2024-01-01T10:38:47.534Z</time>
      </trkpt>
      <trkpt lat="49.02820092625916" lon="3.967336993664503">
        <ele>148.98</ele>
        <time>2024-01-01T10:38:47.928Z</time>
      </trkpt>
      <trkpt lat="49.02821894735098" lon="3.967349985614419">
        <ele>149.27</ele>
        <time>2024-01-01T10:38:48.323Z</time>
      </trkpt>
      <trkpt lat="49.02823495678604" lon="3.9673659950494766">
        <ele>149.54</ele>
        <time>2024-01-01T10:38:48.719Z</time>
      </trkpt>
      <trkpt lat="49.02824593707919" lon="3.967377981171012">
        <ele>149.79</ele>
        <time>2024-01-01T10:38:49.116Z</time>
      </trkpt>
      <trkpt lat="49.02825498953462" lon="3.967407988384366">
        <ele>150.01</ele>
        <time>2024-01-01T10:38:49.514Z</time>
      </trkpt>
      <trkpt lat="49.02825892902911" lon="3.9674319606274366">
        <ele>150.2</ele>
        <time>2024-01-01T10:38:49.913Z</time>
      </trkpt>
      <trkpt lat="49.02825792320073" lon="3.9674629736691713">
        <ele>150.36</ele>
        <time>2024-01-01T10:38:50.313Z</time>
      </trkpt>
      <trkpt lat="49.028250966221094" lon="3.9674949925392866">
        <ele>150.49</ele>
        <time>2024-01-01T10:38:50.714Z</time>
      </trkpt>
      <trkpt lat="49.0282419975847" lon="3.967529945075512">
        <ele>150.6</ele>
        <time>2024-01-01T10:38:51.116Z</time>
      </trkpt>
      <trkpt lat="49.028231939300895" lon="3.967564981430769">
        <ele>150.69</ele>
        <time>2024-01-01T10:38:51.519Z</time>
      </trkpt>
      <trkpt lat="49.02821894735098" lon="3.9675939828157425">
        <ele>150.75</ele>
        <time>2024-01-01T10:38:51.923Z</time>
      </trkpt>
      <trkpt lat="49.02820595540106" lon="3.967630947008729">
        <ele>150.79</ele>
        <time>2024-01-01T10:38:52.328Z</time>
      </trkpt>
      <trkpt lat="49.02819396927953" lon="3.9676619600504637">
        <ele>150.81</ele>
        <time>2024-01-01T10:38:52.734Z</time>
      </trkpt>
      <trkpt lat="49.02818399481475" lon="3.9676899556070566">
        <ele>150.82</ele>
        <time>2024-01-01T10:38:53.141Z</time>
      </trkpt>
      <trkpt lat="49.02816899120808" lon="3.967721974477172">
        <ele>150.8</ele>
        <time>2024-01-01T10:38:53.550Z</time>
      </trkpt>
      <trkpt lat="49.02815692126751" lon="3.9677489642053843">
        <ele>150.77</ele>
        <time>2024-01-01T10:38:53.960Z</time>
      </trkpt>
      <trkpt lat="49.028144935145974" lon="3.96778198890388">
        <ele>150.73</ele>
        <time>2024-01-01T10:38:54.371Z</time>
      </trkpt>
      <trkpt lat="49.0281299315393" lon="3.9678139239549637">
        <ele>150.68</ele>
        <time>2024-01-01T10:38:54.783Z</time>
      </trkpt>
      <trkpt lat="49.02811895124614" lon="3.9678489603102207">
        <ele>150.62</ele>
        <time>2024-01-01T10:38:55.196Z</time>
      </trkpt>
      <trkpt lat="49.02810797095299" lon="3.967882990837097">
        <ele>150.55</ele>
        <time>2024-01-01T10:38:55.610Z</time>
      </trkpt>
      <trkpt lat="49.02809598483145" lon="3.9679159317165613">
        <ele>150.48</ele>
        <time>2024-01-01T10:38:56.026Z</time>
      </trkpt>
      <trkpt lat="49.02808592654765" lon="3.9679529797285795">
        <ele>150.4</ele>
        <time>2024-01-01T10:38:56.443Z</time>
      </trkpt>
      <trkpt lat="49.02807595208287" lon="3.967981981113553">
        <ele>150.31</ele>
        <time>2024-01-01T10:38:56.861Z</time>
      </trkpt>
      <trkpt lat="49.02806991711259" lon="3.9680129941552877">
        <ele>150.21</ele>
        <time>2024-01-01T10:38:57.280Z</time>
      </trkpt>
      <trkpt lat="49.02805298566818" lon="3.968045935034752">
        <ele>150.11</ele>
        <time>2024-01-01T10:38:57.700Z</time>
      </trkpt>
      <trkpt lat="49.02804099954665" lon="3.968080971390009">
        <ele>150.01</ele>
        <time>2024-01-01T10:38:58.121Z</time>
      </trkpt>
      <trkpt lat="49.0280279237777" lon="3.9681219588965178">
        <ele>149.9</ele>
        <time>2024-01-01T10:38:58.544Z</time>
      </trkpt>
      <trkpt lat="49.028016943484545" lon="3.968153977766633">
        <ele>149.79</ele>
        <time>2024-01-01T10:38:58.968Z</time>
      </trkpt>
      <trkpt lat="49.02800998650491" lon="3.9681889303028584">
        <ele>149.69</ele>
        <time>2024-01-01T10:38:59.393Z</time>
      </trkpt>
      <trkpt lat="49.02800093404949" lon="3.9682239666581154">
        <ele>149.58</ele>
        <time>2024-01-01T10:38:59.819Z</time>
      </trkpt>
      <trkpt lat="49.027996994555" lon="3.9682589191943407">
        <ele>149.48</ele>
        <time>2024-01-01T10:39:00.246Z</time>
      </trkpt>
      <trkpt lat="49.02798995375633" lon="3.9682949613779783">
        <ele>149.37</ele>
        <time>2024-01-01T10:39:00.674Z</time>
      </trkpt>
      <trkpt lat="49.02798492461443" lon="3.9683299977332354">
        <ele>149.26</ele>
        <time>2024-01-01T10:39:01.103Z</time>
      </trkpt>
      <trkpt lat="49.02797897346318" lon="3.9683719910681248">
        <ele>149.15</ele>
        <time>2024-01-01T10:39:01.534Z</time>
      </trkpt>
      <trkpt lat="49.027971932664514" lon="3.9684129785746336">
        <ele>149.04</ele>
        <time>2024-01-01T10:39:01.966Z</time>
      </trkpt>
      <trkpt lat="49.02796698734164" lon="3.9684489369392395">
        <ele>148.94</ele>
        <time>2024-01-01T10:39:02.399Z</time>
      </trkpt>
      <trkpt lat="49.02796095237136" lon="3.9684899244457483">
        <ele>148.84</ele>
        <time>2024-01-01T10:39:02.833Z</time>
      </trkpt>
      <trkpt lat="49.02795793488622" lon="3.968522949144244">
        <ele>148.75</ele>
        <time>2024-01-01T10:39:03.268Z</time>
      </trkpt>
      <trkpt lat="49.027952989563346" lon="3.968561924993992">
        <ele>148.65</ele>
        <time>2024-01-01T10:39:03.705Z</time>
      </trkpt>
      <trkpt lat="49.02794796042144" lon="3.9685959555208683">
        <ele>148.56</ele>
        <time>2024-01-01T10:39:04.143Z</time>
      </trkpt>
      <trkpt lat="49.02794393710792" lon="3.968632919713855">
        <ele>148.47</ele>
        <time>2024-01-01T10:39:04.582Z</time>
      </trkpt>
      <trkpt lat="49.02793999761343" lon="3.9686709735542536">
        <ele>148.39</ele>
        <time>2024-01-01T10:39:05.022Z</time>
      </trkpt>
      <trkpt lat="49.02793798595667" lon="3.9687089435756207">
        <ele>148.31</ele>
        <time>2024-01-01T10:39:05.463Z</time>
      </trkpt>
      <trkpt lat="49.02793396264315" lon="3.9687549602240324">
        <ele>148.24</ele>
        <time>2024-01-01T10:39:05.906Z</time>
      </trkpt>
      <trkpt lat="49.027932956814766" lon="3.96879393607378">
        <ele>148.17</ele>
        <time>2024-01-01T10:39:06.350Z</time>
      </trkpt>
      <trkpt lat="49.027930945158005" lon="3.968839952722192">
        <ele>148.1</ele>
        <time>2024-01-01T10:39:06.795Z</time>
      </trkpt>
      <trkpt lat="49.027928933501244" lon="3.9688819460570812">
        <ele>148.03</ele>
        <time>2024-01-01T10:39:07.242Z</time>
      </trkpt>
      <trkpt lat="49.027929939329624" lon="3.968920921906829">
        <ele>147.97</ele>
        <time>2024-01-01T10:39:07.690Z</time>
      </trkpt>
      <trkpt lat="49.027928933501244" lon="3.9689669385552406">
        <ele>147.91</ele>
        <time>2024-01-01T10:39:08.139Z</time>
      </trkpt>
      <trkpt lat="49.02792792767286" lon="3.969006920233369">
        <ele>147.86</ele>
        <time>2024-01-01T10:39:08.589Z</time>
      </trkpt>
      <trkpt lat="49.02792599983513" lon="3.9690479915589094">
        <ele>147.8</ele>
        <time>2024-01-01T10:39:09.041Z</time>
      </trkpt>
      <trkpt lat="49.02792298234999" lon="3.969086967408657">
        <ele>147.73</ele>
        <time>2024-01-01T10:39:09.494Z</time>
      </trkpt>
      <trkpt lat="49.02792197652161" lon="3.9691239316016436">
        <ele>147.68</ele>
        <time>2024-01-01T10:39:09.948Z</time>
      </trkpt>
      <trkpt lat="49.02791895903647" lon="3.9691649191081524">
        <ele>147.62</ele>
        <time>2024-01-01T10:39:10.403Z</time>
      </trkpt>
      <trkpt lat="49.02791694737971" lon="3.9691999554634094">
        <ele>147.56</ele>
        <time>2024-01-01T10:39:10.859Z</time>
      </trkpt>
      <trkpt lat="49.02791594155133" lon="3.96924396045506">
        <ele>147.5</ele>
        <time>2024-01-01T10:39:11.317Z</time>
      </trkpt>
      <trkpt lat="49.02791392989457" lon="3.9692809246480465">
        <ele>147.45</ele>
        <time>2024-01-01T10:39:11.776Z</time>
      </trkpt>
      <trkpt lat="49.027911918237805" lon="3.9693129435181618">
        <ele>147.4</ele>
        <time>2024-01-01T10:39:12.236Z</time>
      </trkpt>
      <trkpt lat="49.02791392989457" lon="3.969357954338193">
        <ele>147.35</ele>
        <time>2024-01-01T10:39:12.697Z</time>
      </trkpt>
      <trkpt lat="49.02791694737971" lon="3.9693969301879406">
        <ele>147.31</ele>
        <time>2024-01-01T10:39:13.159Z</time>
      </trkpt>
      <trkpt lat="49.02791996486485" lon="3.969443952664733">
        <ele>147.26</ele>
        <time>2024-01-01T10:39:13.623Z</time>
      </trkpt>
      <trkpt lat="49.02792197652161" lon="3.969488963484764">
        <ele>147.21</ele>
        <time>2024-01-01T10:39:14.088Z</time>
      </trkpt>
      <trkpt lat="49.02792692184448" lon="3.9695289451628923">
        <ele>147.16</ele>
        <time>2024-01-01T10:39:14.555Z</time>
      </trkpt>
      <trkpt lat="49.027931950986385" lon="3.9695689268410206">
        <ele>147.1</ele>
        <time>2024-01-01T10:39:15.023Z</time>
      </trkpt>
      <trkpt lat="49.02793597429991" lon="3.9696039631962776">
        <ele>147.04</ele>
        <time>2024-01-01T10:39:15.492Z</time>
      </trkpt>
      <trkpt lat="49.02793899178505" lon="3.9696399215608835">
        <ele>146.96</ele>
        <time>2024-01-01T10:39:15.962Z</time>
      </trkpt>
      <trkpt lat="49.02793698012829" lon="3.969678981229663">
        <ele>146.88</ele>
        <time>2024-01-01T10:39:16.433Z</time>
      </trkpt>
      <trkpt lat="49.02793496847153" lon="3.96971695125103">
        <ele>146.79</ele>
        <time>2024-01-01T10:39:16.905Z</time>
      </trkpt>
      <trkpt lat="49.02793496847153" lon="3.9697559271007776">
        <ele>146.7</ele>
        <time>2024-01-01T10:39:17.379Z</time>
      </trkpt>
      <trkpt lat="49.02793899178505" lon="3.9697959925979376">
        <ele>146.6</ele>
        <time>2024-01-01T10:39:17.854Z</time>
      </trkpt>
      <trkpt lat="49.02794393710792" lon="3.969832956790924">
        <ele>146.49</ele>
        <time>2024-01-01T10:39:18.330Z</time>
      </trkpt>
      <trkpt lat="49.027948966249824" lon="3.969875955954194">
        <ele>146.37</ele>
        <time>2024-01-01T10:39:18.807Z</time>
      </trkpt>
      <trkpt lat="49.027954917401075" lon="3.969916943460703">
        <ele>146.25</ele>
        <time>2024-01-01T10:39:19.286Z</time>
      </trkpt>
      <trkpt lat="49.02795994654298" lon="3.9699589367955923">
        <ele>146.11</ele>
        <time>2024-01-01T10:39:19.766Z</time>
      </trkpt>
      <trkpt lat="49.02796296402812" lon="3.969999924302101">
        <ele>145.97</ele>
        <time>2024-01-01T10:39:20.247Z</time>
      </trkpt>
      <trkpt lat="49.02796992100775" lon="3.9700389839708805">
        <ele>145.82</ele>
        <time>2024-01-01T10:39:20.729Z</time>
      </trkpt>
      <trkpt lat="49.027973944321275" lon="3.97008097730577">
        <ele>145.66</ele>
        <time>2024-01-01T10:39:21.213Z</time>
      </trkpt>
      <trkpt lat="49.027974950149655" lon="3.970120958983898">
        <ele>145.49</ele>
        <time>2024-01-01T10:39:21.698Z</time>
      </trkpt>
      <trkpt lat="49.02797897346318" lon="3.970159934833646">
        <ele>145.32</ele>
        <time>2024-01-01T10:39:22.184Z</time>
      </trkpt>
      <trkpt lat="49.02798098511994" lon="3.9702039398252964">
        <ele>145.14</ele>
        <time>2024-01-01T10:39:22.672Z</time>
      </trkpt>
      <trkpt lat="49.0279779676348" lon="3.9702509623020887">
        <ele>144.95</ele>
        <time>2024-01-01T10:39:23.161Z</time>
      </trkpt>
      <trkpt lat="49.027974950149655" lon="3.970297984778881">
        <ele>144.74</ele>
        <time>2024-01-01T10:39:23.651Z</time>
      </trkpt>
      <trkpt lat="49.02796598151326" lon="3.9703459292650223">
        <ele>144.53</ele>
        <time>2024-01-01T10:39:24.143Z</time>
      </trkpt>
      <trkpt lat="49.02796589769423" lon="3.9703460969030857">
        <ele>144.52</ele>
        <time>2024-01-01T10:39:24.635Z</time>
      </trkpt>
      <trkpt lat="49.02796195819974" lon="3.9703829772770405">
        <ele>144.31</ele>
        <time>2024-01-01T10:39:25.128Z</time>
      </trkpt>
      <trkpt lat="49.02795399539173" lon="3.9704229589551687">
        <ele>144.09</ele>
        <time>2024-01-01T10:39:25.622Z</time>
      </trkpt>
      <trkpt lat="49.02794695459306" lon="3.970456989482045">
        <ele>143.86</ele>
        <time>2024-01-01T10:39:26.117Z</time>
      </trkpt>
      <trkpt lat="49.02794293127954" lon="3.970492947846651">
        <ele>143.63</ele>
        <time>2024-01-01T10:39:26.614Z</time>
      </trkpt>
      <trkpt lat="49.02793496847153" lon="3.9705329295247793">
        <ele>143.4</ele>
        <time>2024-01-01T10:39:27.112Z</time>
      </trkpt>
      <trkpt lat="49.027928933501244" lon="3.9705679658800364">
        <ele>143.17</ele>
        <time>2024-01-01T10:39:27.611Z</time>
      </trkpt>
      <trkpt lat="49.02792298234999" lon="3.9706079475581646">
        <ele>142.94</ele>
        <time>2024-01-01T10:39:28.111Z</time>
      </trkpt>
      <trkpt lat="49.02791493572295" lon="3.9706489350646734">
        <ele>142.7</ele>
        <time>2024-01-01T10:39:28.613Z</time>
      </trkpt>
      <trkpt lat="49.027908984571695" lon="3.970686988905072">
        <ele>142.48</ele>
        <time>2024-01-01T10:39:29.116Z</time>
      </trkpt>
      <trkpt lat="49.02790294960141" lon="3.9707289822399616">
        <ele>142.26</ele>
        <time>2024-01-01T10:39:29.620Z</time>
      </trkpt>
      <trkpt lat="49.02789398096502" lon="3.97076896391809">
        <ele>142.04</ele>
        <time>2024-01-01T10:39:30.125Z</time>
      </trkpt>
      <trkpt lat="49.027888951823115" lon="3.97081196308136">
        <ele>141.83</ele>
        <time>2024-01-01T10:39:30.632Z</time>
      </trkpt>
      <trkpt lat="49.02788392268121" lon="3.970849933102727">
        <ele>141.63</ele>
        <time>2024-01-01T10:39:31.140Z</time>
      </trkpt>
      <trkpt lat="49.02788199484348" lon="3.9708839636296034">
        <ele>141.45</ele>
        <time>2024-01-01T10:39:31.649Z</time>
      </trkpt>
      <trkpt lat="49.02787797152996" lon="3.970924951136112">
        <ele>141.27</ele>
        <time>2024-01-01T10:39:32.159Z</time>
      </trkpt>
      <trkpt lat="49.0278759598732" lon="3.9709619991481304">
        <ele>141.11</ele>
        <time>2024-01-01T10:39:32.670Z</time>
      </trkpt>
      <trkpt lat="49.02787696570158" lon="3.9710029866546392">
        <ele>140.97</ele>
        <time>2024-01-01T10:39:33.183Z</time>
      </trkpt>
      <trkpt lat="49.02787696570158" lon="3.971041962504387">
        <ele>140.84</ele>
        <time>2024-01-01T10:39:33.697Z</time>
      </trkpt>
      <trkpt lat="49.02787797152996" lon="3.971076998859644">
        <ele>140.73</ele>
        <time>2024-01-01T10:39:34.212Z</time>
      </trkpt>
      <trkpt lat="49.02787998318672" lon="3.9711189921945333">
        <ele>140.63</ele>
        <time>2024-01-01T10:39:34.728Z</time>
      </trkpt>
      <trkpt lat="49.02787998318672" lon="3.9711619913578033">
        <ele>140.55</ele>
        <time>2024-01-01T10:39:35.246Z</time>
      </trkpt>
      <trkpt lat="49.02788392268121" lon="3.9711979497224092">
        <ele>140.48</ele>
        <time>2024-01-01T10:39:35.765Z</time>
      </trkpt>
      <trkpt lat="49.02788492850959" lon="3.9712409488856792">
        <ele>140.43</ele>
        <time>2024-01-01T10:39:36.285Z</time>
      </trkpt>
      <trkpt lat="49.027889957651496" lon="3.971279924735427">
        <ele>140.39</ele>
        <time>2024-01-01T10:39:36.806Z</time>
      </trkpt>
      <trkpt lat="49.0278949867934" lon="3.971324935555458">
        <ele>140.36</ele>
        <time>2024-01-01T10:39:37.329Z</time>
      </trkpt>
      <trkpt lat="49.02789792045951" lon="3.9713639952242374">
        <ele>140.35</ele>
        <time>2024-01-01T10:39:37.853Z</time>
      </trkpt>
      <trkpt lat="49.02790194377303" lon="3.9714039769023657">
        <ele>140.35</ele>
        <time>2024-01-01T10:39:38.378Z</time>
      </trkpt>
      <trkpt lat="49.02790496125817" lon="3.9714499935507774">
        <ele>140.37</ele>
        <time>2024-01-01T10:39:38.904Z</time>
      </trkpt>
      <trkpt lat="49.027909990400076" lon="3.9714909810572863">
        <ele>140.4</ele>
        <time>2024-01-01T10:39:39.432Z</time>
      </trkpt>
      <trkpt lat="49.02791795320809" lon="3.971531968563795">
        <ele>140.45</ele>
        <time>2024-01-01T10:39:39.961Z</time>
      </trkpt>
      <trkpt lat="49.02792792767286" lon="3.9715689327567816">
        <ele>140.53</ele>
        <time>2024-01-01T10:39:40.491Z</time>
      </trkpt>
      <trkpt lat="49.02794091962278" lon="3.9716069865971804">
        <ele>140.62</ele>
        <time>2024-01-01T10:39:41.023Z</time>
      </trkpt>
      <trkpt lat="49.027955923229456" lon="3.9716429449617863">
        <ele>140.73</ele>
        <time>2024-01-01T10:39:41.556Z</time>
      </trkpt>
      <trkpt lat="49.027971932664514" lon="3.97167194634676">
        <ele>140.85</ele>
        <time>2024-01-01T10:39:42.090Z</time>
      </trkpt>
      <trkpt lat="49.02798995375633" lon="3.971701953560114">
        <ele>140.98</ele>
        <time>2024-01-01T10:39:42.625Z</time>
      </trkpt>
      <trkpt lat="49.02800696901977" lon="3.971729949116707">
        <ele>141.13</ele>
        <time>2024-01-01T10:39:43.161Z</time>
      </trkpt>
      <trkpt lat="49.02802599593997" lon="3.971754927188158">
        <ele>141.28</ele>
        <time>2024-01-01T10:39:43.699Z</time>
      </trkpt>
      <trkpt lat="49.0280469506979" lon="3.971782922744751">
        <ele>141.45</ele>
        <time>2024-01-01T10:39:44.238Z</time>
      </trkpt>
      <trkpt lat="49.02806899510324" lon="3.9718069788068533">
        <ele>141.63</ele>
        <time>2024-01-01T10:39:44.778Z</time>
      </trkpt>
      <trkpt lat="49.02809196151793" lon="3.9718349743634462">
        <ele>141.82</ele>
        <time>2024-01-01T10:39:45.320Z</time>
      </trkpt>
      <trkpt lat="49.02811199426651" lon="3.971855929121375">
        <ele>142.02</ele>
        <time>2024-01-01T10:39:45.863Z</time>
      </trkpt>
      <trkpt lat="49.0281349606812" lon="3.9718829188495874">
        <ele>142.22</ele>
        <time>2024-01-01T10:39:46.407Z</time>
      </trkpt>
      <trkpt lat="49.02815692126751" lon="3.9719149377197027">
        <ele>142.43</ele>
        <time>2024-01-01T10:39:46.953Z</time>
      </trkpt>
      <trkpt lat="49.02817695401609" lon="3.971941927447915">
        <ele>142.65</ele>
        <time>2024-01-01T10:39:47.500Z</time>
      </trkpt>
      <trkpt lat="49.02819698676467" lon="3.971969923004508">
        <ele>142.88</ele>
        <time>2024-01-01T10:39:48.048Z</time>
      </trkpt>
      <trkpt lat="49.0282179415226" lon="3.9719989243894815">
        <ele>143.11</ele>
        <time>2024-01-01T10:39:48.597Z</time>
      </trkpt>
      <trkpt lat="49.02823998592794" lon="3.9720269199460745">
        <ele>143.35</ele>
        <time>2024-01-01T10:39:49.148Z</time>
      </trkpt>
      <trkpt lat="49.02825993485749" lon="3.972057932987809">
        <ele>143.6</ele>
        <time>2024-01-01T10:39:49.700Z</time>
      </trkpt>
      <trkpt lat="49.02828097343445" lon="3.972085928544402">
        <ele>143.85</ele>
        <time>2024-01-01T10:39:50.253Z</time>
      </trkpt>
      <trkpt lat="49.02830494567752" lon="3.972120964899659">
        <ele>144.11</ele>
        <time>2024-01-01T10:39:50.808Z</time>
      </trkpt>
      <trkpt lat="49.02832397259772" lon="3.9721479546278715">
        <ele>144.37</ele>
        <time>2024-01-01T10:39:51.364Z</time>
      </trkpt>
      <trkpt lat="49.02834492735565" lon="3.972176956012845">
        <ele>144.64</ele>
        <time>2024-01-01T10:39:51.921Z</time>
      </trkpt>
      <trkpt lat="49.02836596593261" lon="3.9722059573978186">
        <ele>144.91</ele>
        <time>2024-01-01T10:39:52.480Z</time>
      </trkpt>
      <trkpt lat="49.0283889323473" lon="3.9722359646111727">
        <ele>145.18</ele>
        <time>2024-01-01T10:39:53.040Z</time>
      </trkpt>
      <trkpt lat="49.02840997092426" lon="3.972267983481288">
        <ele>145.45</ele>
        <time>2024-01-01T10:39:53.602Z</time>
      </trkpt>
      <trkpt lat="49.02842799201608" lon="3.9722919557243586">
        <ele>145.72</ele>
        <time>2024-01-01T10:39:54.165Z</time>
      </trkpt>
      <trkpt lat="49.028446935117245" lon="3.9723229687660933">
        <ele>145.99</ele>
        <time>2024-01-01T10:39:54.729Z</time>
      </trkpt>
      <trkpt lat="49.02846495620906" lon="3.972350964322686">
        <ele>146.26</ele>
        <time>2024-01-01T10:39:55.294Z</time>
      </trkpt>
      <trkpt lat="49.02848297730088" lon="3.9723779540508986">
        <ele>146.53</ele>
        <time>2024-01-01T10:39:55.860Z</time>
      </trkpt>
      <trkpt lat="49.02849898673594" lon="3.9724029321223497">
        <ele>146.8</ele>
        <time>2024-01-01T10:39:56.427Z</time>
      </trkpt>
      <trkpt lat="49.02851399034262" lon="3.972421959042549">
        <ele>147.07</ele>
        <time>2024-01-01T10:39:56.995Z</time>
      </trkpt>
      <trkpt lat="49.02852798812091" lon="3.972447942942381">
        <ele>147.33</ele>
        <time>2024-01-01T10:39:57.564Z</time>
      </trkpt>
      <trkpt lat="49.02853997424245" lon="3.972475938498974">
        <ele>147.59</ele>
        <time>2024-01-01T10:39:58.134Z</time>
      </trkpt>
      <trkpt lat="49.028551960363984" lon="3.9725019223988056">
        <ele>147.86</ele>
        <time>2024-01-01T10:39:58.705Z</time>
      </trkpt>
      <trkpt lat="49.02856796979904" lon="3.9725319296121597">
        <ele>148.12</ele>
        <time>2024-01-01T10:39:59.278Z</time>
      </trkpt>
      <trkpt lat="49.02858196757734" lon="3.972555985674262">
        <ele>148.39</ele>
        <time>2024-01-01T10:39:59.852Z</time>
      </trkpt>
      <trkpt lat="49.028594959527254" lon="3.972585992887616">
        <ele>148.65</ele>
        <time>2024-01-01T10:40:00.427Z</time>
      </trkpt>
      <trkpt lat="49.02860593982041" lon="3.9726129826158285">
        <ele>148.92</ele>
        <time>2024-01-01T10:40:01.003Z</time>
      </trkpt>
      <trkpt lat="49.028618931770325" lon="3.9726389665156603">
        <ele>149.19</ele>
        <time>2024-01-01T10:40:01.580Z</time>
      </trkpt>
      <trkpt lat="49.02863292954862" lon="3.9726689737290144">
        <ele>149.47</ele>
        <time>2024-01-01T10:40:02.158Z</time>
      </trkpt>
      <trkpt lat="49.0286479331553" lon="3.9726919401437044">
        <ele>149.74</ele>
        <time>2024-01-01T10:40:02.737Z</time>
      </trkpt>
      <trkpt lat="49.028660925105214" lon="3.972717924043536">
        <ele>150.02</ele>
        <time>2024-01-01T10:40:03.317Z</time>
      </trkpt>
      <trkpt lat="49.02867299504578" lon="3.9727419801056385">
        <ele>150.3</ele>
        <time>2024-01-01T10:40:03.898Z</time>
      </trkpt>
      <trkpt lat="49.02868992649019" lon="3.9727649465203285">
        <ele>150.58</ele>
        <time>2024-01-01T10:40:04.480Z</time>
      </trkpt>
      <trkpt lat="49.028703924268484" lon="3.9727869909256697">
        <ele>150.86</ele>
        <time>2024-01-01T10:40:05.063Z</time>
      </trkpt>
      <trkpt lat="49.02871993370354" lon="3.9728059340268373">
        <ele>151.15</ele>
        <time>2024-01-01T10:40:05.647Z</time>
      </trkpt>
      <trkpt lat="49.02873694896698" lon="3.972816998139024">
        <ele>151.43</ele>
        <time>2024-01-01T10:40:06.232Z</time>
      </trkpt>
      <trkpt lat="49.02876092121005" lon="3.972821943461895">
        <ele>151.72</ele>
        <time>2024-01-01T10:40:06.818Z</time>
      </trkpt>
      <trkpt lat="49.02877994813025" lon="3.9728229492902756">
        <ele>152.0</ele>
        <time>2024-01-01T10:40:07.405Z</time>
      </trkpt>
      <trkpt lat="49.02879394590855" lon="3.972806939855218">
        <ele>152.28</ele>
        <time>2024-01-01T10:40:07.992Z</time>
      </trkpt>
      <trkpt lat="49.028810961171985" lon="3.9727849792689085">
        <ele>152.57</ele>
        <time>2024-01-01T10:40:08.580Z</time>
      </trkpt>
      <trkpt lat="49.02882797643542" lon="3.9727619290351868">
        <ele>152.85</ele>
        <time>2024-01-01T10:40:09.169Z</time>
      </trkpt>
      <trkpt lat="49.02884499169886" lon="3.972737956792116">
        <ele>153.15</ele>
        <time>2024-01-01T10:40:09.760Z</time>
      </trkpt>
      <trkpt lat="49.02886091731489" lon="3.9727169182151556">
        <ele>153.45</ele>
        <time>2024-01-01T10:40:10.352Z</time>
      </trkpt>
      <trkpt lat="49.02887198142707" lon="3.972694957628846">
        <ele>153.75</ele>
        <time>2024-01-01T10:40:10.944Z</time>
      </trkpt>
      <trkpt lat="49.02888899669051" lon="3.972674924880266">
        <ele>154.07</ele>
        <time>2024-01-01T10:40:11.537Z</time>
      </trkpt>
      <trkpt lat="49.02890098281205" lon="3.972654975950718">
        <ele>154.38</ele>
        <time>2024-01-01T10:40:12.131Z</time>
      </trkpt>
      <trkpt lat="49.028917998075485" lon="3.972628992050886">
        <ele>154.71</ele>
        <time>2024-01-01T10:40:12.726Z</time>
      </trkpt>
      <trkpt lat="49.02893199585378" lon="3.972606947645545">
        <ele>155.05</ele>
        <time>2024-01-01T10:40:13.322Z</time>
      </trkpt>
      <trkpt lat="49.028942976146936" lon="3.972585992887616">
        <ele>155.4</ele>
        <time>2024-01-01T10:40:13.919Z</time>
      </trkpt>
      <trkpt lat="49.028960997238755" lon="3.9725599251687527">
        <ele>155.75</ele>
        <time>2024-01-01T10:40:14.517Z</time>
      </trkpt>
      <trkpt lat="49.0289759170264" lon="3.9725379645824432">
        <ele>156.12</ele>
        <time>2024-01-01T10:40:15.116Z</time>
      </trkpt>
      <trkpt lat="49.02899192646146" lon="3.9725139923393726">
        <ele>156.49</ele>
        <time>2024-01-01T10:40:15.716Z</time>
      </trkpt>
      <trkpt lat="49.029005924239755" lon="3.9724899362772703">
        <ele>156.87</ele>
        <time>2024-01-01T10:40:16.317Z</time>
      </trkpt>
      <trkpt lat="49.02901799418032" lon="3.9724669698625803">
        <ele>157.25</ele>
        <time>2024-01-01T10:40:16.919Z</time>
      </trkpt>
      <trkpt lat="49.029028974473476" lon="3.9724429976195097">
        <ele>157.63</ele>
        <time>2024-01-01T10:40:17.522Z</time>
      </trkpt>
      <trkpt lat="49.029044983908534" lon="3.972417935729027">
        <ele>158.03</ele>
        <time>2024-01-01T10:40:18.126Z</time>
      </trkpt>
      <trkpt lat="49.02906292118132" lon="3.9723979867994785">
        <ele>158.44</ele>
        <time>2024-01-01T10:40:18.731Z</time>
      </trkpt>
      <trkpt lat="49.029088988900185" lon="3.9723929576575756">
        <ele>158.87</ele>
        <time>2024-01-01T10:40:19.337Z</time>
      </trkpt>
      <trkpt lat="49.02910592034459" lon="3.9724029321223497">
        <ele>159.28</ele>
        <time>2024-01-01T10:40:19.944Z</time>
      </trkpt>
      <trkpt lat="49.02912695892155" lon="3.9724159240722656">
        <ele>159.7</ele>
        <time>2024-01-01T10:40:20.552Z</time>
      </trkpt>
      <trkpt lat="49.02914598584175" lon="3.972434950992465">
        <ele>160.11</ele>
        <time>2024-01-01T10:40:21.161Z</time>
      </trkpt>
      <trkpt lat="49.02916199527681" lon="3.9724509604275227">
        <ele>160.52</ele>
        <time>2024-01-01T10:40:21.771Z</time>
      </trkpt>
      <trkpt lat="49.029179932549596" lon="3.9724739268422127">
        <ele>160.93</ele>
        <time>2024-01-01T10:40:22.382Z</time>
      </trkpt>
      <trkpt lat="49.02919393032789" lon="3.972492953762412">
        <ele>161.32</ele>
        <time>2024-01-01T10:40:22.994Z</time>
      </trkpt>
      <trkpt lat="49.02921094559133" lon="3.9725099690258503">
        <ele>161.72</ele>
        <time>2024-01-01T10:40:23.607Z</time>
      </trkpt>
      <trkpt lat="49.029218992218375" lon="3.972540982067585">
        <ele>162.09</ele>
        <time>2024-01-01T10:40:24.221Z</time>
      </trkpt>
      <trkpt lat="49.02923298999667" lon="3.9725669659674168">
        <ele>162.47</ele>
        <time>2024-01-01T10:40:24.836Z</time>
      </trkpt>
      <trkpt lat="49.02924698777497" lon="3.9725879207253456">
        <ele>162.83</ele>
        <time>2024-01-01T10:40:25.452Z</time>
      </trkpt>
      <trkpt lat="49.029261991381645" lon="3.9726059418171644">
        <ele>163.19</ele>
        <time>2024-01-01T10:40:26.069Z</time>
      </trkpt>
      <trkpt lat="49.029266936704516" lon="3.9726309198886156">
        <ele>163.52</ele>
        <time>2024-01-01T10:40:26.687Z</time>
      </trkpt>
      <trkpt lat="49.02927598915994" lon="3.972649946808815">
        <ele>163.85</ele>
        <time>2024-01-01T10:40:27.306Z</time>
      </trkpt>
      <trkpt lat="49.029282946139574" lon="3.972669979557395">
        <ele>164.16</ele>
        <time>2024-01-01T10:40:27.925Z</time>
      </trkpt>
      <trkpt lat="49.02929392643273" lon="3.972690934315324">
        <ele>164.47</ele>
        <time>2024-01-01T10:40:28.545Z</time>
      </trkpt>
      <trkpt lat="49.02930096723139" lon="3.9727099612355232">
        <ele>164.76</ele>
        <time>2024-01-01T10:40:29.166Z</time>
      </trkpt>
      <trkpt lat="49.029309935867786" lon="3.9727289881557226">
        <ele>165.04</ele>
        <time>2024-01-01T10:40:29.787Z</time>
      </trkpt>
      <trkpt lat="49.02931999415159" lon="3.972745919600129">
        <ele>165.31</ele>
        <time>2024-01-01T10:40:30.409Z</time>
      </trkpt>
      <trkpt lat="49.029328962787986" lon="3.972765952348709">
        <ele>165.57</ele>
        <time>2024-01-01T10:40:31.032Z</time>
      </trkpt>
      <trkpt lat="49.02933994308114" lon="3.9727829676121473">
        <ele>165.81</ele>
        <time>2024-01-01T10:40:31.656Z</time>
      </trkpt>
      <trkpt lat="49.029348995536566" lon="3.972803922370076">
        <ele>166.05</ele>
        <time>2024-01-01T10:40:32.280Z</time>
      </trkpt>
      <trkpt lat="49.02935796417296" lon="3.972823955118656">
        <ele>166.28</ele>
        <time>2024-01-01T10:40:32.905Z</time>
      </trkpt>
      <trkpt lat="49.02936793863773" lon="3.9728429820388556">
        <ele>166.5</ele>
        <time>2024-01-01T10:40:33.531Z</time>
      </trkpt>
      <trkpt lat="49.0293749794364" lon="3.972858991473913">
        <ele>166.7</ele>
        <time>2024-01-01T10:40:34.158Z</time>
      </trkpt>
      <trkpt lat="49.02938495390117" lon="3.972877934575081">
        <ele>166.9</ele>
        <time>2024-01-01T10:40:34.785Z</time>
      </trkpt>
      <trkpt lat="49.029393922537565" lon="3.9728969614952803">
        <ele>167.1</ele>
        <time>2024-01-01T10:40:35.413Z</time>
      </trkpt>
      <trkpt lat="49.02940196916461" lon="3.9729159884154797">
        <ele>167.28</ele>
        <time>2024-01-01T10:40:36.042Z</time>
      </trkpt>
      <trkpt lat="49.029411943629384" lon="3.9729339256882668">
        <ele>167.46</ele>
        <time>2024-01-01T10:40:36.671Z</time>
      </trkpt>
      <trkpt lat="49.02941797859967" lon="3.9729479234665632">
        <ele>167.63</ele>
        <time>2024-01-01T10:40:37.301Z</time>
      </trkpt>
      <trkpt lat="49.02942795306444" lon="3.972965944558382">
        <ele>167.8</ele>
        <time>2024-01-01T10:40:37.932Z</time>
      </trkpt>
      <trkpt lat="49.029438933357596" lon="3.9729849714785814">
        <ele>167.97</ele>
        <time>2024-01-01T10:40:38.563Z</time>
      </trkpt>
      <trkpt lat="49.02945192530751" lon="3.973006932064891">
        <ele>168.13</ele>
        <time>2024-01-01T10:40:39.195Z</time>
      </trkpt>
      <trkpt lat="49.02946491725743" lon="3.973030988126993">
        <ele>168.3</ele>
        <time>2024-01-01T10:40:39.828Z</time>
      </trkpt>
      <trkpt lat="49.029475981369615" lon="3.973049931228161">
        <ele>168.45</ele>
        <time>2024-01-01T10:40:40.462Z</time>
      </trkpt>
      <trkpt lat="49.02948495000601" lon="3.9730709698051214">
        <ele>168.61</ele>
        <time>2024-01-01T10:40:41.097Z</time>
      </trkpt>
      <trkpt lat="49.02949098497629" lon="3.973089996725321">
        <ele>168.76</ele>
        <time>2024-01-01T10:40:41.732Z</time>
      </trkpt>
      <trkpt lat="49.029499953612685" lon="3.9731089398264885">
        <ele>168.92</ele>
        <time>2024-01-01T10:40:42.368Z</time>
      </trkpt>
      <trkpt lat="49.02951093390584" lon="3.973124949261546">
        <ele>169.07</ele>
        <time>2024-01-01T10:40:43.005Z</time>
      </trkpt>
      <trkpt lat="49.029518980532885" lon="3.973142970353365">
        <ele>169.23</ele>
        <time>2024-01-01T10:40:43.643Z</time>
      </trkpt>
      <trkpt lat="49.0295269433409" lon="3.9731569681316614">
        <ele>169.38</ele>
        <time>2024-01-01T10:40:44.281Z</time>
      </trkpt>
      <trkpt lat="49.02953498996794" lon="3.9731699600815773">
        <ele>169.54</ele>
        <time>2024-01-01T10:40:44.920Z</time>
      </trkpt>
      <trkpt lat="49.029544964432716" lon="3.9731889870017767">
        <ele>169.7</ele>
        <time>2024-01-01T10:40:45.559Z</time>
      </trkpt>
      <trkpt lat="49.02955493889749" lon="3.973208935931325">
        <ele>169.85</ele>
        <time>2024-01-01T10:40:46.199Z</time>
      </trkpt>
      <trkpt lat="49.029561979696155" lon="3.9732279628515244">
        <ele>170.01</ele>
        <time>2024-01-01T10:40:46.840Z</time>
      </trkpt>
      <trkpt lat="49.02957295998931" lon="3.973249923437834">
        <ele>170.17</ele>
        <time>2024-01-01T10:40:47.482Z</time>
      </trkpt>
      <trkpt lat="49.02957899495959" lon="3.973266938701272">
        <ele>170.32</ele>
        <time>2024-01-01T10:40:48.124Z</time>
      </trkpt>
      <trkpt lat="49.029585951939225" lon="3.9732859656214714">
        <ele>170.47</ele>
        <time>2024-01-01T10:40:48.767Z</time>
      </trkpt>
      <trkpt lat="49.02959299273789" lon="3.9733069203794003">
        <ele>170.62</ele>
        <time>2024-01-01T10:40:49.411Z</time>
      </trkpt>
      <trkpt lat="49.02959793806076" lon="3.973327958956361">
        <ele>170.77</ele>
        <time>2024-01-01T10:40:50.055Z</time>
      </trkpt>
      <trkpt lat="49.029606990516186" lon="3.9733419567346573">
        <ele>170.92</ele>
        <time>2024-01-01T10:40:50.700Z</time>
      </trkpt>
      <trkpt lat="49.02961595915258" lon="3.9733609836548567">
        <ele>171.07</ele>
        <time>2024-01-01T10:40:51.346Z</time>
      </trkpt>
      <trkpt lat="49.02962098829448" lon="3.973380932584405">
        <ele>171.21</ele>
        <time>2024-01-01T10:40:51.992Z</time>
      </trkpt>
      <trkpt lat="49.029628951102495" lon="3.9734039828181267">
        <ele>171.35</ele>
        <time>2024-01-01T10:40:52.639Z</time>
      </trkpt>
      <trkpt lat="49.02963498607278" lon="3.973423931747675">
        <ele>171.48</ele>
        <time>2024-01-01T10:40:53.287Z</time>
      </trkpt>
      <trkpt lat="49.02964395470917" lon="3.9734399411827326">
        <ele>171.61</ele>
        <time>2024-01-01T10:40:53.935Z</time>
      </trkpt>
      <trkpt lat="49.029653929173946" lon="3.9734579622745514">
        <ele>171.73</ele>
        <time>2024-01-01T10:40:54.584Z</time>
      </trkpt>
      <trkpt lat="49.02966499328613" lon="3.9734829403460026">
        <ele>171.85</ele>
        <time>2024-01-01T10:40:55.234Z</time>
      </trkpt>
      <trkpt lat="49.029669938609004" lon="3.9735049847513437">
        <ele>171.95</ele>
        <time>2024-01-01T10:40:55.885Z</time>
      </trkpt>
      <trkpt lat="49.02967697940767" lon="3.973524933680892">
        <ele>172.04</ele>
        <time>2024-01-01T10:40:56.537Z</time>
      </trkpt>
      <trkpt lat="49.0296839363873" lon="3.973542954772711">
        <ele>172.13</ele>
        <time>2024-01-01T10:40:57.189Z</time>
      </trkpt>
      <trkpt lat="49.029692988842726" lon="3.973565921187401">
        <ele>172.2</ele>
        <time>2024-01-01T10:40:57.842Z</time>
      </trkpt>
      <trkpt lat="49.02970195747912" lon="3.973582936450839">
        <ele>172.26</ele>
        <time>2024-01-01T10:40:58.496Z</time>
      </trkpt>
      <trkpt lat="49.02971092611551" lon="3.9736039750277996">
        <ele>172.31</ele>
        <time>2024-01-01T10:40:59.150Z</time>
      </trkpt>
      <trkpt lat="49.02972098439932" lon="3.973625935614109">
        <ele>172.35</ele>
        <time>2024-01-01T10:40:59.805Z</time>
      </trkpt>
      <trkpt lat="49.02973095886409" lon="3.9736489858478308">
        <ele>172.37</ele>
        <time>2024-01-01T10:41:00.461Z</time>
      </trkpt>
      <trkpt lat="49.02974093332887" lon="3.9736769814044237">
        <ele>172.37</ele>
        <time>2024-01-01T10:41:01.118Z</time>
      </trkpt>
      <trkpt lat="49.02974998578429" lon="3.973716963082552">
        <ele>172.36</ele>
        <time>2024-01-01T10:41:01.776Z</time>
      </trkpt>
      <trkpt lat="49.02975392527878" lon="3.9737559389322996">
        <ele>172.33</ele>
        <time>2024-01-01T10:41:02.436Z</time>
      </trkpt>
      <trkpt lat="49.02974395081401" lon="3.9737989380955696">
        <ele>172.26</ele>
        <time>2024-01-01T10:41:03.097Z</time>
      </trkpt>
      <trkpt lat="49.02972995303571" lon="3.97381997667253">
        <ele>172.18</ele>
        <time>2024-01-01T10:41:03.759Z</time>
      </trkpt>
      <trkpt lat="49.02970992028713" lon="3.973832968622446">
        <ele>172.07</ele>
        <time>2024-01-01T10:41:04.422Z</time>
      </trkpt>
      <trkpt lat="49.02968494221568" lon="3.973835986107588">
        <ele>171.94</ele>
        <time>2024-01-01T10:41:05.086Z</time>
      </trkpt>
      <trkpt lat="49.02965594083071" lon="3.973840931430459">
        <ele>171.8</ele>
        <time>2024-01-01T10:41:05.751Z</time>
      </trkpt>
      <trkpt lat="49.02962299995124" lon="3.973840931430459">
        <ele>171.63</ele>
        <time>2024-01-01T10:41:06.418Z</time>
      </trkpt>
      <trkpt lat="49.02959299273789" lon="3.9738419372588396">
        <ele>171.46</ele>
        <time>2024-01-01T10:41:07.086Z</time>
      </trkpt>
      <trkpt lat="49.029562985524535" lon="3.973845960572362">
        <ele>171.27</ele>
        <time>2024-01-01T10:41:07.756Z</time>
      </trkpt>
      <trkpt lat="49.02952895499766" lon="3.973845960572362">
        <ele>171.06</ele>
        <time>2024-01-01T10:41:08.427Z</time>
      </trkpt>
      <trkpt lat="49.029498947784305" lon="3.9738489780575037">
        <ele>170.84</ele>
        <time>2024-01-01T10:41:09.100Z</time>
      </trkpt>
      <trkpt lat="49.02946894057095" lon="3.9738549292087555">
        <ele>170.62</ele>
        <time>2024-01-01T10:41:09.774Z</time>
      </trkpt>
      <trkpt lat="49.029436921700835" lon="3.973858952522278">
        <ele>170.38</ele>
        <time>2024-01-01T10:41:10.450Z</time>
      </trkpt>
      <trkpt lat="49.02940892614424" lon="3.9738679211586714">
        <ele>170.15</ele>
        <time>2024-01-01T10:41:11.127Z</time>
      </trkpt>
      <trkpt lat="49.02937992475927" lon="3.9738749619573355">
        <ele>169.92</ele>
        <time>2024-01-01T10:41:11.805Z</time>
      </trkpt>
      <trkpt lat="49.029350923374295" lon="3.9738829247653484">
        <ele>169.69</ele>
        <time>2024-01-01T10:41:12.485Z</time>
      </trkpt>
      <trkpt lat="49.029325945302844" lon="3.973893988877535">
        <ele>169.45</ele>
        <time>2024-01-01T10:41:13.166Z</time>
      </trkpt>
      <trkpt lat="49.02929694391787" lon="3.973898934200406">
        <ele>169.2</ele>
        <time>2024-01-01T10:41:13.848Z</time>
      </trkpt>
      <trkpt lat="49.02926995418966" lon="3.973911926150322">
        <ele>168.94</ele>
        <time>2024-01-01T10:41:14.532Z</time>
      </trkpt>
      <trkpt lat="49.029242964461446" lon="3.973921984434128">
        <ele>168.68</ele>
        <time>2024-01-01T10:41:15.217Z</time>
      </trkpt>
      <trkpt lat="49.02921496890485" lon="3.9739349763840437">
        <ele>168.42</ele>
        <time>2024-01-01T10:41:15.903Z</time>
      </trkpt>
      <trkpt lat="49.02918898500502" lon="3.9739509858191013">
        <ele>168.17</ele>
        <time>2024-01-01T10:41:16.591Z</time>
      </trkpt>
      <trkpt lat="49.029157971963286" lon="3.973967917263508">
        <ele>167.9</ele>
        <time>2024-01-01T10:41:17.280Z</time>
      </trkpt>
      <trkpt lat="49.029130982235074" lon="3.9739869441837072">
        <ele>167.64</ele>
        <time>2024-01-01T10:41:17.971Z</time>
      </trkpt>
      <trkpt lat="49.02910399250686" lon="3.9740039594471455">
        <ele>167.37</ele>
        <time>2024-01-01T10:41:18.663Z</time>
      </trkpt>
      <trkpt lat="49.02907499112189" lon="3.974019968882203">
        <ele>167.09</ele>
        <time>2024-01-01T10:41:19.356Z</time>
      </trkpt>
      <trkpt lat="49.029050935059786" lon="3.974042935296893">
        <ele>166.81</ele>
        <time>2024-01-01T10:41:20.051Z</time>
      </trkpt>
      <trkpt lat="49.02902193367481" lon="3.9740619622170925">
        <ele>166.52</ele>
        <time>2024-01-01T10:41:20.747Z</time>
      </trkpt>
      <trkpt lat="49.02899695560336" lon="3.974085934460163">
        <ele>166.21</ele>
        <time>2024-01-01T10:41:21.445Z</time>
      </trkpt>
      <trkpt lat="49.02897298336029" lon="3.9741079788655043">
        <ele>165.9</ele>
        <time>2024-01-01T10:41:22.144Z</time>
      </trkpt>
      <trkpt lat="49.0289449878037" lon="3.9741279277950525">
        <ele>165.58</ele>
        <time>2024-01-01T10:41:22.844Z</time>
      </trkpt>
      <trkpt lat="49.028920931741595" lon="3.9741479605436325">
        <ele>165.25</ele>
        <time>2024-01-01T10:41:23.546Z</time>
      </trkpt>
      <trkpt lat="49.028896959498525" lon="3.974166987463832">
        <ele>164.91</ele>
        <time>2024-01-01T10:41:24.249Z</time>
      </trkpt>
      <trkpt lat="49.028873993083835" lon="3.974184924736619">
        <ele>164.55</ele>
        <time>2024-01-01T10:41:24.953Z</time>
      </trkpt>
      <trkpt lat="49.02884993702173" lon="3.974204957485199">
        <ele>164.18</ele>
        <time>2024-01-01T10:41:25.658Z</time>
      </trkpt>
      <trkpt lat="49.02881992980838" lon="3.9742259960621595">
        <ele>163.79</ele>
        <time>2024-01-01T10:41:26.365Z</time>
      </trkpt>
      <trkpt lat="49.02879495173693" lon="3.9742439333349466">
        <ele>163.4</ele>
        <time>2024-01-01T10:41:27.073Z</time>
      </trkpt>
      <trkpt lat="49.028768967837095" lon="3.9742669835686684">
        <ele>162.99</ele>
        <time>2024-01-01T10:41:27.783Z</time>
      </trkpt>
      <trkpt lat="49.02874197810888" lon="3.974285926669836">
        <ele>162.58</ele>
        <time>2024-01-01T10:41:28.494Z</time>
      </trkpt>
      <trkpt lat="49.02871599420905" lon="3.974303947761655">
        <ele>162.16</ele>
        <time>2024-01-01T10:41:29.206Z</time>
      </trkpt>
      <trkpt lat="49.02868892066181" lon="3.9743229746818542">
        <ele>161.72</ele>
        <time>2024-01-01T10:41:29.920Z</time>
      </trkpt>
      <trkpt lat="49.028661930933595" lon="3.9743399899452925">
        <ele>161.28</ele>
        <time>2024-01-01T10:41:30.635Z</time>
      </trkpt>
      <trkpt lat="49.02863594703376" lon="3.9743579272180796">
        <ele>160.83</ele>
        <time>2024-01-01T10:41:31.351Z</time>
      </trkpt>
      <trkpt lat="49.02861298061907" lon="3.9743759483098984">
        <ele>160.37</ele>
        <time>2024-01-01T10:41:32.069Z</time>
      </trkpt>
      <trkpt lat="49.02858196757734" lon="3.9743929635733366">
        <ele>159.9</ele>
        <time>2024-01-01T10:41:32.788Z</time>
      </trkpt>
      <trkpt lat="49.028555983677506" lon="3.9744139183312654">
        <ele>159.43</ele>
        <time>2024-01-01T10:41:33.509Z</time>
      </trkpt>
      <trkpt lat="49.028529999777675" lon="3.974434956908226">
        <ele>158.95</ele>
        <time>2024-01-01T10:41:34.231Z</time>
      </trkpt>
      <trkpt lat="49.02849999256432" lon="3.9744539838284254">
        <ele>158.47</ele>
        <time>2024-01-01T10:41:34.954Z</time>
      </trkpt>
      <trkpt lat="49.02847493067384" lon="3.9744749385863543">
        <ele>158.0</ele>
        <time>2024-01-01T10:41:35.679Z</time>
      </trkpt>
      <trkpt lat="49.02844492346048" lon="3.974497988820076">
        <ele>157.52</ele>
        <time>2024-01-01T10:41:36.405Z</time>
      </trkpt>
      <trkpt lat="49.02841893956065" lon="3.9745219610631466">
        <ele>157.04</ele>
        <time>2024-01-01T10:41:37.133Z</time>
      </trkpt>
      <trkpt lat="49.02839295566082" lon="3.9745479449629784">
        <ele>156.56</ele>
        <time>2024-01-01T10:41:37.862Z</time>
      </trkpt>
      <trkpt lat="49.02836395427585" lon="3.974578958004713">
        <ele>156.09</ele>
        <time>2024-01-01T10:41:38.593Z</time>
      </trkpt>
      <trkpt lat="49.028339982032776" lon="3.974604941904545">
        <ele>155.62</ele>
        <time>2024-01-01T10:41:39.325Z</time>
      </trkpt>
      <trkpt lat="49.02831492014229" lon="3.97463696077466">
        <ele>155.17</ele>
        <time>2024-01-01T10:41:40.059Z</time>
      </trkpt>
      <trkpt lat="49.02828893624246" lon="3.974669985473156">
        <ele>154.73</ele>
        <time>2024-01-01T10:41:40.794Z</time>
      </trkpt>
      <trkpt lat="49.02826798148453" lon="3.9747009985148907">
        <ele>154.32</ele>
        <time>2024-01-01T10:41:41.531Z</time>
      </trkpt>
      <trkpt lat="49.02824493125081" lon="3.974735951051116">
        <ele>153.92</ele>
        <time>2024-01-01T10:41:42.269Z</time>
      </trkpt>
      <trkpt lat="49.0282229706645" lon="3.9747669640928507">
        <ele>153.55</ele>
        <time>2024-01-01T10:41:43.009Z</time>
      </trkpt>
      <trkpt lat="49.02820293791592" lon="3.974800994619727">
        <ele>153.19</ele>
        <time>2024-01-01T10:41:43.750Z</time>
      </trkpt>
      <trkpt lat="49.02818198315799" lon="3.974836952984333">
        <ele>152.86</ele>
        <time>2024-01-01T10:41:44.493Z</time>
      </trkpt>
      <trkpt lat="49.02816295623779" lon="3.9748659543693066">
        <ele>152.55</ele>
        <time>2024-01-01T10:41:45.237Z</time>
      </trkpt>
      <trkpt lat="49.028145940974355" lon="3.974899984896183">
        <ele>152.27</ele>
        <time>2024-01-01T10:41:45.982Z</time>
      </trkpt>
      <trkpt lat="49.02812599204481" lon="3.97493795491755">
        <ele>152.01</ele>
        <time>2024-01-01T10:41:46.729Z</time>
      </trkpt>
      <trkpt lat="49.02810595929623" lon="3.9749719854444265">
        <ele>151.79</ele>
        <time>2024-01-01T10:41:47.477Z</time>
      </trkpt>
      <trkpt lat="49.028084920719266" lon="3.9750049263238907">
        <ele>151.58</ele>
        <time>2024-01-01T10:41:48.226Z</time>
      </trkpt>
      <trkpt lat="49.0280659776181" lon="3.975038956850767">
        <ele>151.41</ele>
        <time>2024-01-01T10:41:48.977Z</time>
      </trkpt>
      <trkpt lat="49.0280519798398" lon="3.9750729873776436">
        <ele>151.28</ele>
        <time>2024-01-01T10:41:49.729Z</time>
      </trkpt>
      <trkpt lat="49.02804099954665" lon="3.9751069340854883">
        <ele>151.17</ele>
        <time>2024-01-01T10:41:50.482Z</time>
      </trkpt>
      <trkpt lat="49.028035970404744" lon="3.975139958783984">
        <ele>151.1</ele>
        <time>2024-01-01T10:41:51.236Z</time>
      </trkpt>
      <trkpt lat="49.028035970404744" lon="3.975174995139241">
        <ele>151.06</ele>
        <time>2024-01-01T10:41:51.991Z</time>
      </trkpt>
      <trkpt lat="49.02804099954665" lon="3.975206930190325">
        <ele>151.05</ele>
        <time>2024-01-01T10:41:52.747Z</time>
      </trkpt>
      <trkpt lat="49.02805298566818" lon="3.9752429723739624">
        <ele>151.08</ele>
        <time>2024-01-01T10:41:53.505Z</time>
      </trkpt>
      <trkpt lat="49.02806899510324" lon="3.975266944617033">
        <ele>151.14</ele>
        <time>2024-01-01T10:41:54.264Z</time>
      </trkpt>
      <trkpt lat="49.02809196151793" lon="3.975288989022374">
        <ele>151.23</ele>
        <time>2024-01-01T10:41:55.024Z</time>
      </trkpt>
      <trkpt lat="49.02811392210424" lon="3.975311955437064">
        <ele>151.35</ele>
        <time>2024-01-01T10:41:55.785Z</time>
      </trkpt>
      <trkpt lat="49.02813697233796" lon="3.975331988185644">
        <ele>151.49</ele>
        <time>2024-01-01T10:41:56.547Z</time>
      </trkpt>
      <trkpt lat="49.028164967894554" lon="3.9753649290651083">
        <ele>151.66</ele>
        <time>2024-01-01T10:41:57.311Z</time>
      </trkpt>
      <trkpt lat="49.0281849168241" lon="3.97538797929883">
        <ele>151.84</ele>
        <time>2024-01-01T10:41:58.076Z</time>
      </trkpt>
      <trkpt lat="49.02820696122944" lon="3.975415974855423">
        <ele>152.04</ele>
        <time>2024-01-01T10:41:58.842Z</time>
      </trkpt>
      <trkpt lat="49.02822699397802" lon="3.9754429645836353">
        <ele>152.26</ele>
        <time>2024-01-01T10:41:59.610Z</time>
      </trkpt>
      <trkpt lat="49.02824694290757" lon="3.9754649251699448">
        <ele>152.49</ele>
        <time>2024-01-01T10:42:00.379Z</time>
      </trkpt>
      <trkpt lat="49.02826898731291" lon="3.9754939265549183">
        <ele>152.74</ele>
        <time>2024-01-01T10:42:01.149Z</time>
      </trkpt>
      <trkpt lat="49.0282869245857" lon="3.9755179826170206">
        <ele>152.99</ele>
        <time>2024-01-01T10:42:01.920Z</time>
      </trkpt>
      <trkpt lat="49.02830796316266" lon="3.9755459781736135">
        <ele>153.26</ele>
        <time>2024-01-01T10:42:02.693Z</time>
      </trkpt>
      <trkpt lat="49.02832799591124" lon="3.9755759853869677">
        <ele>153.53</ele>
        <time>2024-01-01T10:42:03.467Z</time>
      </trkpt>
      <trkpt lat="49.02834693901241" lon="3.975597945973277">
        <ele>153.81</ele>
        <time>2024-01-01T10:42:04.242Z</time>
      </trkpt>
      <trkpt lat="49.02836898341775" lon="3.9756269473582506">
        <ele>154.08</ele>
        <time>2024-01-01T10:42:05.018Z</time>
      </trkpt>
      <trkpt lat="49.02839094400406" lon="3.975651925429702">
        <ele>154.37</ele>
        <time>2024-01-01T10:42:05.796Z</time>
      </trkpt>
      <trkpt lat="49.02841692790389" lon="3.9756809268146753">
        <ele>154.65</ele>
        <time>2024-01-01T10:42:06.575Z</time>
      </trkpt>
      <trkpt lat="49.02843997813761" lon="3.9757109340280294">
        <ele>154.92</ele>
        <time>2024-01-01T10:42:07.356Z</time>
      </trkpt>
      <trkpt lat="49.02846193872392" lon="3.9757349900901318">
        <ele>155.19</ele>
        <time>2024-01-01T10:42:08.138Z</time>
      </trkpt>
      <trkpt lat="49.02848498895764" lon="3.9757689367979765">
        <ele>155.46</ele>
        <time>2024-01-01T10:42:08.921Z</time>
      </trkpt>
      <trkpt lat="49.02850493788719" lon="3.9757949206978083">
        <ele>155.72</ele>
        <time>2024-01-01T10:42:09.706Z</time>
      </trkpt>
      <trkpt lat="49.02852698229253" lon="3.9758219942450523">
        <ele>155.97</ele>
        <time>2024-01-01T10:42:10.492Z</time>
      </trkpt>
      <trkpt lat="49.0285459253937" lon="3.9758489839732647">
        <ele>156.22</ele>
        <time>2024-01-01T10:42:11.279Z</time>
      </trkpt>
      <trkpt lat="49.02856796979904" lon="3.9758719503879547">
        <ele>156.46</ele>
        <time>2024-01-01T10:42:12.067Z</time>
      </trkpt>
      <trkpt lat="49.02858892455697" lon="3.9759009517729282">
        <ele>156.69</ele>
        <time>2024-01-01T10:42:12.857Z</time>
      </trkpt>
      <trkpt lat="49.02860795147717" lon="3.975928947329521">
        <ele>156.9</ele>
        <time>2024-01-01T10:42:13.648Z</time>
      </trkpt>
      <trkpt lat="49.02862899005413" lon="3.9759579487144947">
        <ele>157.11</ele>
        <time>2024-01-01T10:42:14.440Z</time>
      </trkpt>
      <trkpt lat="49.02864893898368" lon="3.975987955927849">
        <ele>157.3</ele>
        <time>2024-01-01T10:42:15.234Z</time>
      </trkpt>
      <trkpt lat="49.02866897173226" lon="3.9760139398276806">
        <ele>157.47</ele>
        <time>2024-01-01T10:42:16.029Z</time>
      </trkpt>
      <trkpt lat="49.02868992649019" lon="3.976045958697796">
        <ele>157.64</ele>
        <time>2024-01-01T10:42:16.825Z</time>
      </trkpt>
      <trkpt lat="49.02870995923877" lon="3.97607596591115">
        <ele>157.79</ele>
        <time>2024-01-01T10:42:17.623Z</time>
      </trkpt>
      <trkpt lat="49.02873099781573" lon="3.9761029556393623">
        <ele>157.93</ele>
        <time>2024-01-01T10:42:18.422Z</time>
      </trkpt>
      <trkpt lat="49.02875094674528" lon="3.9761329628527164">
        <ele>158.06</ele>
        <time>2024-01-01T10:42:19.222Z</time>
      </trkpt>
      <trkpt lat="49.028769973665476" lon="3.9761579409241676">
        <ele>158.17</ele>
        <time>2024-01-01T10:42:20.023Z</time>
      </trkpt>
      <trkpt lat="49.02878891676664" lon="3.976182918995619">
        <ele>158.27</ele>
        <time>2024-01-01T10:42:20.826Z</time>
      </trkpt>
      <trkpt lat="49.02880392037332" lon="3.9762079808861017">
        <ele>158.36</ele>
        <time>2024-01-01T10:42:21.630Z</time>
      </trkpt>
      <trkpt lat="49.0288239531219" lon="3.976232958957553">
        <ele>158.44</ele>
        <time>2024-01-01T10:42:22.435Z</time>
      </trkpt>
      <trkpt lat="49.0288429800421" lon="3.9762599486857653">
        <ele>158.51</ele>
        <time>2024-01-01T10:42:23.241Z</time>
      </trkpt>
      <trkpt lat="49.02886292897165" lon="3.976280987262726">
        <ele>158.58</ele>
        <time>2024-01-01T10:42:24.048Z</time>
      </trkpt>
      <trkpt lat="49.02888497337699" lon="3.976307976990938">
        <ele>158.63</ele>
        <time>2024-01-01T10:42:24.856Z</time>
      </trkpt>
      <trkpt lat="49.02890492230654" lon="3.97633396089077">
        <ele>158.67</ele>
        <time>2024-01-01T10:42:25.666Z</time>
      </trkpt>
      <trkpt lat="49.0289259608835" lon="3.9763609506189823">
        <ele>158.7</ele>
        <time>2024-01-01T10:42:26.477Z</time>
      </trkpt>
      <trkpt lat="49.02894892729819" lon="3.976389952003956">
        <ele>158.73</ele>
        <time>2024-01-01T10:42:27.289Z</time>
      </trkpt>
      <trkpt lat="49.02897197753191" lon="3.976414930075407">
        <ele>158.75</ele>
        <time>2024-01-01T10:42:28.103Z</time>
      </trkpt>
      <trkpt lat="49.02899293228984" lon="3.9764389861375093">
        <ele>158.76</ele>
        <time>2024-01-01T10:42:28.918Z</time>
      </trkpt>
      <trkpt lat="49.02901195921004" lon="3.97646295838058">
        <ele>158.76</ele>
        <time>2024-01-01T10:42:29.734Z</time>
      </trkpt>
      <trkpt lat="49.029032997787" lon="3.9764869306236506">
        <ele>158.76</ele>
        <time>2024-01-01T10:42:30.551Z</time>
      </trkpt>
      <trkpt lat="49.02905395254493" lon="3.9765169378370047">
        <ele>158.74</ele>
        <time>2024-01-01T10:42:31.370Z</time>
      </trkpt>
      <trkpt lat="49.02907398529351" lon="3.9765399880707264">
        <ele>158.72</ele>
        <time>2024-01-01T10:42:32.190Z</time>
      </trkpt>
      <trkpt lat="49.02909594587982" lon="3.9765669777989388">
        <ele>158.69</ele>
        <time>2024-01-01T10:42:33.011Z</time>
      </trkpt>
      <trkpt lat="49.0291159786284" lon="3.9765929616987705">
        <ele>158.66</ele>
        <time>2024-01-01T10:42:33.833Z</time>
      </trkpt>
      <trkpt lat="49.02913894504309" lon="3.97661198861897">
        <ele>158.62</ele>
        <time>2024-01-01T10:42:34.657Z</time>
      </trkpt>
      <trkpt lat="49.02916291728616" lon="3.9766389783471823">
        <ele>158.58</ele>
        <time>2024-01-01T10:42:35.482Z</time>
      </trkpt>
      <trkpt lat="49.02918395586312" lon="3.976669991388917">
        <ele>158.53</ele>
        <time>2024-01-01T10:42:36.308Z</time>
      </trkpt>
      <trkpt lat="49.02920792810619" lon="3.9766959752887487">
        <ele>158.47</ele>
        <time>2024-01-01T10:42:37.136Z</time>
      </trkpt>
      <trkpt lat="49.02922695502639" lon="3.9767219591885805">
        <ele>158.42</ele>
        <time>2024-01-01T10:42:37.965Z</time>
      </trkpt>
      <trkpt lat="49.02924899943173" lon="3.976742997765541">
        <ele>158.35</ele>
        <time>2024-01-01T10:42:38.795Z</time>
      </trkpt>
      <trkpt lat="49.0292729716748" lon="3.976770993322134">
        <ele>158.29</ele>
        <time>2024-01-01T10:42:39.627Z</time>
      </trkpt>
      <trkpt lat="49.02929493226111" lon="3.9767979830503464">
        <ele>158.21</ele>
        <time>2024-01-01T10:42:40.460Z</time>
      </trkpt>
      <trkpt lat="49.02931898832321" lon="3.976819943636656">
        <ele>158.14</ele>
        <time>2024-01-01T10:42:41.294Z</time>
      </trkpt>
      <trkpt lat="49.02933994308114" lon="3.976846933364868">
        <ele>158.05</ele>
        <time>2024-01-01T10:42:42.129Z</time>
      </trkpt>
      <trkpt lat="49.02936198748648" lon="3.97686998359859">
        <ele>157.96</ele>
        <time>2024-01-01T10:42:42.966Z</time>
      </trkpt>
      <trkpt lat="49.02938394807279" lon="3.9768969733268023">
        <ele>157.87</ele>
        <time>2024-01-01T10:42:43.804Z</time>
      </trkpt>
      <trkpt lat="49.02940699830651" lon="3.9769239630550146">
        <ele>157.77</ele>
        <time>2024-01-01T10:42:44.643Z</time>
      </trkpt>
      <trkpt lat="49.0294299647212" lon="3.9769439958035946">
        <ele>157.68</ele>
        <time>2024-01-01T10:42:45.484Z</time>
      </trkpt>
      <trkpt lat="49.02945393696427" lon="3.9769719913601875">
        <ele>157.57</ele>
        <time>2024-01-01T10:42:46.326Z</time>
      </trkpt>
      <trkpt lat="49.029474975541234" lon="3.9769979752600193">
        <ele>157.47</ele>
        <time>2024-01-01T10:42:47.169Z</time>
      </trkpt>
      <trkpt lat="49.029499953612685" lon="3.9770229533314705">
        <ele>157.36</ele>
        <time>2024-01-01T10:42:48.014Z</time>
      </trkpt>
      <trkpt lat="49.029519986361265" lon="3.977049943059683">
        <ele>157.25</ele>
        <time>2024-01-01T10:42:48.860Z</time>
      </trkpt>
      <trkpt lat="49.029540941119194" lon="3.977069975808263">
        <ele>157.13</ele>
        <time>2024-01-01T10:42:49.707Z</time>
      </trkpt>
      <trkpt lat="49.029562985524535" lon="3.977096965536475">
        <ele>157.02</ele>
        <time>2024-01-01T10:42:50.555Z</time>
      </trkpt>
      <trkpt lat="49.0295819286257" lon="3.9771219436079264">
        <ele>156.9</ele>
        <time>2024-01-01T10:42:51.405Z</time>
      </trkpt>
      <trkpt lat="49.029604978859425" lon="3.9771459996700287">
        <ele>156.78</ele>
        <time>2024-01-01T10:42:52.256Z</time>
      </trkpt>
      <trkpt lat="49.029629956930876" lon="3.977172989398241">
        <ele>156.66</ele>
        <time>2024-01-01T10:42:53.108Z</time>
      </trkpt>
      <trkpt lat="49.029652923345566" lon="3.9771979674696922">
        <ele>156.53</ele>
        <time>2024-01-01T10:42:53.962Z</time>
      </trkpt>
      <trkpt lat="49.02967798523605" lon="3.977225963026285">
        <ele>156.4</ele>
        <time>2024-01-01T10:42:54.817Z</time>
      </trkpt>
      <trkpt lat="49.02970497496426" lon="3.9772559702396393">
        <ele>156.27</ele>
        <time>2024-01-01T10:42:55.674Z</time>
      </trkpt>
      <trkpt lat="49.02972894720733" lon="3.977276924997568">
        <ele>156.13</ele>
        <time>2024-01-01T10:42:56.532Z</time>
      </trkpt>
      <trkpt lat="49.02975493110716" lon="3.9773029927164316">
        <ele>155.99</ele>
        <time>2024-01-01T10:42:57.391Z</time>
      </trkpt>
      <trkpt lat="49.029777981340885" lon="3.977329982444644">
        <ele>155.86</ele>
        <time>2024-01-01T10:42:58.252Z</time>
      </trkpt>
      <trkpt lat="49.029802959412336" lon="3.977352948859334">
        <ele>155.72</ele>
        <time>2024-01-01T10:42:59.114Z</time>
      </trkpt>
      <trkpt lat="49.02982693165541" lon="3.977382956072688">
        <ele>155.57</ele>
        <time>2024-01-01T10:42:59.978Z</time>
      </trkpt>
      <trkpt lat="49.02984797023237" lon="3.9774099458009005">
        <ele>155.42</ele>
        <time>2024-01-01T10:43:00.843Z</time>
      </trkpt>
      <trkpt lat="49.029868924990296" lon="3.9774429704993963">
        <ele>155.27</ele>
        <time>2024-01-01T10:43:01.709Z</time>
      </trkpt>
      <trkpt lat="49.02987797744572" lon="3.9774859696626663">
        <ele>155.12</ele>
        <time>2024-01-01T10:43:02.577Z</time>
      </trkpt>
      <trkpt lat="49.02988191694021" lon="3.9775279629975557">
        <ele>154.97</ele>
        <time>2024-01-01T10:43:03.446Z</time>
      </trkpt>
      <trkpt lat="49.029868924990296" lon="3.9775719679892063">
        <ele>154.82</ele>
        <time>2024-01-01T10:43:04.316Z</time>
      </trkpt>
      <trkpt lat="49.02984897606075" lon="3.9776039868593216">
        <ele>154.68</ele>
        <time>2024-01-01T10:43:05.188Z</time>
      </trkpt>
      <trkpt lat="49.029825925827026" lon="3.9776379335671663">
        <ele>154.54</ele>
        <time>2024-01-01T10:43:06.061Z</time>
      </trkpt>
      <trkpt lat="49.02977496385574" lon="3.9776399452239275">
        <ele>154.42</ele>
        <time>2024-01-01T10:43:06.937Z</time>
      </trkpt>
      <trkpt lat="49.02974395081401" lon="3.977658972144127">
        <ele>154.29</ele>
        <time>2024-01-01T10:43:07.814Z</time>
      </trkpt>
      <trkpt lat="49.029712937772274" lon="3.9776849560439587">
        <ele>154.16</ele>
        <time>2024-01-01T10:43:08.693Z</time>
      </trkpt>
      <trkpt lat="49.02968594804406" lon="3.977706916630268">
        <ele>154.04</ele>
        <time>2024-01-01T10:43:09.573Z</time>
      </trkpt>
      <trkpt lat="49.02966298162937" lon="3.9777289610356092">
        <ele>153.92</ele>
        <time>2024-01-01T10:43:10.455Z</time>
      </trkpt>
      <trkpt lat="49.02963699772954" lon="3.9777489937841892">
        <ele>153.81</ele>
        <time>2024-01-01T10:43:11.338Z</time>
      </trkpt>
      <trkpt lat="49.02961696498096" lon="3.9777689427137375">
        <ele>153.7</ele>
        <time>2024-01-01T10:43:12.222Z</time>
      </trkpt>
      <trkpt lat="49.02958997525275" lon="3.977789981290698">
        <ele>153.59</ele>
        <time>2024-01-01T10:43:13.107Z</time>
      </trkpt>
      <trkpt lat="49.029561979696155" lon="3.9778119418770075">
        <ele>153.47</ele>
        <time>2024-01-01T10:43:13.994Z</time>
      </trkpt>
      <trkpt lat="49.02953297831118" lon="3.9778319746255875">
        <ele>153.35</ele>
        <time>2024-01-01T10:43:14.882Z</time>
      </trkpt>
      <trkpt lat="49.02950297109783" lon="3.977850917726755">
        <ele>153.24</ele>
        <time>2024-01-01T10:43:15.772Z</time>
      </trkpt>
      <trkpt lat="49.029477993026376" lon="3.977866927161813">
        <ele>153.14</ele>
        <time>2024-01-01T10:43:16.663Z</time>
      </trkpt>
      <trkpt lat="49.029456954449415" lon="3.9778899773955345">
        <ele>153.03</ele>
        <time>2024-01-01T10:43:17.555Z</time>
      </trkpt>
      <trkpt lat="49.02943097054958" lon="3.9779129438102245">
        <ele>152.93</ele>
        <time>2024-01-01T10:43:18.449Z</time>
      </trkpt>
      <trkpt lat="49.02940892614424" lon="3.9779349882155657">
        <ele>152.82</ele>
        <time>2024-01-01T10:43:19.344Z</time>
      </trkpt>
      <trkpt lat="49.02938294224441" lon="3.977959966287017">
        <ele>152.72</ele>
        <time>2024-01-01T10:43:20.240Z</time>
      </trkpt>
      <trkpt lat="49.0293609816581" lon="3.9779789932072163">
        <ele>152.62</ele>
        <time>2024-01-01T10:43:21.138Z</time>
      </trkpt>
      <trkpt lat="49.029336925596" lon="3.978002965450287">
        <ele>152.53</ele>
        <time>2024-01-01T10:43:22.037Z</time>
      </trkpt>
      <trkpt lat="49.029309935867786" lon="3.9780269376933575">
        <ele>152.44</ele>
        <time>2024-01-01T10:43:22.937Z</time>
      </trkpt>
      <trkpt lat="49.02928797528148" lon="3.9780489820986986">
        <ele>152.34</ele>
        <time>2024-01-01T10:43:23.839Z</time>
      </trkpt>
      <trkpt lat="49.029264925047755" lon="3.978077983483672">
        <ele>152.25</ele>
        <time>2024-01-01T10:43:24.742Z</time>
      </trkpt>
      <trkpt lat="49.02924598194659" lon="3.978100949898362">
        <ele>152.15</ele>
        <time>2024-01-01T10:43:25.646Z</time>
      </trkpt>
      <trkpt lat="49.02922796085477" lon="3.9781279396265745">
        <ele>152.04</ele>
        <time>2024-01-01T10:43:26.551Z</time>
      </trkpt>
      <trkpt lat="49.02920499444008" lon="3.9781559351831675">
        <ele>151.94</ele>
        <time>2024-01-01T10:43:27.458Z</time>
      </trkpt>
      <trkpt lat="49.02918697334826" lon="3.9781839307397604">
        <ele>151.83</ele>
        <time>2024-01-01T10:43:28.366Z</time>
      </trkpt>
      <trkpt lat="49.0291659347713" lon="3.9782169554382563">
        <ele>151.7</ele>
        <time>2024-01-01T10:43:29.275Z</time>
      </trkpt>
      <trkpt lat="49.02914498001337" lon="3.97824595682323">
        <ele>151.58</ele>
        <time>2024-01-01T10:43:30.186Z</time>
      </trkpt>
      <trkpt lat="49.02912494726479" lon="3.978275964036584">
        <ele>151.45</ele>
        <time>2024-01-01T10:43:31.098Z</time>
      </trkpt>
      <trkpt lat="49.02910298667848" lon="3.9783019479364157">
        <ele>151.35</ele>
        <time>2024-01-01T10:43:32.011Z</time>
      </trkpt>
      <trkpt lat="49.02908597141504" lon="3.978328937664628">
        <ele>151.25</ele>
        <time>2024-01-01T10:43:32.925Z</time>
      </trkpt>
      <trkpt lat="49.02906593866646" lon="3.9783599507063627">
        <ele>151.15</ele>
        <time>2024-01-01T10:43:33.841Z</time>
      </trkpt>
      <trkpt lat="49.02904297225177" lon="3.9783879462629557">
        <ele>151.04</ele>
        <time>2024-01-01T10:43:34.758Z</time>
      </trkpt>
      <trkpt lat="49.02902293950319" lon="3.978416947647929">
        <ele>150.92</ele>
        <time>2024-01-01T10:43:35.676Z</time>
      </trkpt>
      <trkpt lat="49.02899896726012" lon="3.9784459490329027">
        <ele>150.8</ele>
        <time>2024-01-01T10:43:36.596Z</time>
      </trkpt>
      <trkpt lat="49.02897994033992" lon="3.978472938761115">
        <ele>150.67</ele>
        <time>2024-01-01T10:43:37.517Z</time>
      </trkpt>
      <trkpt lat="49.02895496226847" lon="3.9785049576312304">
        <ele>150.52</ele>
        <time>2024-01-01T10:43:38.440Z</time>
      </trkpt>
      <trkpt lat="49.02893392369151" lon="3.9785349648445845">
        <ele>150.36</ele>
        <time>2024-01-01T10:43:39.364Z</time>
      </trkpt>
      <trkpt lat="49.02891397476196" lon="3.9785629604011774">
        <ele>150.19</ele>
        <time>2024-01-01T10:43:40.289Z</time>
      </trkpt>
      <trkpt lat="49.02889193035662" lon="3.9785899501293898">
        <ele>150.01</ele>
        <time>2024-01-01T10:43:41.216Z</time>
      </trkpt>
      <trkpt lat="49.028874998912215" lon="3.978614928200841">
        <ele>149.83</ele>
        <time>2024-01-01T10:43:42.144Z</time>
      </trkpt>
      <trkpt lat="49.02885898947716" lon="3.9786419179290533">
        <ele>149.63</ele>
        <time>2024-01-01T10:43:43.073Z</time>
      </trkpt>
      <trkpt lat="49.0288379509002" lon="3.9786689914762974">
        <ele>149.42</ele>
        <time>2024-01-01T10:43:44.003Z</time>
      </trkpt>
      <trkpt lat="49.02882294729352" lon="3.9786989986896515">
        <ele>149.19</ele>
        <time>2024-01-01T10:43:44.934Z</time>
      </trkpt>
      <trkpt lat="49.028809955343604" lon="3.978735962882638">
        <ele>148.95</ele>
        <time>2024-01-01T10:43:45.867Z</time>
      </trkpt>
      <trkpt lat="49.02879696339369" lon="3.9787729270756245">
        <ele>148.68</ele>
        <time>2024-01-01T10:43:46.801Z</time>
      </trkpt>
      <trkpt lat="49.028787994757295" lon="3.978806957602501">
        <ele>148.39</ele>
        <time>2024-01-01T10:43:47.736Z</time>
      </trkpt>
      <trkpt lat="49.02878497727215" lon="3.9788459334522486">
        <ele>148.09</ele>
        <time>2024-01-01T10:43:48.672Z</time>
      </trkpt>
      <trkpt lat="49.02878497727215" lon="3.9788889326155186">
        <ele>147.76</ele>
        <time>2024-01-01T10:43:49.609Z</time>
      </trkpt>
      <trkpt lat="49.028789922595024" lon="3.978924974799156">
        <ele>147.42</ele>
        <time>2024-01-01T10:43:50.548Z</time>
      </trkpt>
      <trkpt lat="49.02879595756531" lon="3.978967973962426">
        <ele>147.06</ele>
        <time>2024-01-01T10:43:51.488Z</time>
      </trkpt>
      <trkpt lat="49.0288049262017" lon="3.979010973125696">
        <ele>146.67</ele>
        <time>2024-01-01T10:43:52.429Z</time>
      </trkpt>
      <trkpt lat="49.02881992980838" lon="3.9790489431470633">
        <ele>146.27</ele>
        <time>2024-01-01T10:43:53.372Z</time>
      </trkpt>
      <trkpt lat="49.0288379509002" lon="3.9790959656238556">
        <ele>145.84</ele>
        <time>2024-01-01T10:43:54.316Z</time>
      </trkpt>
      <trkpt lat="49.02885898947716" lon="3.9791269786655903">
        <ele>145.41</ele>
        <time>2024-01-01T10:43:55.262Z</time>
      </trkpt>
      <trkpt lat="49.02888497337699" lon="3.9791519567370415">
        <ele>144.96</ele>
        <time>2024-01-01T10:43:56.209Z</time>
      </trkpt>
      <trkpt lat="49.02891296893358" lon="3.979172995314002">
        <ele>144.49</ele>
        <time>2024-01-01T10:43:57.158Z</time>
      </trkpt>
      <trkpt lat="49.028938952833414" lon="3.9791929442435503">
        <ele>144.01</ele>
        <time>2024-01-01T10:43:58.108Z</time>
      </trkpt>
      <trkpt lat="49.02896795421839" lon="3.9792149886488914">
        <ele>143.52</ele>
        <time>2024-01-01T10:43:59.060Z</time>
      </trkpt>
      <trkpt lat="49.02899594977498" lon="3.979240972548723">
        <ele>143.02</ele>
        <time>2024-01-01T10:44:00.013Z</time>
      </trkpt>
      <trkpt lat="49.02902193367481" lon="3.979256981983781">
        <ele>142.51</ele>
        <time>2024-01-01T10:44:00.967Z</time>
      </trkpt>
      <trkpt lat="49.029048923403025" lon="3.9792759250849485">
        <ele>141.99</ele>
        <time>2024-01-01T10:44:01.923Z</time>
      </trkpt>
      <trkpt lat="49.02907398529351" lon="3.979296963661909">
        <ele>141.46</ele>
        <time>2024-01-01T10:44:02.880Z</time>
      </trkpt>
      <trkpt lat="49.02909996919334" lon="3.9793159905821085">
        <ele>140.93</ele>
        <time>2024-01-01T10:44:03.838Z</time>
      </trkpt>
      <trkpt lat="49.02912695892155" lon="3.979339962825179">
        <ele>140.4</ele>
        <time>2024-01-01T10:44:04.798Z</time>
      </trkpt>
      <trkpt lat="49.02914992533624" lon="3.979365946725011">
        <ele>139.86</ele>
        <time>2024-01-01T10:44:05.759Z</time>
      </trkpt>
      <trkpt lat="49.029173981398344" lon="3.979387991130352">
        <ele>139.33</ele>
        <time>2024-01-01T10:44:06.722Z</time>
      </trkpt>
      <trkpt lat="49.029199965298176" lon="3.979415986686945">
        <ele>138.79</ele>
        <time>2024-01-01T10:44:07.686Z</time>
      </trkpt>
      <trkpt lat="49.029222931712866" lon="3.979445993900299">
        <ele>138.26</ele>
        <time>2024-01-01T10:44:08.651Z</time>
      </trkpt>
      <trkpt lat="49.02924799360335" lon="3.9794679544866085">
        <ele>137.74</ele>
        <time>2024-01-01T10:44:09.618Z</time>
      </trkpt>
      <trkpt lat="49.02927196584642" lon="3.979496955871582">
        <ele>137.22</ele>
        <time>2024-01-01T10:44:10.586Z</time>
      </trkpt>
      <trkpt lat="49.02929392643273" lon="3.979514976963401">
        <ele>136.72</ele>
        <time>2024-01-01T10:44:11.555Z</time>
      </trkpt>
      <trkpt lat="49.02931798249483" lon="3.9795359317213297">
        <ele>136.22</ele>
        <time>2024-01-01T10:44:12.526Z</time>
      </trkpt>
      <trkpt lat="49.02933994308114" lon="3.9795589819550514">
        <ele>135.75</ele>
        <time>2024-01-01T10:44:13.498Z</time>
      </trkpt>
      <trkpt lat="49.02936299331486" lon="3.9795789308845997">
        <ele>135.28</ele>
        <time>2024-01-01T10:44:14.471Z</time>
      </trkpt>
      <trkpt lat="49.02938797138631" lon="3.979600975289941">
        <ele>134.83</ele>
        <time>2024-01-01T10:44:15.446Z</time>
      </trkpt>
      <trkpt lat="49.02940792031586" lon="3.979627965018153">
        <ele>134.4</ele>
        <time>2024-01-01T10:44:16.422Z</time>
      </trkpt>
      <trkpt lat="49.02942795306444" lon="3.9796549547463655">
        <ele>133.98</ele>
        <time>2024-01-01T10:44:17.399Z</time>
      </trkpt>
      <trkpt lat="49.02944697998464" lon="3.979694936424494">
        <ele>133.57</ele>
        <time>2024-01-01T10:44:18.378Z</time>
      </trkpt>
      <trkpt lat="49.029457960277796" lon="3.9797409530729055">
        <ele>133.18</ele>
        <time>2024-01-01T10:44:19.358Z</time>
      </trkpt>
      <trkpt lat="49.02946692891419" lon="3.979782946407795">
        <ele>132.81</ele>
        <time>2024-01-01T10:44:20.339Z</time>
      </trkpt>
      <trkpt lat="49.02946692891419" lon="3.979827957227826">
        <ele>132.47</ele>
        <time>2024-01-01T10:44:21.322Z</time>
      </trkpt>
      <trkpt lat="49.02946491725743" lon="3.979870956391096">
        <ele>132.14</ele>
        <time>2024-01-01T10:44:22.306Z</time>
      </trkpt>
      <trkpt lat="49.0294648334384" lon="3.9798712078481913">
        <ele>132.13</ele>
        <time>2024-01-01T10:44:23.290Z</time>
      </trkpt>
      <trkpt lat="49.02945997193456" lon="3.9799149613827467">
        <ele>131.84</ele>
        <time>2024-01-01T10:44:24.275Z</time>
      </trkpt>
      <trkpt lat="49.02945293113589" lon="3.9799609780311584">
        <ele>131.56</ele>
        <time>2024-01-01T10:44:25.262Z</time>
      </trkpt>
      <trkpt lat="49.02944798581302" lon="3.9800089225172997">
        <ele>131.29</ele>
        <time>2024-01-01T10:44:26.250Z</time>
      </trkpt>
      <trkpt lat="49.0294439624995" lon="3.980055944994092">
        <ele>131.03</ele>
        <time>2024-01-01T10:44:27.240Z</time>
      </trkpt>
      <trkpt lat="49.029436921700835" lon="3.9801029674708843">
        <ele>130.79</ele>
        <time>2024-01-01T10:44:28.231Z</time>
      </trkpt>
      <trkpt lat="49.029431976377964" lon="3.980148984119296">
        <ele>130.58</ele>
        <time>2024-01-01T10:44:29.224Z</time>
      </trkpt>
      <trkpt lat="49.02942392975092" lon="3.980194916948676">
        <ele>130.4</ele>
        <time>2024-01-01T10:44:30.218Z</time>
      </trkpt>
      <trkpt lat="49.029415966942906" lon="3.9802399277687073">
        <ele>130.23</ele>
        <time>2024-01-01T10:44:31.214Z</time>
      </trkpt>
      <trkpt lat="49.02940993197262" lon="3.9802869502454996">
        <ele>130.09</ele>
        <time>2024-01-01T10:44:32.211Z</time>
      </trkpt>
      <trkpt lat="49.02940096333623" lon="3.980338918045163">
        <ele>129.97</ele>
        <time>2024-01-01T10:44:33.210Z</time>
      </trkpt>
      <trkpt lat="49.02939694002271" lon="3.980384934693575">
        <ele>129.87</ele>
        <time>2024-01-01T10:44:34.210Z</time>
      </trkpt>
      <trkpt lat="49.029391994699836" lon="3.9804309513419867">
        <ele>129.79</ele>
        <time>2024-01-01T10:44:35.212Z</time>
      </trkpt>
      <trkpt lat="49.02938294224441" lon="3.9804699271917343">
        <ele>129.74</ele>
        <time>2024-01-01T10:44:36.215Z</time>
      </trkpt>
      <trkpt lat="49.0293749794364" lon="3.9805099926888943">
        <ele>129.7</ele>
        <time>2024-01-01T10:44:37.219Z</time>
      </trkpt>
      <trkpt lat="49.02936399914324" lon="3.9805559255182743">
        <ele>129.69</ele>
        <time>2024-01-01T10:44:38.225Z</time>
      </trkpt>
      <trkpt lat="49.029352935031056" lon="3.980596996843815">
        <ele>129.71</ele>
        <time>2024-01-01T10:44:39.232Z</time>
      </trkpt>
      <trkpt lat="49.02933994308114" lon="3.980636978521943">
        <ele>129.75</ele>
        <time>2024-01-01T10:44:40.240Z</time>
      </trkpt>
      <trkpt lat="49.02931697666645" lon="3.9806719310581684">
        <ele>129.82</ele>
        <time>2024-01-01T10:44:41.250Z</time>
      </trkpt>
      <trkpt lat="49.02929099276662" lon="3.9806919638067484">
        <ele>129.92</ele>
        <time>2024-01-01T10:44:42.261Z</time>
      </trkpt>
      <trkpt lat="49.02925696223974" lon="3.9807019382715225">
        <ele>130.05</ele>
        <time>2024-01-01T10:44:43.274Z</time>
      </trkpt>
      <trkpt lat="49.02922494336963" lon="3.9806959871202707">
        <ele>130.22</ele>
        <time>2024-01-01T10:44:44.288Z</time>
      </trkpt>
      <trkpt lat="49.029196947813034" lon="3.980667991563678">
        <ele>130.4</ele>
        <time>2024-01-01T10:44:45.304Z</time>
      </trkpt>
      <trkpt lat="49.02916895225644" lon="3.980644941329956">
        <ele>130.61</ele>
        <time>2024-01-01T10:44:46.321Z</time>
      </trkpt>
      <trkpt lat="49.02914598584175" lon="3.980624992400408">
        <ele>130.84</ele>
        <time>2024-01-01T10:44:47.340Z</time>
      </trkpt>
      <trkpt lat="49.02911799028516" lon="3.9806079771369696">
        <ele>131.08</ele>
        <time>2024-01-01T10:44:48.360Z</time>
      </trkpt>
      <trkpt lat="49.029090916737914" lon="3.980584926903248">
        <ele>131.34</ele>
        <time>2024-01-01T10:44:49.382Z</time>
      </trkpt>
      <trkpt lat="49.02906493283808" lon="3.9805679954588413">
        <ele>131.62</ele>
        <time>2024-01-01T10:44:50.405Z</time>
      </trkpt>
      <trkpt lat="49.02904096059501" lon="3.980553997680545">
        <ele>131.91</ele>
        <time>2024-01-01T10:44:51.429Z</time>
      </trkpt>
      <trkpt lat="49.02901698835194" lon="3.980537988245487">
        <ele>132.2</ele>
        <time>2024-01-01T10:44:52.454Z</time>
      </trkpt>
      <trkpt lat="49.02899393811822" lon="3.9805239904671907">
        <ele>132.51</ele>
        <time>2024-01-01T10:44:53.480Z</time>
      </trkpt>
      <trkpt lat="49.02896795421839" lon="3.9805049635469913">
        <ele>132.83</ele>
        <time>2024-01-01T10:44:54.508Z</time>
      </trkpt>
      <trkpt lat="49.02894892729819" lon="3.980483924970031">
        <ele>133.16</ele>
        <time>2024-01-01T10:44:55.537Z</time>
      </trkpt>
      <trkpt lat="49.02892495505512" lon="3.9804689213633537">
        <ele>133.49</ele>
        <time>2024-01-01T10:44:56.567Z</time>
      </trkpt>
      <trkpt lat="49.028899976983666" lon="3.9804539177566767">
        <ele>133.83</ele>
        <time>2024-01-01T10:44:57.598Z</time>
      </trkpt>
      <trkpt lat="49.028877932578325" lon="3.980440925806761">
        <ele>134.17</ele>
        <time>2024-01-01T10:44:58.630Z</time>
      </trkpt>
      <trkpt lat="49.028853960335255" lon="3.9804209768772125">
        <ele>134.52</ele>
        <time>2024-01-01T10:44:59.664Z</time>
      </trkpt>
      <trkpt lat="49.028830993920565" lon="3.980401949957013">
        <ele>134.86</ele>
        <time>2024-01-01T10:45:00.699Z</time>
      </trkpt>
      <trkpt lat="49.02880693785846" lon="3.9803839288651943">
        <ele>135.21</ele>
        <time>2024-01-01T10:45:01.735Z</time>
      </trkpt>
      <trkpt lat="49.02878195978701" lon="3.9803629741072655">
        <ele>135.56</ele>
        <time>2024-01-01T10:45:02.773Z</time>
      </trkpt>
      <trkpt lat="49.02876192703843" lon="3.980346964672208">
        <ele>135.9</ele>
        <time>2024-01-01T10:45:03.812Z</time>
      </trkpt>
      <trkpt lat="49.02873694896698" lon="3.98033095523715">
        <ele>136.24</ele>
        <time>2024-01-01T10:45:04.852Z</time>
      </trkpt>
      <trkpt lat="49.02871398255229" lon="3.9803129341453314">
        <ele>136.58</ele>
        <time>2024-01-01T10:45:05.893Z</time>
      </trkpt>
      <trkpt lat="49.02869495563209" lon="3.980298936367035">
        <ele>136.92</ele>
        <time>2024-01-01T10:45:06.935Z</time>
      </trkpt>
      <trkpt lat="49.02866997756064" lon="3.980283932760358">
        <ele>137.25</ele>
        <time>2024-01-01T10:45:07.978Z</time>
      </trkpt>
      <trkpt lat="49.02864893898368" lon="3.9802639838308096">
        <ele>137.58</ele>
        <time>2024-01-01T10:45:09.022Z</time>
      </trkpt>
      <trkpt lat="49.02862697839737" lon="3.9802489802241325">
        <ele>137.91</ele>
        <time>2024-01-01T10:45:10.068Z</time>
      </trkpt>
      <trkpt lat="49.02860099449754" lon="3.980227941647172">
        <ele>138.23</ele>
        <time>2024-01-01T10:45:11.115Z</time>
      </trkpt>
      <trkpt lat="49.028577944263816" lon="3.9802119322121143">
        <ele>138.55</ele>
        <time>2024-01-01T10:45:12.163Z</time>
      </trkpt>
      <trkpt lat="49.028554977849126" lon="3.980194916948676">
        <ele>138.86</ele>
        <time>2024-01-01T10:45:13.212Z</time>
      </trkpt>
      <trkpt lat="49.028533939272165" lon="3.98017899133265">
        <ele>139.17</ele>
        <time>2024-01-01T10:45:14.262Z</time>
      </trkpt>
      <trkpt lat="49.028509967029095" lon="3.980166921392083">
        <ele>139.47</ele>
        <time>2024-01-01T10:45:15.314Z</time>
      </trkpt>
      <trkpt lat="49.02848398312926" lon="3.9801499899476767">
        <ele>139.77</ele>
        <time>2024-01-01T10:45:16.367Z</time>
      </trkpt>
      <trkpt lat="49.02846395038068" lon="3.980133980512619">
        <ele>140.06</ele>
        <time>2024-01-01T10:45:17.421Z</time>
      </trkpt>
      <trkpt lat="49.02844198979437" lon="3.980120988562703">
        <ele>140.34</ele>
        <time>2024-01-01T10:45:18.476Z</time>
      </trkpt>
      <trkpt lat="49.02841692790389" lon="3.980103973299265">
        <ele>140.63</ele>
        <time>2024-01-01T10:45:19.532Z</time>
      </trkpt>
      <trkpt lat="49.02839496731758" lon="3.9800919871777296">
        <ele>140.91</ele>
        <time>2024-01-01T10:45:20.589Z</time>
      </trkpt>
      <trkpt lat="49.02837191708386" lon="3.9800719544291496">
        <ele>141.18</ele>
        <time>2024-01-01T10:45:21.648Z</time>
      </trkpt>
      <trkpt lat="49.02834895066917" lon="3.9800549391657114">
        <ele>141.46</ele>
        <time>2024-01-01T10:45:22.708Z</time>
      </trkpt>
      <trkpt lat="49.02832799591124" lon="3.9800389297306538">
        <ele>141.73</ele>
        <time>2024-01-01T10:45:23.769Z</time>
      </trkpt>
      <trkpt lat="49.02830192819238" lon="3.980019986629486">
        <ele>142.0</ele>
        <time>2024-01-01T10:45:24.831Z</time>
      </trkpt>
      <trkpt lat="49.02828197926283" lon="3.9800059888511896">
        <ele>142.26</ele>
        <time>2024-01-01T10:45:25.894Z</time>
      </trkpt>
      <trkpt lat="49.02826094068587" lon="3.9799909852445126">
        <ele>142.53</ele>
        <time>2024-01-01T10:45:26.958Z</time>
      </trkpt>
      <trkpt lat="49.0282369684428" lon="3.979971958324313">
        <ele>142.79</ele>
        <time>2024-01-01T10:45:28.024Z</time>
      </trkpt>
      <trkpt lat="49.02821592986584" lon="3.9799559488892555">
        <ele>143.06</ele>
        <time>2024-01-01T10:45:29.091Z</time>
      </trkpt>
      <trkpt lat="49.028190951794386" lon="3.9799379277974367">
        <ele>143.32</ele>
        <time>2024-01-01T10:45:30.159Z</time>
      </trkpt>
      <trkpt lat="49.028167985379696" lon="3.9799199905246496">
        <ele>143.58</ele>
        <time>2024-01-01T10:45:31.228Z</time>
      </trkpt>
      <trkpt lat="49.028147952631116" lon="3.979903981089592">
        <ele>143.84</ele>
        <time>2024-01-01T10:45:32.298Z</time>
      </trkpt>
      <trkpt lat="49.028124986216426" lon="3.9798829425126314">
        <ele>144.1</ele>
        <time>2024-01-01T10:45:33.370Z</time>
      </trkpt>
      <trkpt lat="49.02810696512461" lon="3.9798679389059544">
        <ele>144.35</ele>
        <time>2024-01-01T10:45:34.443Z</time>
      </trkpt>
      <trkpt lat="49.028084920719266" lon="3.979855952784419">
        <ele>144.6</ele>
        <time>2024-01-01T10:45:35.517Z</time>
      </trkpt>
      <trkpt lat="49.028061954304576" lon="3.9798369258642197">
        <ele>144.85</ele>
        <time>2024-01-01T10:45:36.592Z</time>
      </trkpt>
      <trkpt lat="49.02803999371827" lon="3.979820916429162">
        <ele>145.09</ele>
        <time>2024-01-01T10:45:37.668Z</time>
      </trkpt>
      <trkpt lat="49.028015937656164" lon="3.9798039849847555">
        <ele>145.33</ele>
        <time>2024-01-01T10:45:38.745Z</time>
      </trkpt>
      <trkpt lat="49.027996994555" lon="3.9797869697213173">
        <ele>145.56</ele>
        <time>2024-01-01T10:45:39.823Z</time>
      </trkpt>
      <trkpt lat="49.02797696180642" lon="3.979772971943021">
        <ele>145.78</ele>
        <time>2024-01-01T10:45:40.902Z</time>
      </trkpt>
      <trkpt lat="49.02795793488622" lon="3.9797579683363438">
        <ele>145.99</ele>
        <time>2024-01-01T10:45:41.982Z</time>
      </trkpt>
      <trkpt lat="49.027932956814766" lon="3.979744976386428">
        <ele>146.2</ele>
        <time>2024-01-01T10:45:43.064Z</time>
      </trkpt>
      <trkpt lat="49.027911918237805" lon="3.9797329902648926">
        <ele>146.38</ele>
        <time>2024-01-01T10:45:44.147Z</time>
      </trkpt>
      <trkpt lat="49.02788199484348" lon="3.9797159750014544">
        <ele>146.56</ele>
        <time>2024-01-01T10:45:45.231Z</time>
      </trkpt>
      <trkpt lat="49.02786095626652" lon="3.979698959738016">
        <ele>146.73</ele>
        <time>2024-01-01T10:45:46.316Z</time>
      </trkpt>
      <trkpt lat="49.02783798985183" lon="3.979681944474578">
        <ele>146.88</ele>
        <time>2024-01-01T10:45:47.402Z</time>
      </trkpt>
      <trkpt lat="49.02781493961811" lon="3.979663923382759">
        <ele>147.03</ele>
        <time>2024-01-01T10:45:48.490Z</time>
      </trkpt>
      <trkpt lat="49.02779398486018" lon="3.979647997766733">
        <ele>147.16</ele>
        <time>2024-01-01T10:45:49.579Z</time>
      </trkpt>
      <trkpt lat="49.02777194045484" lon="3.9796299766749144">
        <ele>147.27</ele>
        <time>2024-01-01T10:45:50.669Z</time>
      </trkpt>
      <trkpt lat="49.02775098569691" lon="3.9796149730682373">
        <ele>147.38</ele>
        <time>2024-01-01T10:45:51.760Z</time>
      </trkpt>
      <trkpt lat="49.02772692963481" lon="3.9795999694615602">
        <ele>147.47</ele>
        <time>2024-01-01T10:45:52.852Z</time>
      </trkpt>
      <trkpt lat="49.02770295739174" lon="3.979582954198122">
        <ele>147.54</ele>
        <time>2024-01-01T10:45:53.945Z</time>
      </trkpt>
      <trkpt lat="49.02768393047154" lon="3.9795689564198256">
        <ele>147.6</ele>
        <time>2024-01-01T10:45:55.039Z</time>
      </trkpt>
      <trkpt lat="49.02765694074333" lon="3.979552946984768">
        <ele>147.64</ele>
        <time>2024-01-01T10:45:56.135Z</time>
      </trkpt>
      <trkpt lat="49.02763397432864" lon="3.9795359317213297">
        <ele>147.67</ele>
        <time>2024-01-01T10:45:57.232Z</time>
      </trkpt>
      <trkpt lat="49.027611929923296" lon="3.979519922286272">
        <ele>147.68</ele>
        <time>2024-01-01T10:45:58.330Z</time>
      </trkpt>
      <trkpt lat="49.027586951851845" lon="3.979501985013485">
        <ele>147.67</ele>
        <time>2024-01-01T10:45:59.429Z</time>
      </trkpt>
      <trkpt lat="49.027562979608774" lon="3.9794859755784273">
        <ele>147.64</ele>
        <time>2024-01-01T10:46:00.530Z</time>
      </trkpt>
      <trkpt lat="49.02753892354667" lon="3.979468960314989">
        <ele>147.6</ele>
        <time>2024-01-01T10:46:01.632Z</time>
      </trkpt>
      <trkpt lat="49.0275149513036" lon="3.9794509392231703">
        <ele>147.55</ele>
        <time>2024-01-01T10:46:02.735Z</time>
      </trkpt>
      <trkpt lat="49.02749198488891" lon="3.979433923959732">
        <ele>147.49</ele>
        <time>2024-01-01T10:46:03.839Z</time>
      </trkpt>
      <trkpt lat="49.02746591717005" lon="3.979413975030184">
        <ele>147.41</ele>
        <time>2024-01-01T10:46:04.945Z</time>
      </trkpt>
      <trkpt lat="49.0274459682405" lon="3.979397965595126">
        <ele>147.32</ele>
        <time>2024-01-01T10:46:06.052Z</time>
      </trkpt>
      <trkpt lat="49.02742199599743" lon="3.9793849736452103">
        <ele>147.21</ele>
        <time>2024-01-01T10:46:07.160Z</time>
      </trkpt>
      <trkpt lat="49.027392994612455" lon="3.9793739933520555">
        <ele>147.09</ele>
        <time>2024-01-01T10:46:08.269Z</time>
      </trkpt>
      <trkpt lat="49.027370950207114" lon="3.9793739933520555">
        <ele>146.96</ele>
        <time>2024-01-01T10:46:09.379Z</time>
      </trkpt>
      <trkpt lat="49.027350917458534" lon="3.9793929364532232">
        <ele>146.81</ele>
        <time>2024-01-01T10:46:10.490Z</time>
      </trkpt>
      <trkpt lat="49.02733298018575" lon="3.979417998343706">
        <ele>146.65</ele>
        <time>2024-01-01T10:46:11.603Z</time>
      </trkpt>
      <trkpt lat="49.02731495909393" lon="3.9794499333947897">
        <ele>146.49</ele>
        <time>2024-01-01T10:46:12.717Z</time>
      </trkpt>
      <trkpt lat="49.02729593217373" lon="3.979491926729679">
        <ele>146.31</ele>
        <time>2024-01-01T10:46:13.832Z</time>
      </trkpt>
      <trkpt lat="49.02728092856705" lon="3.9795309863984585">
        <ele>146.13</ele>
        <time>2024-01-01T10:46:14.949Z</time>
      </trkpt>
      <trkpt lat="49.0272699482739" lon="3.9795709680765867">
        <ele>145.94</ele>
        <time>2024-01-01T10:46:16.067Z</time>
      </trkpt>
      <trkpt lat="49.0272559504956" lon="3.979617990553379">
        <ele>145.74</ele>
        <time>2024-01-01T10:46:17.187Z</time>
      </trkpt>
      <trkpt lat="49.027243964374065" lon="3.9796579722315073">
        <ele>145.54</ele>
        <time>2024-01-01T10:46:18.308Z</time>
      </trkpt>
      <trkpt lat="49.02723298408091" lon="3.9796979539096355">
        <ele>145.34</ele>
        <time>2024-01-01T10:46:19.430Z</time>
      </trkpt>
      <trkpt lat="49.027219992130995" lon="3.9797389414161444">
        <ele>145.14</ele>
        <time>2024-01-01T10:46:20.554Z</time>
      </trkpt>
      <trkpt lat="49.02720993384719" lon="3.979776995256543">
        <ele>144.94</ele>
        <time>2024-01-01T10:46:21.679Z</time>
      </trkpt>
      <trkpt lat="49.027199959382415" lon="3.9798139594495296">
        <ele>144.75</ele>
        <time>2024-01-01T10:46:22.805Z</time>
      </trkpt>
      <trkpt lat="49.0271869674325" lon="3.9798549469560385">
        <ele>144.56</ele>
        <time>2024-01-01T10:46:23.933Z</time>
      </trkpt>
      <trkpt lat="49.027177998796105" lon="3.9798929169774055">
        <ele>144.37</ele>
        <time>2024-01-01T10:46:25.062Z</time>
      </trkpt>
      <trkpt lat="49.02716894634068" lon="3.979936921969056">
        <ele>144.18</ele>
        <time>2024-01-01T10:46:26.192Z</time>
      </trkpt>
      <trkpt lat="49.027157966047525" lon="3.9799789991229773">
        <ele>143.99</ele>
        <time>2024-01-01T10:46:27.324Z</time>
      </trkpt>
      <trkpt lat="49.02714899741113" lon="3.9800189808011055">
        <ele>143.81</ele>
        <time>2024-01-01T10:46:28.457Z</time>
      </trkpt>
      <trkpt lat="49.027136927470565" lon="3.9800589624792337">
        <ele>143.63</ele>
        <time>2024-01-01T10:46:29.591Z</time>
      </trkpt>
      <trkpt lat="49.02712594717741" lon="3.9800949208438396">
        <ele>143.46</ele>
        <time>2024-01-01T10:46:30.727Z</time>
      </trkpt>
      <trkpt lat="49.02711697854102" lon="3.980126939713955">
        <ele>143.29</ele>
        <time>2024-01-01T10:46:31.864Z</time>
      </trkpt>
      <trkpt lat="49.02710499241948" lon="3.9801659993827343">
        <ele>143.12</ele>
        <time>2024-01-01T10:46:33.002Z</time>
      </trkpt>
      <trkpt lat="49.027092922478914" lon="3.9802009519189596">
        <ele>142.97</ele>
        <time>2024-01-01T10:46:34.141Z</time>
      </trkpt>
      <trkpt lat="49.02708093635738" lon="3.9802399277687073">
        <ele>142.81</ele>
        <time>2024-01-01T10:46:35.282Z</time>
      </trkpt>
      <trkpt lat="49.02706693857908" lon="3.9802769757807255">
        <ele>142.65</ele>
        <time>2024-01-01T10:46:36.424Z</time>
      </trkpt>
      <trkpt lat="49.02705796994269" lon="3.980313939973712">
        <ele>142.5</ele>
        <time>2024-01-01T10:46:37.567Z</time>
      </trkpt>
      <trkpt lat="49.027047995477915" lon="3.98035392165184">
        <ele>142.35</ele>
        <time>2024-01-01T10:46:38.711Z</time>
      </trkpt>
      <trkpt lat="49.02703592553735" lon="3.980393987149">
        <ele>142.21</ele>
        <time>2024-01-01T10:46:39.857Z</time>
      </trkpt>
      <trkpt lat="49.027025951072574" lon="3.980434974655509">
        <ele>142.07</ele>
        <time>2024-01-01T10:46:41.004Z</time>
      </trkpt>
      <trkpt lat="49.02701396495104" lon="3.980475962162018">
        <ele>141.93</ele>
        <time>2024-01-01T10:46:42.152Z</time>
      </trkpt>
      <trkpt lat="49.027003990486264" lon="3.980515943840146">
        <ele>141.78</ele>
        <time>2024-01-01T10:46:43.302Z</time>
      </trkpt>
      <trkpt lat="49.02699493803084" lon="3.980553997680545">
        <ele>141.64</ele>
        <time>2024-01-01T10:46:44.453Z</time>
      </trkpt>
      <trkpt lat="49.02698094025254" lon="3.9805929735302925">
        <ele>141.5</ele>
        <time>2024-01-01T10:46:45.605Z</time>
      </trkpt>
      <trkpt lat="49.02697096578777" lon="3.9806289318948984">
        <ele>141.36</ele>
        <time>2024-01-01T10:46:46.759Z</time>
      </trkpt>
      <trkpt lat="49.026960991322994" lon="3.980662962421775">
        <ele>141.22</ele>
        <time>2024-01-01T10:46:47.914Z</time>
      </trkpt>
      <trkpt lat="49.02694799937308" lon="3.9807039499282837">
        <ele>141.07</ele>
        <time>2024-01-01T10:46:49.070Z</time>
      </trkpt>
      <trkpt lat="49.02693592943251" lon="3.9807429257780313">
        <ele>140.91</ele>
        <time>2024-01-01T10:46:50.227Z</time>
      </trkpt>
      <trkpt lat="49.026923943310976" lon="3.9807829912751913">
        <ele>140.75</ele>
        <time>2024-01-01T10:46:51.386Z</time>
      </trkpt>
      <trkpt lat="49.0269089397043" lon="3.980819955468178">
        <ele>140.59</ele>
        <time>2024-01-01T10:46:52.546Z</time>
      </trkpt>
      <trkpt lat="49.026896953582764" lon="3.9808569196611643">
        <ele>140.43</ele>
        <time>2024-01-01T10:46:53.707Z</time>
      </trkpt>
      <trkpt lat="49.02688295580447" lon="3.980894973501563">
        <ele>140.27</ele>
        <time>2024-01-01T10:46:54.870Z</time>
      </trkpt>
      <trkpt lat="49.02686694636941" lon="3.9809319376945496">
        <ele>140.1</ele>
        <time>2024-01-01T10:46:56.034Z</time>
      </trkpt>
      <trkpt lat="49.026853954419494" lon="3.9809669740498066">
        <ele>139.92</ele>
        <time>2024-01-01T10:46:57.199Z</time>
      </trkpt>
      <trkpt lat="49.026837944984436" lon="3.9810059498995543">
        <ele>139.73</ele>
        <time>2024-01-01T10:46:58.366Z</time>
      </trkpt>
      <trkpt lat="49.02682193554938" lon="3.9810429979115725">
        <ele>139.54</ele>
        <time>2024-01-01T10:46:59.534Z</time>
      </trkpt>
      <trkpt lat="49.02680994942784" lon="3.98108197376132">
        <ele>139.34</ele>
        <time>2024-01-01T10:47:00.703Z</time>
      </trkpt>
      <trkpt lat="49.02679595164955" lon="3.9811239670962095">
        <ele>139.12</ele>
        <time>2024-01-01T10:47:01.874Z</time>
      </trkpt>
      <trkpt lat="49.02678396552801" lon="3.981160931289196">
        <ele>138.9</ele>
        <time>2024-01-01T10:47:03.046Z</time>
      </trkpt>
      <trkpt lat="49.02677298523486" lon="3.981200996786356">
        <ele>138.66</ele>
        <time>2024-01-01T10:47:04.219Z</time>
      </trkpt>
      <trkpt lat="49.02675999328494" lon="3.9812429901212454">
        <ele>138.41</ele>
        <time>2024-01-01T10:47:05.394Z</time>
      </trkpt>
      <trkpt lat="49.026749935001135" lon="3.9812809601426125">
        <ele>138.14</ele>
        <time>2024-01-01T10:47:06.570Z</time>
      </trkpt>
      <trkpt lat="49.02673895470798" lon="3.981324965134263">
        <ele>137.87</ele>
        <time>2024-01-01T10:47:07.748Z</time>
      </trkpt>
      <trkpt lat="49.026724956929684" lon="3.9813619293272495">
        <ele>137.58</ele>
        <time>2024-01-01T10:47:08.927Z</time>
      </trkpt>
      <trkpt lat="49.02671297080815" lon="3.9813999831676483">
        <ele>137.29</ele>
        <time>2024-01-01T10:47:10.107Z</time>
      </trkpt>
      <trkpt lat="49.02669696137309" lon="3.9814449939876795">
        <ele>136.99</ele>
        <time>2024-01-01T10:47:11.289Z</time>
      </trkpt>
      <trkpt lat="49.026684975251555" lon="3.981478940695524">
        <ele>136.7</ele>
        <time>2024-01-01T10:47:12.472Z</time>
      </trkpt>
      <trkpt lat="49.0266739949584" lon="3.9815109595656395">
        <ele>136.4</ele>
        <time>2024-01-01T10:47:13.656Z</time>
      </trkpt>
      <trkpt lat="49.02665798552334" lon="3.9815509412437677">
        <ele>136.09</ele>
        <time>2024-01-01T10:47:14.841Z</time>
      </trkpt>
      <trkpt lat="49.02664599940181" lon="3.9815819542855024">
        <ele>135.78</ele>
        <time>2024-01-01T10:47:16.028Z</time>
      </trkpt>
      <trkpt lat="49.026635941118" lon="3.9816149789839983">
        <ele>135.46</ele>
        <time>2024-01-01T10:47:17.216Z</time>
      </trkpt>
      <trkpt lat="49.02661792002618" lon="3.981651943176985">
        <ele>135.15</ele>
        <time>2024-01-01T10:47:18.405Z</time>
      </trkpt>
      <trkpt lat="49.02660392224789" lon="3.9816849678754807">
        <ele>134.84</ele>
        <time>2024-01-01T10:47:19.595Z</time>
      </trkpt>
      <trkpt lat="49.02659093029797" lon="3.9817159809172153">
        <ele>134.53</ele>
        <time>2024-01-01T10:47:20.786Z</time>
      </trkpt>
      <trkpt lat="49.026572993025184" lon="3.9817489217966795">
        <ele>134.21</ele>
        <time>2024-01-01T10:47:21.979Z</time>
      </trkpt>
      <trkpt lat="49.02656092308462" lon="3.9817809406667948">
        <ele>133.9</ele>
        <time>2024-01-01T10:47:23.173Z</time>
      </trkpt>
      <trkpt lat="49.02656092308462" lon="3.9818189945071936">
        <ele>133.57</ele>
        <time>2024-01-01T10:47:24.368Z</time>
      </trkpt>
      <trkpt lat="49.026577938348055" lon="3.9818529412150383">
        <ele>133.25</ele>
        <time>2024-01-01T10:47:25.564Z</time>
      </trkpt>
      <trkpt lat="49.026598976925015" lon="3.981883954256773">
        <ele>132.92</ele>
        <time>2024-01-01T10:47:26.762Z</time>
      </trkpt>
      <trkpt lat="49.02662496082485" lon="3.981913961470127">
        <ele>132.6</ele>
        <time>2024-01-01T10:47:27.961Z</time>
      </trkpt>
      <trkpt lat="49.02665295638144" lon="3.9819329883903265">
        <ele>132.29</ele>
        <time>2024-01-01T10:47:29.162Z</time>
      </trkpt>
      <trkpt lat="49.02667793445289" lon="3.9819509256631136">
        <ele>131.97</ele>
        <time>2024-01-01T10:47:30.364Z</time>
      </trkpt>
      <trkpt lat="49.026706935837865" lon="3.981969952583313">
        <ele>131.67</ele>
        <time>2024-01-01T10:47:31.567Z</time>
      </trkpt>
      <trkpt lat="49.02673493139446" lon="3.9819909911602736">
        <ele>131.36</ele>
        <time>2024-01-01T10:47:32.772Z</time>
      </trkpt>
      <trkpt lat="49.02675898745656" lon="3.9820089284330606">
        <ele>131.06</ele>
        <time>2024-01-01T10:47:33.978Z</time>
      </trkpt>
      <trkpt lat="49.026787988841534" lon="3.98202795535326">
        <ele>130.76</ele>
        <time>2024-01-01T10:47:35.186Z</time>
      </trkpt>
      <trkpt lat="49.026812966912985" lon="3.9820469822734594">
        <ele>130.47</ele>
        <time>2024-01-01T10:47:36.395Z</time>
      </trkpt>
      <trkpt lat="49.026837944984436" lon="3.982062991708517">
        <ele>130.19</ele>
        <time>2024-01-01T10:47:37.605Z</time>
      </trkpt>
      <trkpt lat="49.02686795219779" lon="3.982083946466446">
        <ele>129.91</ele>
        <time>2024-01-01T10:47:38.817Z</time>
      </trkpt>
      <trkpt lat="49.026897959411144" lon="3.982105990871787">
        <ele>129.64</ele>
        <time>2024-01-01T10:47:40.030Z</time>
      </trkpt>
      <trkpt lat="49.02692595496774" lon="3.9821229223161936">
        <ele>129.37</ele>
        <time>2024-01-01T10:47:41.245Z</time>
      </trkpt>
      <trkpt lat="49.02695596218109" lon="3.9821429550647736">
        <ele>129.11</ele>
        <time>2024-01-01T10:47:42.461Z</time>
      </trkpt>
      <trkpt lat="49.026983957737684" lon="3.9821649994701147">
        <ele>128.85</ele>
        <time>2024-01-01T10:47:43.679Z</time>
      </trkpt>
      <trkpt lat="49.02701396495104" lon="3.9821839425712824">
        <ele>128.6</ele>
        <time>2024-01-01T10:47:44.898Z</time>
      </trkpt>
      <trkpt lat="49.02704497799277" lon="3.9822089206427336">
        <ele>128.34</ele>
        <time>2024-01-01T10:47:46.119Z</time>
      </trkpt>
      <trkpt lat="49.027070961892605" lon="3.9822309650480747">
        <ele>128.1</ele>
        <time>2024-01-01T10:47:47.341Z</time>
      </trkpt>
      <trkpt lat="49.02709996327758" lon="3.982249991968274">
        <ele>127.86</ele>
        <time>2024-01-01T10:47:48.565Z</time>
      </trkpt>
      <trkpt lat="49.02712594717741" lon="3.9822699408978224">
        <ele>127.62</ele>
        <time>2024-01-01T10:47:49.790Z</time>
      </trkpt>
      <trkpt lat="49.02714991942048" lon="3.9822889678180218">
        <ele>127.38</ele>
        <time>2024-01-01T10:47:51.016Z</time>
      </trkpt>
      <trkpt lat="49.02717397548258" lon="3.9823099225759506">
        <ele>127.15</ele>
        <time>2024-01-01T10:47:52.244Z</time>
      </trkpt>
      <trkpt lat="49.027199959382415" lon="3.9823349844664335">
        <ele>126.92</ele>
        <time>2024-01-01T10:47:53.473Z</time>
      </trkpt>
      <trkpt lat="49.02722594328225" lon="3.9823559392243624">
        <ele>126.7</ele>
        <time>2024-01-01T10:47:54.703Z</time>
      </trkpt>
      <trkpt lat="49.02725293301046" lon="3.9823759719729424">
        <ele>126.48</ele>
        <time>2024-01-01T10:47:55.935Z</time>
      </trkpt>
      <trkpt lat="49.02727799490094" lon="3.9823959209024906">
        <ele>126.26</ele>
        <time>2024-01-01T10:47:57.168Z</time>
      </trkpt>
      <trkpt lat="49.02730196714401" lon="3.982409918680787">
        <ele>126.05</ele>
        <time>2024-01-01T10:47:58.402Z</time>
      </trkpt>
      <trkpt lat="49.027329962700605" lon="3.982427939772606">
        <ele>125.84</ele>
        <time>2024-01-01T10:47:59.638Z</time>
      </trkpt>
      <trkpt lat="49.027353934943676" lon="3.9824469666928053">
        <ele>125.63</ele>
        <time>2024-01-01T10:48:00.875Z</time>
      </trkpt>
      <trkpt lat="49.02738193050027" lon="3.982467921450734">
        <ele>125.42</ele>
        <time>2024-01-01T10:48:02.114Z</time>
      </trkpt>
      <trkpt lat="49.02740799821913" lon="3.9824899658560753">
        <ele>125.21</ele>
        <time>2024-01-01T10:48:03.354Z</time>
      </trkpt>
      <trkpt lat="49.027433982118964" lon="3.9825069811195135">
        <ele>125.01</ele>
        <time>2024-01-01T10:48:04.595Z</time>
      </trkpt>
      <trkpt lat="49.02746097184718" lon="3.9825279358774424">
        <ele>124.81</ele>
        <time>2024-01-01T10:48:05.838Z</time>
      </trkpt>
      <trkpt lat="49.02748594991863" lon="3.982548974454403">
        <ele>124.62</ele>
        <time>2024-01-01T10:48:07.082Z</time>
      </trkpt>
      <trkpt lat="49.02751394547522" lon="3.9825679175555706">
        <ele>124.42</ele>
        <time>2024-01-01T10:48:08.327Z</time>
      </trkpt>
      <trkpt lat="49.027544958516955" lon="3.982588956132531">
        <ele>124.23</ele>
        <time>2024-01-01T10:48:09.574Z</time>
      </trkpt>
      <trkpt lat="49.02757194824517" lon="3.982608988881111">
        <ele>124.04</ele>
        <time>2024-01-01T10:48:10.822Z</time>
      </trkpt>
      <trkpt lat="49.02759994380176" lon="3.9826259203255177">
        <ele>123.86</ele>
        <time>2024-01-01T10:48:12.072Z</time>
      </trkpt>
      <trkpt lat="49.027628945186734" lon="3.9826459530740976">
        <ele>123.68</ele>
        <time>2024-01-01T10:48:13.323Z</time>
      </trkpt>
      <trkpt lat="49.02765694074333" lon="3.982662968337536">
        <ele>123.51</ele>
        <time>2024-01-01T10:48:14.576Z</time>
      </trkpt>
      <trkpt lat="49.02768795378506" lon="3.982682917267084">
        <ele>123.33</ele>
        <time>2024-01-01T10:48:15.830Z</time>
      </trkpt>
      <trkpt lat="49.027717960998416" lon="3.9827069733291864">
        <ele>123.16</ele>
        <time>2024-01-01T10:48:17.086Z</time>
      </trkpt>
      <trkpt lat="49.02774897404015" lon="3.9827269222587347">
        <ele>123.0</ele>
        <time>2024-01-01T10:48:18.343Z</time>
      </trkpt>
      <trkpt lat="49.027776969596744" lon="3.982745949178934">
        <ele>122.84</ele>
        <time>2024-01-01T10:48:19.602Z</time>
      </trkpt>
      <trkpt lat="49.027801947668195" lon="3.9827649760991335">
        <ele>122.68</ele>
        <time>2024-01-01T10:48:20.862Z</time>
      </trkpt>
      <trkpt lat="49.02782893739641" lon="3.9827819913625717">
        <ele>122.53</ele>
        <time>2024-01-01T10:48:22.124Z</time>
      </trkpt>
      <trkpt lat="49.02785793878138" lon="3.9828049577772617">
        <ele>122.38</ele>
        <time>2024-01-01T10:48:23.387Z</time>
      </trkpt>
      <trkpt lat="49.02788492850959" lon="3.982826918363571">
        <ele>122.23</ele>
        <time>2024-01-01T10:48:24.652Z</time>
      </trkpt>
      <trkpt lat="49.027911918237805" lon="3.9828459452837706">
        <ele>122.09</ele>
        <time>2024-01-01T10:48:25.918Z</time>
      </trkpt>
      <trkpt lat="49.02793798595667" lon="3.9828689955174923">
        <ele>121.95</ele>
        <time>2024-01-01T10:48:27.185Z</time>
      </trkpt>
      <trkpt lat="49.02796195819974" lon="3.98288793861866">
        <ele>121.81</ele>
        <time>2024-01-01T10:48:28.454Z</time>
      </trkpt>
      <trkpt lat="49.02798995375633" lon="3.9829069655388594">
        <ele>121.69</ele>
        <time>2024-01-01T10:48:29.724Z</time>
      </trkpt>
      <trkpt lat="49.028016943484545" lon="3.9829319436103106">
        <ele>121.56</ele>
        <time>2024-01-01T10:48:30.995Z</time>
      </trkpt>
      <trkpt lat="49.02804493904114" lon="3.9829519763588905">
        <ele>121.45</ele>
        <time>2024-01-01T10:48:32.268Z</time>
      </trkpt>
      <trkpt lat="49.02807394042611" lon="3.9829739369452">
        <ele>121.34</ele>
        <time>2024-01-01T10:48:33.542Z</time>
      </trkpt>
      <trkpt lat="49.02809992432594" lon="3.982995981350541">
        <ele>121.23</ele>
        <time>2024-01-01T10:48:34.818Z</time>
      </trkpt>
      <trkpt lat="49.02812699787319" lon="3.9830129966139793">
        <ele>121.13</ele>
        <time>2024-01-01T10:48:36.095Z</time>
      </trkpt>
      <trkpt lat="49.0281539876014" lon="3.9830329455435276">
        <ele>121.04</ele>
        <time>2024-01-01T10:48:37.374Z</time>
      </trkpt>
      <trkpt lat="49.02817997150123" lon="3.983051972463727">
        <ele>120.95</ele>
        <time>2024-01-01T10:48:38.654Z</time>
      </trkpt>
      <trkpt lat="49.028208972886205" lon="3.983072927221656">
        <ele>120.86</ele>
        <time>2024-01-01T10:48:39.935Z</time>
      </trkpt>
      <trkpt lat="49.0282369684428" lon="3.9830959774553776">
        <ele>120.79</ele>
        <time>2024-01-01T10:48:41.218Z</time>
      </trkpt>
      <trkpt lat="49.02826496399939" lon="3.9831149205565453">
        <ele>120.71</ele>
        <time>2024-01-01T10:48:42.502Z</time>
      </trkpt>
      <trkpt lat="49.028295977041125" lon="3.9831369649618864">
        <ele>120.65</ele>
        <time>2024-01-01T10:48:43.788Z</time>
      </trkpt>
      <trkpt lat="49.02832296676934" lon="3.983154986053705">
        <ele>120.59</ele>
        <time>2024-01-01T10:48:45.075Z</time>
      </trkpt>
      <trkpt lat="49.02835297398269" lon="3.9831749349832535">
        <ele>120.54</ele>
        <time>2024-01-01T10:48:46.364Z</time>
      </trkpt>
      <trkpt lat="49.028381975367665" lon="3.983198991045356">
        <ele>120.5</ele>
        <time>2024-01-01T10:48:47.654Z</time>
      </trkpt>
      <trkpt lat="49.02841097675264" lon="3.9832179341465235">
        <ele>120.46</ele>
        <time>2024-01-01T10:48:48.946Z</time>
      </trkpt>
      <trkpt lat="49.02844098396599" lon="3.9832399785518646">
        <ele>120.43</ele>
        <time>2024-01-01T10:48:50.239Z</time>
      </trkpt>
      <trkpt lat="49.028467973694205" lon="3.983259927481413">
        <ele>120.41</ele>
        <time>2024-01-01T10:48:51.534Z</time>
      </trkpt>
      <trkpt lat="49.02849496342242" lon="3.983276942744851">
        <ele>120.4</ele>
        <time>2024-01-01T10:48:52.830Z</time>
      </trkpt>
      <trkpt lat="49.02852396480739" lon="3.9832979813218117">
        <ele>120.4</ele>
        <time>2024-01-01T10:48:54.128Z</time>
      </trkpt>
      <trkpt lat="49.02854994870722" lon="3.9833169244229794">
        <ele>120.41</ele>
        <time>2024-01-01T10:48:55.427Z</time>
      </trkpt>
      <trkpt lat="49.028576938435435" lon="3.9833339396864176">
        <ele>120.43</ele>
        <time>2024-01-01T10:48:56.727Z</time>
      </trkpt>
      <trkpt lat="49.02860292233527" lon="3.983354978263378">
        <ele>120.46</ele>
        <time>2024-01-01T10:48:58.029Z</time>
      </trkpt>
      <trkpt lat="49.02862899005413" lon="3.983372999355197">
        <ele>120.5</ele>
        <time>2024-01-01T10:48:59.332Z</time>
      </trkpt>
      <trkpt lat="49.02865698561072" lon="3.9833969715982676">
        <ele>120.54</ele>
        <time>2024-01-01T10:49:00.637Z</time>
      </trkpt>
      <trkpt lat="49.028681963682175" lon="3.9834199380129576">
        <ele>120.59</ele>
        <time>2024-01-01T10:49:01.943Z</time>
      </trkpt>
      <trkpt lat="49.02870895341039" lon="3.9834419824182987">
        <ele>120.65</ele>
        <time>2024-01-01T10:49:03.250Z</time>
      </trkpt>
      <trkpt lat="49.02873393148184" lon="3.9834649488329887">
        <ele>120.71</ele>
        <time>2024-01-01T10:49:04.559Z</time>
      </trkpt>
      <trkpt lat="49.02876192703843" lon="3.9834849815815687">
        <ele>120.78</ele>
        <time>2024-01-01T10:49:05.869Z</time>
      </trkpt>
      <trkpt lat="49.028787994757295" lon="3.983506942167878">
        <ele>120.85</ele>
        <time>2024-01-01T10:49:07.181Z</time>
      </trkpt>
      <trkpt lat="49.028811967000365" lon="3.9835259690880775">
        <ele>120.93</ele>
        <time>2024-01-01T10:49:08.494Z</time>
      </trkpt>
      <trkpt lat="49.0288379509002" lon="3.983545918017626">
        <ele>121.02</ele>
        <time>2024-01-01T10:49:09.808Z</time>
      </trkpt>
      <trkpt lat="49.02886393480003" lon="3.9835669565945864">
        <ele>121.11</ele>
        <time>2024-01-01T10:49:11.124Z</time>
      </trkpt>
      <trkpt lat="49.028892936185" lon="3.983584977686405">
        <ele>121.2</ele>
        <time>2024-01-01T10:49:12.441Z</time>
      </trkpt>
      <trkpt lat="49.028921937569976" lon="3.9836049266159534">
        <ele>121.3</ele>
        <time>2024-01-01T10:49:13.760Z</time>
      </trkpt>
      <trkpt lat="49.02894699946046" lon="3.983625965192914">
        <ele>121.39</ele>
        <time>2024-01-01T10:49:15.080Z</time>
      </trkpt>
      <trkpt lat="49.02897398918867" lon="3.9836449921131134">
        <ele>121.49</ele>
        <time>2024-01-01T10:49:16.401Z</time>
      </trkpt>
      <trkpt lat="49.029001984745264" lon="3.9836699701845646">
        <ele>121.59</ele>
        <time>2024-01-01T10:49:17.724Z</time>
      </trkpt>
      <trkpt lat="49.029027968645096" lon="3.9836879912763834">
        <ele>121.69</ele>
        <time>2024-01-01T10:49:19.048Z</time>
      </trkpt>
      <trkpt lat="49.02905797585845" lon="3.9837079402059317">
        <ele>121.79</ele>
        <time>2024-01-01T10:49:20.374Z</time>
      </trkpt>
      <trkpt lat="49.0290829539299" lon="3.9837279729545116">
        <ele>121.89</ele>
        <time>2024-01-01T10:49:21.701Z</time>
      </trkpt>
      <trkpt lat="49.02910793200135" lon="3.9837439823895693">
        <ele>121.98</ele>
        <time>2024-01-01T10:49:23.029Z</time>
      </trkpt>
      <trkpt lat="49.029132993891835" lon="3.9837659429758787">
        <ele>122.07</ele>
        <time>2024-01-01T10:49:24.359Z</time>
      </trkpt>
      <trkpt lat="49.029153948649764" lon="3.9837819524109364">
        <ele>122.16</ele>
        <time>2024-01-01T10:49:25.690Z</time>
      </trkpt>
      <trkpt lat="49.029173981398344" lon="3.9838009793311357">
        <ele>122.24</ele>
        <time>2024-01-01T10:49:27.022Z</time>
      </trkpt>
      <trkpt lat="49.029196947813034" lon="3.983820928260684">
        <ele>122.32</ele>
        <time>2024-01-01T10:49:28.355Z</time>
      </trkpt>
      <trkpt lat="49.029223937541246" lon="3.9838369376957417">
        <ele>122.38</ele>
        <time>2024-01-01T10:49:29.689Z</time>
      </trkpt>
      <trkpt lat="49.02924698777497" lon="3.9838569704443216">
        <ele>122.44</ele>
        <time>2024-01-01T10:49:31.025Z</time>
      </trkpt>
      <trkpt lat="49.02927397750318" lon="3.9838749915361404">
        <ele>122.49</ele>
        <time>2024-01-01T10:49:32.362Z</time>
      </trkpt>
      <trkpt lat="49.02929794974625" lon="3.983891922980547">
        <ele>122.53</ele>
        <time>2024-01-01T10:49:33.700Z</time>
      </trkpt>
      <trkpt lat="49.02932393364608" lon="3.9839099440723658">
        <ele>122.56</ele>
        <time>2024-01-01T10:49:35.040Z</time>
      </trkpt>
      <trkpt lat="49.029348995536566" lon="3.9839299768209457">
        <ele>122.57</ele>
        <time>2024-01-01T10:49:36.381Z</time>
      </trkpt>
      <trkpt lat="49.029370956122875" lon="3.9839559607207775">
        <ele>122.56</ele>
        <time>2024-01-01T10:49:37.723Z</time>
      </trkpt>
      <trkpt lat="49.02938193641603" lon="3.983989991247654">
        <ele>122.54</ele>
        <time>2024-01-01T10:49:39.066Z</time>
      </trkpt>
      <trkpt lat="49.02938696555793" lon="3.9840319845825434">
        <ele>122.5</ele>
        <time>2024-01-01T10:49:40.411Z</time>
      </trkpt>
      <trkpt lat="49.02938696555793" lon="3.9840749837458134">
        <ele>122.46</ele>
        <time>2024-01-01T10:49:41.757Z</time>
      </trkpt>
      <trkpt lat="49.02938193641603" lon="3.984118988737464">
        <ele>122.4</ele>
        <time>2024-01-01T10:49:43.104Z</time>
      </trkpt>
      <trkpt lat="49.02935796417296" lon="3.9841509237885475">
        <ele>122.31</ele>
        <time>2024-01-01T10:49:44.453Z</time>
      </trkpt>
      <trkpt lat="49.02933298610151" lon="3.984184954315424">
        <ele>122.21</ele>
        <time>2024-01-01T10:49:45.803Z</time>
      </trkpt>
      <trkpt lat="49.029308930039406" lon="3.9842189848423004">
        <ele>122.09</ele>
        <time>2024-01-01T10:49:47.155Z</time>
      </trkpt>
      <trkpt lat="49.029285963624716" lon="3.9842569548636675">
        <ele>121.97</ele>
        <time>2024-01-01T10:49:48.509Z</time>
      </trkpt>
      <trkpt lat="49.029264925047755" lon="3.984290985390544">
        <ele>121.83</ele>
        <time>2024-01-01T10:49:49.864Z</time>
      </trkpt>
      <trkpt lat="49.02924899943173" lon="3.9843219984322786">
        <ele>121.69</ele>
        <time>2024-01-01T10:49:51.220Z</time>
      </trkpt>
      <trkpt lat="49.02923298999667" lon="3.984358962625265">
        <ele>121.54</ele>
        <time>2024-01-01T10:49:52.578Z</time>
      </trkpt>
      <trkpt lat="49.029216980561614" lon="3.984394920989871">
        <ele>121.38</ele>
        <time>2024-01-01T10:49:53.937Z</time>
      </trkpt>
      <trkpt lat="49.02920298278332" lon="3.984427945688367">
        <ele>121.2</ele>
        <time>2024-01-01T10:49:55.297Z</time>
      </trkpt>
      <trkpt lat="49.02918295003474" lon="3.9844689331948757">
        <ele>121.01</ele>
        <time>2024-01-01T10:49:56.659Z</time>
      </trkpt>
      <trkpt lat="49.0291659347713" lon="3.9845049753785133">
        <ele>120.8</ele>
        <time>2024-01-01T10:49:58.022Z</time>
      </trkpt>
      <trkpt lat="49.02914799749851" lon="3.984545962885022">
        <ele>120.58</ele>
        <time>2024-01-01T10:49:59.387Z</time>
      </trkpt>
      <trkpt lat="49.02912796474993" lon="3.9845839329063892">
        <ele>120.34</ele>
        <time>2024-01-01T10:50:00.753Z</time>
      </trkpt>
      <trkpt lat="49.029112961143255" lon="3.9846209809184074">
        <ele>120.11</ele>
        <time>2024-01-01T10:50:02.120Z</time>
      </trkpt>
      <trkpt lat="49.02909795753658" lon="3.984659956768155">
        <ele>119.87</ele>
        <time>2024-01-01T10:50:03.489Z</time>
      </trkpt>
      <trkpt lat="49.02907993644476" lon="3.984694993123412">
        <ele>119.61</ele>
        <time>2024-01-01T10:50:04.859Z</time>
      </trkpt>
      <trkpt lat="49.02906593866646" lon="3.9847299456596375">
        <ele>119.35</ele>
        <time>2024-01-01T10:50:06.230Z</time>
      </trkpt>
      <trkpt lat="49.029048923403025" lon="3.9847699273377657">
        <ele>119.08</ele>
        <time>2024-01-01T10:50:07.603Z</time>
      </trkpt>
      <trkpt lat="49.029032997787" lon="3.984806975349784">
        <ele>118.8</ele>
        <time>2024-01-01T10:50:08.977Z</time>
      </trkpt>
      <trkpt lat="49.02901698835194" lon="3.9848439395427704">
        <ele>118.52</ele>
        <time>2024-01-01T10:50:10.353Z</time>
      </trkpt>
      <trkpt lat="49.02899695560336" lon="3.984884927049279">
        <ele>118.21</ele>
        <time>2024-01-01T10:50:11.730Z</time>
      </trkpt>
      <trkpt lat="49.02897994033992" lon="3.9849219750612974">
        <ele>117.9</ele>
        <time>2024-01-01T10:50:13.109Z</time>
      </trkpt>
      <trkpt lat="49.028965942561626" lon="3.984958939254284">
        <ele>117.58</ele>
        <time>2024-01-01T10:50:14.489Z</time>
      </trkpt>
      <trkpt lat="49.02894599363208" lon="3.9849999267607927">
        <ele>117.26</ele>
        <time>2024-01-01T10:50:15.870Z</time>
      </trkpt>
      <trkpt lat="49.02892998419702" lon="3.9850399922579527">
        <ele>116.93</ele>
        <time>2024-01-01T10:50:17.253Z</time>
      </trkpt>
      <trkpt lat="49.02891397476196" lon="3.9850789681077003">
        <ele>116.61</ele>
        <time>2024-01-01T10:50:18.637Z</time>
      </trkpt>
      <trkpt lat="49.02889494784176" lon="3.9851169381290674">
        <ele>116.28</ele>
        <time>2024-01-01T10:50:20.023Z</time>
      </trkpt>
      <trkpt lat="49.028879944235086" lon="3.9851519744843245">
        <ele>115.96</ele>
        <time>2024-01-01T10:50:21.410Z</time>
      </trkpt>
      <trkpt lat="49.02886594645679" lon="3.985190950334072">
        <ele>115.65</ele>
        <time>2024-01-01T10:50:22.798Z</time>
      </trkpt>
      <trkpt lat="49.02884599752724" lon="3.9852279983460903">
        <ele>115.34</ele>
        <time>2024-01-01T10:50:24.188Z</time>
      </trkpt>
      <trkpt lat="49.028832921758294" lon="3.9852659683674574">
        <ele>115.04</ele>
        <time>2024-01-01T10:50:25.579Z</time>
      </trkpt>
      <trkpt lat="49.02881699614227" lon="3.9853089675307274">
        <ele>114.73</ele>
        <time>2024-01-01T10:50:26.972Z</time>
      </trkpt>
      <trkpt lat="49.02879897505045" lon="3.9853449258953333">
        <ele>114.44</ele>
        <time>2024-01-01T10:50:28.366Z</time>
      </trkpt>
      <trkpt lat="49.02878497727215" lon="3.9853749331086874">
        <ele>114.16</ele>
        <time>2024-01-01T10:50:29.761Z</time>
      </trkpt>
      <trkpt lat="49.028768967837095" lon="3.9854139927774668">
        <ele>113.88</ele>
        <time>2024-01-01T10:50:31.158Z</time>
      </trkpt>
      <trkpt lat="49.02875195257366" lon="3.985448945313692">
        <ele>113.61</ele>
        <time>2024-01-01T10:50:32.556Z</time>
      </trkpt>
      <trkpt lat="49.02873694896698" lon="3.9854829758405685">
        <ele>113.35</ele>
        <time>2024-01-01T10:50:33.955Z</time>
      </trkpt>
      <trkpt lat="49.02871892787516" lon="3.985521951690316">
        <ele>113.1</ele>
        <time>2024-01-01T10:50:35.356Z</time>
      </trkpt>
      <trkpt lat="49.028701996430755" lon="3.9855599217116833">
        <ele>112.86</ele>
        <time>2024-01-01T10:50:36.758Z</time>
      </trkpt>
      <trkpt lat="49.02868699282408" lon="3.9855989813804626">
        <ele>112.64</ele>
        <time>2024-01-01T10:50:38.161Z</time>
      </trkpt>
      <trkpt lat="49.02867098338902" lon="3.9856379572302103">
        <ele>112.42</ele>
        <time>2024-01-01T10:50:39.566Z</time>
      </trkpt>
      <trkpt lat="49.028657991439104" lon="3.9856779389083385">
        <ele>112.22</ele>
        <time>2024-01-01T10:50:40.972Z</time>
      </trkpt>
      <trkpt lat="49.0286479331553" lon="3.985721943899989">
        <ele>112.03</ele>
        <time>2024-01-01T10:50:42.380Z</time>
      </trkpt>
      <trkpt lat="49.028637958690524" lon="3.9857689663767815">
        <ele>111.85</ele>
        <time>2024-01-01T10:50:43.789Z</time>
      </trkpt>
      <trkpt lat="49.02863695286214" lon="3.9858119655400515">
        <ele>111.69</ele>
        <time>2024-01-01T10:50:45.200Z</time>
      </trkpt>
      <trkpt lat="49.028640976175666" lon="3.9858569763600826">
        <ele>111.54</ele>
        <time>2024-01-01T10:50:46.612Z</time>
      </trkpt>
      <trkpt lat="49.02865195646882" lon="3.985901987180114">
        <ele>111.4</ele>
        <time>2024-01-01T10:50:48.025Z</time>
      </trkpt>
      <trkpt lat="49.02867794036865" lon="3.985926965251565">
        <ele>111.29</ele>
        <time>2024-01-01T10:50:49.440Z</time>
      </trkpt>
      <trkpt lat="49.02869998477399" lon="3.9859589841216803">
        <ele>111.18</ele>
        <time>2024-01-01T10:50:50.856Z</time>
      </trkpt>
      <trkpt lat="49.02872295118868" lon="3.985989997163415">
        <ele>111.08</ele>
        <time>2024-01-01T10:50:52.274Z</time>
      </trkpt>
      <trkpt lat="49.028747929260135" lon="3.986014975234866">
        <ele>110.99</ele>
        <time>2024-01-01T10:50:53.693Z</time>
      </trkpt>
      <trkpt lat="49.02877491898835" lon="3.9860419649630785">
        <ele>110.91</ele>
        <time>2024-01-01T10:50:55.114Z</time>
      </trkpt>
      <trkpt lat="49.02879897505045" lon="3.9860649313777685">
        <ele>110.83</ele>
        <time>2024-01-01T10:50:56.536Z</time>
      </trkpt>
      <trkpt lat="49.02882596477866" lon="3.986090999096632">
        <ele>110.76</ele>
        <time>2024-01-01T10:50:57.959Z</time>
      </trkpt>
      <trkpt lat="49.02885194867849" lon="3.9861179888248444">
        <ele>110.7</ele>
        <time>2024-01-01T10:50:59.384Z</time>
      </trkpt>
      <trkpt lat="49.028875920921564" lon="3.9861379377543926">
        <ele>110.64</ele>
        <time>2024-01-01T10:51:00.810Z</time>
      </trkpt>
      <trkpt lat="49.028899976983666" lon="3.9861609879881144">
        <ele>110.59</ele>
        <time>2024-01-01T10:51:02.237Z</time>
      </trkpt>
      <trkpt lat="49.028921937569976" lon="3.986184960231185">
        <ele>110.54</ele>
        <time>2024-01-01T10:51:03.666Z</time>
      </trkpt>
      <trkpt lat="49.02894599363208" lon="3.986204992979765">
        <ele>110.5</ele>
        <time>2024-01-01T10:51:05.096Z</time>
      </trkpt>
      <trkpt lat="49.02897197753191" lon="3.986229971051216">
        <ele>110.46</ele>
        <time>2024-01-01T10:51:06.527Z</time>
      </trkpt>
      <trkpt lat="49.02899796143174" lon="3.9862539432942867">
        <ele>110.42</ele>
        <time>2024-01-01T10:51:07.960Z</time>
      </trkpt>
      <trkpt lat="49.02902394533157" lon="3.9862739760428667">
        <ele>110.39</ele>
        <time>2024-01-01T10:51:09.394Z</time>
      </trkpt>
      <trkpt lat="49.029044983908534" lon="3.986305994912982">
        <ele>110.35</ele>
        <time>2024-01-01T10:51:10.830Z</time>
      </trkpt>
      <trkpt lat="49.029067950323224" lon="3.9863319788128138">
        <ele>110.32</ele>
        <time>2024-01-01T10:51:12.267Z</time>
      </trkpt>
      <trkpt lat="49.029093934223056" lon="3.9863579627126455">
        <ele>110.29</ele>
        <time>2024-01-01T10:51:13.705Z</time>
      </trkpt>
      <trkpt lat="49.02911698445678" lon="3.986386964097619">
        <ele>110.26</ele>
        <time>2024-01-01T10:51:15.145Z</time>
      </trkpt>
      <trkpt lat="49.02914095669985" lon="3.986409930512309">
        <ele>110.23</ele>
        <time>2024-01-01T10:51:16.586Z</time>
      </trkpt>
      <trkpt lat="49.02916694059968" lon="3.986437926068902">
        <ele>110.2</ele>
        <time>2024-01-01T10:51:18.029Z</time>
      </trkpt>
      <trkpt lat="49.0291899908334" lon="3.986462987959385">
        <ele>110.18</ele>
        <time>2024-01-01T10:51:19.473Z</time>
      </trkpt>
      <trkpt lat="49.02921295724809" lon="3.986487966030836">
        <ele>110.15</ele>
        <time>2024-01-01T10:51:20.918Z</time>
      </trkpt>
      <trkpt lat="49.02923894114792" lon="3.98651797324419">
        <ele>110.11</ele>
        <time>2024-01-01T10:51:22.365Z</time>
      </trkpt>
      <trkpt lat="49.029265930876136" lon="3.9865399338304996">
        <ele>110.09</ele>
        <time>2024-01-01T10:51:23.813Z</time>
      </trkpt>
      <trkpt lat="49.02929099276662" lon="3.9865629840642214">
        <ele>110.06</ele>
        <time>2024-01-01T10:51:25.263Z</time>
      </trkpt>
      <trkpt lat="49.02931697666645" lon="3.9865899737924337">
        <ele>110.02</ele>
        <time>2024-01-01T10:51:26.714Z</time>
      </trkpt>
      <trkpt lat="49.02934094890952" lon="3.9866129402071238">
        <ele>109.99</ele>
        <time>2024-01-01T10:51:28.166Z</time>
      </trkpt>
      <trkpt lat="49.02936693280935" lon="3.986642947420478">
        <ele>109.96</ele>
        <time>2024-01-01T10:51:29.620Z</time>
      </trkpt>
      <trkpt lat="49.029392916709185" lon="3.9866699371486902">
        <ele>109.92</ele>
        <time>2024-01-01T10:51:31.075Z</time>
      </trkpt>
      <trkpt lat="49.02941898442805" lon="3.9866969268769026">
        <ele>109.87</ele>
        <time>2024-01-01T10:51:32.532Z</time>
      </trkpt>
      <trkpt lat="49.02944295667112" lon="3.986722994595766">
        <ele>109.82</ele>
        <time>2024-01-01T10:51:33.990Z</time>
      </trkpt>
      <trkpt lat="49.02947095222771" lon="3.986745961010456">
        <ele>109.77</ele>
        <time>2024-01-01T10:51:35.450Z</time>
      </trkpt>
      <trkpt lat="49.029501965269446" lon="3.9867749623954296">
        <ele>109.71</ele>
        <time>2024-01-01T10:51:36.911Z</time>
      </trkpt>
      <trkpt lat="49.0295269433409" lon="3.986799940466881">
        <ele>109.64</ele>
        <time>2024-01-01T10:51:38.374Z</time>
      </trkpt>
      <trkpt lat="49.02955192141235" lon="3.9868229907006025">
        <ele>109.56</ele>
        <time>2024-01-01T10:51:39.838Z</time>
      </trkpt>
      <trkpt lat="49.02957991696894" lon="3.986849980428815">
        <ele>109.47</ele>
        <time>2024-01-01T10:51:41.304Z</time>
      </trkpt>
      <trkpt lat="49.029604978859425" lon="3.986879987642169">
        <ele>109.38</ele>
        <time>2024-01-01T10:51:42.771Z</time>
      </trkpt>
      <trkpt lat="49.029626939445734" lon="3.9869089890271425">
        <ele>109.27</ele>
        <time>2024-01-01T10:51:44.240Z</time>
      </trkpt>
      <trkpt lat="49.029649989679456" lon="3.9869389962404966">
        <ele>109.16</ele>
        <time>2024-01-01T10:51:45.710Z</time>
      </trkpt>
      <trkpt lat="49.029673961922526" lon="3.9869649801403284">
        <ele>109.04</ele>
        <time>2024-01-01T10:51:47.181Z</time>
      </trkpt>
      <trkpt lat="49.02969994582236" lon="3.9869929756969213">
        <ele>108.93</ele>
        <time>2024-01-01T10:51:48.654Z</time>
      </trkpt>
      <trkpt lat="49.0297219902277" lon="3.9870179537683725">
        <ele>108.81</ele>
        <time>2024-01-01T10:51:50.128Z</time>
      </trkpt>
      <trkpt lat="49.02974596247077" lon="3.987041926011443">
        <ele>108.7</ele>
        <time>2024-01-01T10:51:51.603Z</time>
      </trkpt>
      <trkpt lat="49.02977094054222" lon="3.9870709273964167">
        <ele>108.58</ele>
        <time>2024-01-01T10:51:53.080Z</time>
      </trkpt>
      <trkpt lat="49.02977102436125" lon="3.9870710112154484">
        <ele>108.57</ele>
        <time>2024-01-01T10:51:54.557Z</time>
      </trkpt>
      <trkpt lat="49.029774041846395" lon="3.987064389511943">
        <ele>109.69</ele>
        <time>2024-01-01T10:51:56.034Z</time>
      </trkpt>
      <trkpt lat="49.03009423054755" lon="3.9874041080474854">
        <ele>109.4</ele>
        <time>2024-01-01T10:51:57.529Z</time>
      </trkpt>
      <trkpt lat="49.030094146728516" lon="3.9874041080474854">
        <ele>109.43</ele>
        <time>2024-01-01T10:51:59.024Z</time>
      </trkpt>
      <trkpt lat="49.03102763928473" lon="3.9853549003601074">
        <ele>110.79</ele>
        <time>2024-01-01T10:52:00.596Z</time>
      </trkpt>
      <trkpt lat="49.031081199645996" lon="3.9854514598846436">
        <ele>110.42</ele>
        <time>2024-01-01T10:52:02.172Z</time>
      </trkpt>
      <trkpt lat="49.03171420097351" lon="3.9844751358032227">
        <ele>108.57</ele>
        <time>2024-01-01T10:52:03.790Z</time>
      </trkpt>
      <trkpt lat="49.03189659118652" lon="3.9841532707214355">
        <ele>107.54</ele>
        <time>2024-01-01T10:52:05.421Z</time>
      </trkpt>
      <trkpt lat="49.0319287776947" lon="3.9840996265411377">
        <ele>106.79</ele>
        <time>2024-01-01T10:52:07.054Z</time>
      </trkpt>
      <trkpt lat="49.030530927702785" lon="3.9820805098861456">
        <ele>115.47</ele>
        <time>2024-01-01T10:52:08.777Z</time>
      </trkpt>
      <trkpt lat="49.03048046864569" lon="3.9820075035095215">
        <ele>119.09</ele>
        <time>2024-01-01T10:52:10.504Z</time>
      </trkpt>
      <trkpt lat="49.030538806691766" lon="3.9819073397666216">
        <ele>118.87</ele>
        <time>2024-01-01T10:52:12.235Z</time>
      </trkpt>
      <trkpt lat="49.030538806691766" lon="3.98190725594759">
        <ele>116.51</ele>
        <time>2024-01-01T10:52:13.966Z</time>
      </trkpt>
      <trkpt lat="49.030538806691766" lon="3.9819073397666216">
        <ele>117.41</ele>
        <time>2024-01-01T10:52:15.697Z</time>
      </trkpt>
      <trkpt lat="49.03078079223633" lon="3.981492519378662">
        <ele>116.13</ele>
        <time>2024-01-01T10:52:17.445Z</time>
      </trkpt>
      <trkpt lat="49.03080224990845" lon="3.981395959854126">
        <ele>115.69</ele>
        <time>2024-01-01T10:52:19.196Z</time>
      </trkpt>
      <trkpt lat="49.030609130859375" lon="3.9810633659362793">
        <ele>115.86</ele>
        <time>2024-01-01T10:52:20.960Z</time>
      </trkpt>
      <trkpt lat="49.0307236276567" lon="3.9809440076351166">
        <ele>115.7</ele>
        <time>2024-01-01T10:52:22.731Z</time>
      </trkpt>
      <trkpt lat="49.031113386154175" lon="3.9805376529693604">
        <ele>119.04</ele>
        <time>2024-01-01T10:52:24.524Z</time>
      </trkpt>
      <trkpt lat="49.031885862350464" lon="3.9797115325927734">
        <ele>121.4</ele>
        <time>2024-01-01T10:52:26.361Z</time>
      </trkpt>
      <trkpt lat="49.03206825256348" lon="3.9794862270355225">
        <ele>123.42</ele>
        <time>2024-01-01T10:52:28.209Z</time>
      </trkpt>
      <trkpt lat="49.03130658902228" lon="3.977329730987549">
        <ele>130.28</ele>
        <time>2024-01-01T10:52:30.132Z</time>
      </trkpt>
      <trkpt lat="49.03173565864563" lon="3.9765465259552">
        <ele>132.59</ele>
        <time>2024-01-01T10:52:32.087Z</time>
      </trkpt>
      <trkpt lat="49.03206825256348" lon="3.976074457168579">
        <ele>135.55</ele>
        <time>2024-01-01T10:52:34.063Z</time>
      </trkpt>
      <trkpt lat="49.03219942934811" lon="3.976028189063072">
        <ele>136.99</ele>
        <time>2024-01-01T10:52:36.045Z</time>
      </trkpt>
      <trkpt lat="49.032203033566475" lon="3.9760519098490477">
        <ele>136.42</ele>
        <time>2024-01-01T10:52:38.028Z</time>
      </trkpt>
      <trkpt lat="49.032229939475656" lon="3.9760439470410347">
        <ele>136.46</ele>
        <time>2024-01-01T10:52:40.012Z</time>
      </trkpt>
      <trkpt lat="49.03225399553776" lon="3.976034978404641">
        <ele>136.5</ele>
        <time>2024-01-01T10:52:41.997Z</time>
      </trkpt>
      <trkpt lat="49.03228492476046" lon="3.976019974797964">
        <ele>136.53</ele>
        <time>2024-01-01T10:52:43.984Z</time>
      </trkpt>
      <trkpt lat="49.032311998307705" lon="3.9760129339993">
        <ele>136.56</ele>
        <time>2024-01-01T10:52:45.972Z</time>
      </trkpt>
      <trkpt lat="49.032336976379156" lon="3.976004971191287">
        <ele>136.59</ele>
        <time>2024-01-01T10:52:47.961Z</time>
      </trkpt>
      <trkpt lat="49.03236597776413" lon="3.9759969245642424">
        <ele>136.62</ele>
        <time>2024-01-01T10:52:49.952Z</time>
      </trkpt>
      <trkpt lat="49.03239296749234" lon="3.9759909734129906">
        <ele>136.66</ele>
        <time>2024-01-01T10:52:51.944Z</time>
      </trkpt>
      <trkpt lat="49.032422974705696" lon="3.9759839326143265">
        <ele>136.71</ele>
        <time>2024-01-01T10:52:53.937Z</time>
      </trkpt>
      <trkpt lat="49.03244795277715" lon="3.9759819209575653">
        <ele>136.77</ele>
        <time>2024-01-01T10:52:55.931Z</time>
      </trkpt>
      <trkpt lat="49.03246999718249" lon="3.975976975634694">
        <ele>136.84</ele>
        <time>2024-01-01T10:52:57.927Z</time>
      </trkpt>
      <trkpt lat="49.03249598108232" lon="3.9759729523211718">
        <ele>136.92</ele>
        <time>2024-01-01T10:52:59.924Z</time>
      </trkpt>
      <trkpt lat="49.03252297081053" lon="3.9759729523211718">
        <ele>137.01</ele>
        <time>2024-01-01T10:53:01.922Z</time>
      </trkpt>
      <trkpt lat="49.032549960538745" lon="3.975967923179269">
        <ele>137.11</ele>
        <time>2024-01-01T10:53:03.921Z</time>
      </trkpt>
      <trkpt lat="49.03257896192372" lon="3.9759629778563976">
        <ele>137.23</ele>
        <time>2024-01-01T10:53:05.922Z</time>
      </trkpt>
      <trkpt lat="49.03260695748031" lon="3.975956942886114">
        <ele>137.37</ele>
        <time>2024-01-01T10:53:07.924Z</time>
      </trkpt>
      <trkpt lat="49.032634953036904" lon="3.9759479742497206">
        <ele>137.53</ele>
        <time>2024-01-01T10:53:09.927Z</time>
      </trkpt>
      <trkpt lat="49.032660936936736" lon="3.9759389217942953">
        <ele>137.7</ele>
        <time>2024-01-01T10:53:11.932Z</time>
      </trkpt>
      <trkpt lat="49.03268398717046" lon="3.975924924015999">
        <ele>137.91</ele>
        <time>2024-01-01T10:53:13.938Z</time>
      </trkpt>
      <trkpt lat="49.03270795941353" lon="3.975911932066083">
        <ele>138.13</ele>
        <time>2024-01-01T10:53:15.945Z</time>
      </trkpt>
      <trkpt lat="49.03272991999984" lon="3.9758959226310253">
        <ele>138.36</ele>
        <time>2024-01-01T10:53:17.953Z</time>
      </trkpt>
      <trkpt lat="49.03274894692004" lon="3.975878991186619">
        <ele>138.62</ele>
        <time>2024-01-01T10:53:19.962Z</time>
      </trkpt>
      <trkpt lat="49.03277099132538" lon="3.9758579526096582">
        <ele>138.9</ele>
        <time>2024-01-01T10:53:21.972Z</time>
      </trkpt>
      <trkpt lat="49.032785994932055" lon="3.9758369978517294">
        <ele>139.18</ele>
        <time>2024-01-01T10:53:23.983Z</time>
      </trkpt>
      <trkpt lat="49.03280192054808" lon="3.975812941789627">
        <ele>139.5</ele>
        <time>2024-01-01T10:53:25.995Z</time>
      </trkpt>
      <trkpt lat="49.03281792998314" lon="3.975789975374937">
        <ele>139.82</ele>
        <time>2024-01-01T10:53:28.008Z</time>
      </trkpt>
      <trkpt lat="49.032831927761436" lon="3.9757709484547377">
        <ele>140.16</ele>
        <time>2024-01-01T10:53:30.022Z</time>
      </trkpt>
      <trkpt lat="49.03284592553973" lon="3.9757489878684282">
        <ele>140.51</ele>
        <time>2024-01-01T10:53:32.037Z</time>
      </trkpt>
      <trkpt lat="49.0328579954803" lon="3.9757289551198483">
        <ele>140.87</ele>
        <time>2024-01-01T10:53:34.053Z</time>
      </trkpt>
      <trkpt lat="49.032870987430215" lon="3.9757079165428877">
        <ele>141.24</ele>
        <time>2024-01-01T10:53:36.070Z</time>
      </trkpt>
      <trkpt lat="49.03288196772337" lon="3.9756899792701006">
        <ele>141.61</ele>
        <time>2024-01-01T10:53:38.088Z</time>
      </trkpt>
      <trkpt lat="49.03289093635976" lon="3.9756749756634235">
        <ele>141.99</ele>
        <time>2024-01-01T10:53:40.106Z</time>
      </trkpt>
      <trkpt lat="49.03290099464357" lon="3.9756569545716047">
        <ele>142.38</ele>
        <time>2024-01-01T10:53:42.125Z</time>
      </trkpt>
      <trkpt lat="49.03291096910834" lon="3.975638933479786">
        <ele>142.77</ele>
        <time>2024-01-01T10:53:44.145Z</time>
      </trkpt>
      <trkpt lat="49.03292295522988" lon="3.9756219182163477">
        <ele>143.17</ele>
        <time>2024-01-01T10:53:46.165Z</time>
      </trkpt>
      <trkpt lat="49.03292999602854" lon="3.975608926266432">
        <ele>143.57</ele>
        <time>2024-01-01T10:53:48.186Z</time>
      </trkpt>
      <trkpt lat="49.032937958836555" lon="3.9755999576300383">
        <ele>143.96</ele>
        <time>2024-01-01T10:53:50.207Z</time>
      </trkpt>
      <trkpt lat="49.03294893912971" lon="3.975585959851742">
        <ele>144.37</ele>
        <time>2024-01-01T10:53:52.229Z</time>
      </trkpt>
      <trkpt lat="49.032958997413516" lon="3.975569950416684">
        <ele>144.78</ele>
        <time>2024-01-01T10:53:54.252Z</time>
      </trkpt>
      <trkpt lat="49.03297299519181" lon="3.9755519293248653">
        <ele>145.19</ele>
        <time>2024-01-01T10:53:56.276Z</time>
      </trkpt>
      <trkpt lat="49.0329769346863" lon="3.9755359198898077">
        <ele>145.59</ele>
        <time>2024-01-01T10:53:58.300Z</time>
      </trkpt>
      <trkpt lat="49.032981963828206" lon="3.9755209162831306">
        <ele>145.99</ele>
        <time>2024-01-01T10:54:00.325Z</time>
      </trkpt>
      <trkpt lat="49.03298498131335" lon="3.975509935989976">
        <ele>146.39</ele>
        <time>2024-01-01T10:54:02.350Z</time>
      </trkpt>
      <trkpt lat="49.033002918586135" lon="3.975499961525202">
        <ele>146.8</ele>
        <time>2024-01-01T10:54:04.376Z</time>
      </trkpt>
      <trkpt lat="49.03301197104156" lon="3.9754859637469053">
        <ele>147.19</ele>
        <time>2024-01-01T10:54:06.402Z</time>
      </trkpt>
      <trkpt lat="49.03301993384957" lon="3.9754659309983253">
        <ele>147.6</ele>
        <time>2024-01-01T10:54:08.429Z</time>
      </trkpt>
      <trkpt lat="49.03303191997111" lon="3.9754549507051706">
        <ele>147.99</ele>
        <time>2024-01-01T10:54:10.457Z</time>
      </trkpt>
      <trkpt lat="49.033045917749405" lon="3.9754379354417324">
        <ele>148.39</ele>
        <time>2024-01-01T10:54:12.486Z</time>
      </trkpt>
      <trkpt lat="49.03305396437645" lon="3.9754169806838036">
        <ele>148.78</ele>
        <time>2024-01-01T10:54:14.515Z</time>
      </trkpt>
      <trkpt lat="49.03306192718446" lon="3.975400971248746">
        <ele>149.16</ele>
        <time>2024-01-01T10:54:16.545Z</time>
      </trkpt>
      <trkpt lat="49.03307299129665" lon="3.9753919187933207">
        <ele>149.54</ele>
        <time>2024-01-01T10:54:18.576Z</time>
      </trkpt>
      <trkpt lat="49.03308195993304" lon="3.975382950156927">
        <ele>149.91</ele>
        <time>2024-01-01T10:54:20.607Z</time>
      </trkpt>
      <trkpt lat="49.033089922741055" lon="3.9753699582070112">
        <ele>150.27</ele>
        <time>2024-01-01T10:54:22.639Z</time>
      </trkpt>
      <trkpt lat="49.03309998102486" lon="3.975362917408347">
        <ele>150.63</ele>
        <time>2024-01-01T10:54:24.671Z</time>
      </trkpt>
      <trkpt lat="49.033110961318016" lon="3.975352942943573">
        <ele>150.99</ele>
        <time>2024-01-01T10:54:26.704Z</time>
      </trkpt>
      <trkpt lat="49.03312395326793" lon="3.9753409568220377">
        <ele>151.35</ele>
        <time>2024-01-01T10:54:28.738Z</time>
      </trkpt>
      <trkpt lat="49.033133927732706" lon="3.9753289707005024">
        <ele>151.69</ele>
        <time>2024-01-01T10:54:30.772Z</time>
      </trkpt>
      <trkpt lat="49.03314398601651" lon="3.9753159787505865">
        <ele>152.03</ele>
        <time>2024-01-01T10:54:32.807Z</time>
      </trkpt>
      <trkpt lat="49.03315798379481" lon="3.975299969315529">
        <ele>152.37</ele>
        <time>2024-01-01T10:54:34.843Z</time>
      </trkpt>
      <trkpt lat="49.03316393494606" lon="3.975288989022374">
        <ele>152.7</ele>
        <time>2024-01-01T10:54:36.879Z</time>
      </trkpt>
      <trkpt lat="49.033172987401485" lon="3.9752779249101877">
        <ele>153.01</ele>
        <time>2024-01-01T10:54:38.916Z</time>
      </trkpt>
      <trkpt lat="49.0331809502095" lon="3.9752659387886524">
        <ele>153.33</ele>
        <time>2024-01-01T10:54:40.953Z</time>
      </trkpt>
      <trkpt lat="49.03319092467427" lon="3.9752509351819754">
        <ele>153.63</ele>
        <time>2024-01-01T10:54:42.991Z</time>
      </trkpt>
      <trkpt lat="49.0331999771297" lon="3.9752359315752983">
        <ele>153.93</ele>
        <time>2024-01-01T10:54:45.029Z</time>
      </trkpt>
      <trkpt lat="49.03320793993771" lon="3.975221933797002">
        <ele>154.22</ele>
        <time>2024-01-01T10:54:47.068Z</time>
      </trkpt>
      <trkpt lat="49.033215986564755" lon="3.975210953503847">
        <ele>154.5</ele>
        <time>2024-01-01T10:54:49.107Z</time>
      </trkpt>
      <trkpt lat="49.03322394937277" lon="3.975198967382312">
        <ele>154.77</ele>
        <time>2024-01-01T10:54:51.147Z</time>
      </trkpt>
      <trkpt lat="49.03322998434305" lon="3.975185975432396">
        <ele>155.03</ele>
        <time>2024-01-01T10:54:53.187Z</time>
      </trkpt>
      <trkpt lat="49.033238952979445" lon="3.975170971825719">
        <ele>155.28</ele>
        <time>2024-01-01T10:54:55.228Z</time>
      </trkpt>
      <trkpt lat="49.03324892744422" lon="3.9751589857041836">
        <ele>155.52</ele>
        <time>2024-01-01T10:54:57.270Z</time>
      </trkpt>
      <trkpt lat="49.033258985728025" lon="3.9751459937542677">
        <ele>155.75</ele>
        <time>2024-01-01T10:54:59.312Z</time>
      </trkpt>
      <trkpt lat="49.0332689601928" lon="3.975131995975971">
        <ele>155.97</ele>
        <time>2024-01-01T10:55:01.355Z</time>
      </trkpt>
      <trkpt lat="49.03327499516308" lon="3.9751119632273912">
        <ele>156.19</ele>
        <time>2024-01-01T10:55:03.399Z</time>
      </trkpt>
      <trkpt lat="49.033279940485954" lon="3.975094947963953">
        <ele>156.39</ele>
        <time>2024-01-01T10:55:05.443Z</time>
      </trkpt>
      <trkpt lat="49.033287987113" lon="3.9750859793275595">
        <ele>156.58</ele>
        <time>2024-01-01T10:55:07.488Z</time>
      </trkpt>
      <trkpt lat="49.03329594992101" lon="3.975073993206024">
        <ele>156.76</ele>
        <time>2024-01-01T10:55:09.533Z</time>
      </trkpt>
      <trkpt lat="49.03330793604255" lon="3.9750599954277277">
        <ele>156.93</ele>
        <time>2024-01-01T10:55:11.579Z</time>
      </trkpt>
      <trkpt lat="49.033321933820844" lon="3.975049937143922">
        <ele>157.09</ele>
        <time>2024-01-01T10:55:13.626Z</time>
      </trkpt>
      <trkpt lat="49.03333492577076" lon="3.975033927708864">
        <ele>157.25</ele>
        <time>2024-01-01T10:55:15.673Z</time>
      </trkpt>
      <trkpt lat="49.033343978226185" lon="3.9750229474157095">
        <ele>157.39</ele>
        <time>2024-01-01T10:55:17.721Z</time>
      </trkpt>
      <trkpt lat="49.03335395269096" lon="3.9750149846076965">
        <ele>157.52</ele>
        <time>2024-01-01T10:55:19.769Z</time>
      </trkpt>
      <trkpt lat="49.033364932984114" lon="3.9750149846076965">
        <ele>157.64</ele>
        <time>2024-01-01T10:55:21.818Z</time>
      </trkpt>
      <trkpt lat="49.0333759970963" lon="3.975015990436077">
        <ele>157.75</ele>
        <time>2024-01-01T10:55:23.867Z</time>
      </trkpt>
      <trkpt lat="49.03339494019747" lon="3.9750209357589483">
        <ele>157.85</ele>
        <time>2024-01-01T10:55:25.917Z</time>
      </trkpt>
      <trkpt lat="49.033411955460906" lon="3.9750249590724707">
        <ele>157.94</ele>
        <time>2024-01-01T10:55:27.968Z</time>
      </trkpt>
      <trkpt lat="49.033428970724344" lon="3.9750319998711348">
        <ele>158.03</ele>
        <time>2024-01-01T10:55:30.020Z</time>
      </trkpt>
      <trkpt lat="49.03344196267426" lon="3.975036945194006">
        <ele>158.11</ele>
        <time>2024-01-01T10:55:32.073Z</time>
      </trkpt>
      <trkpt lat="49.03345596045256" lon="3.9750379510223866">
        <ele>158.18</ele>
        <time>2024-01-01T10:55:34.126Z</time>
      </trkpt>
      <trkpt lat="49.033471969887614" lon="3.975038956850767">
        <ele>158.25</ele>
        <time>2024-01-01T10:55:36.180Z</time>
      </trkpt>
      <trkpt lat="49.03348596766591" lon="3.9750399626791477">
        <ele>158.32</ele>
        <time>2024-01-01T10:55:38.235Z</time>
      </trkpt>
      <trkpt lat="49.03349996544421" lon="3.975036945194006">
        <ele>158.38</ele>
        <time>2024-01-01T10:55:40.290Z</time>
      </trkpt>
      <trkpt lat="49.033513963222504" lon="3.9750299882143736">
        <ele>158.44</ele>
        <time>2024-01-01T10:55:42.346Z</time>
      </trkpt>
      <trkpt lat="49.03352695517242" lon="3.9750259649008512">
        <ele>158.49</ele>
        <time>2024-01-01T10:55:44.403Z</time>
      </trkpt>
      <trkpt lat="49.033539947122335" lon="3.9750169962644577">
        <ele>158.54</ele>
        <time>2024-01-01T10:55:46.460Z</time>
      </trkpt>
      <trkpt lat="49.03355193324387" lon="3.9750019926577806">
        <ele>158.59</ele>
        <time>2024-01-01T10:55:48.518Z</time>
      </trkpt>
      <trkpt lat="49.03356199152768" lon="3.974988916888833">
        <ele>158.64</ele>
        <time>2024-01-01T10:55:50.577Z</time>
      </trkpt>
      <trkpt lat="49.03357498347759" lon="3.974975924938917">
        <ele>158.69</ele>
        <time>2024-01-01T10:55:52.636Z</time>
      </trkpt>
      <trkpt lat="49.03358596377075" lon="3.974965950474143">
        <ele>158.73</ele>
        <time>2024-01-01T10:55:54.696Z</time>
      </trkpt>
      <trkpt lat="49.033599961549044" lon="3.97496092133224">
        <ele>158.76</ele>
        <time>2024-01-01T10:55:56.757Z</time>
      </trkpt>
      <trkpt lat="49.0336109418422" lon="3.9749519526958466">
        <ele>158.8</ele>
        <time>2024-01-01T10:55:58.818Z</time>
      </trkpt>
      <trkpt lat="49.033624939620495" lon="3.9749419782310724">
        <ele>158.83</ele>
        <time>2024-01-01T10:56:00.880Z</time>
      </trkpt>
      <trkpt lat="49.0336349979043" lon="3.9749289862811565">
        <ele>158.86</ele>
        <time>2024-01-01T10:56:02.943Z</time>
      </trkpt>
      <trkpt lat="49.033645978197455" lon="3.9749169163405895">
        <ele>158.88</ele>
        <time>2024-01-01T10:56:05.006Z</time>
      </trkpt>
      <trkpt lat="49.03365695849061" lon="3.9749049302190542">
        <ele>158.91</ele>
        <time>2024-01-01T10:56:07.070Z</time>
      </trkpt>
      <trkpt lat="49.033669950440526" lon="3.9748909324407578">
        <ele>158.93</ele>
        <time>2024-01-01T10:56:09.135Z</time>
      </trkpt>
      <trkpt lat="49.03368193656206" lon="3.9748789463192225">
        <ele>158.96</ele>
        <time>2024-01-01T10:56:11.200Z</time>
      </trkpt>
      <trkpt lat="49.03369199484587" lon="3.9748679660260677">
        <ele>158.98</ele>
        <time>2024-01-01T10:56:13.266Z</time>
      </trkpt>
      <trkpt lat="49.03370196931064" lon="3.9748559799045324">
        <ele>159.0</ele>
        <time>2024-01-01T10:56:15.332Z</time>
      </trkpt>
      <trkpt lat="49.033711943775415" lon="3.9748459216207266">
        <ele>159.02</ele>
        <time>2024-01-01T10:56:17.399Z</time>
      </trkpt>
      <trkpt lat="49.03371999040246" lon="3.974834941327572">
        <ele>159.04</ele>
        <time>2024-01-01T10:56:19.466Z</time>
      </trkpt>
      <trkpt lat="49.033731976523995" lon="3.974819937720895">
        <ele>159.07</ele>
        <time>2024-01-01T10:56:21.534Z</time>
      </trkpt>
      <trkpt lat="49.03374094516039" lon="3.974803928285837">
        <ele>159.09</ele>
        <time>2024-01-01T10:56:23.603Z</time>
      </trkpt>
      <trkpt lat="49.03375091962516" lon="3.9747879188507795">
        <ele>159.11</ele>
        <time>2024-01-01T10:56:25.672Z</time>
      </trkpt>
      <trkpt lat="49.03375896625221" lon="3.9747719932347536">
        <ele>159.13</ele>
        <time>2024-01-01T10:56:27.742Z</time>
      </trkpt>
      <trkpt lat="49.033773969858885" lon="3.9747599232941866">
        <ele>159.15</ele>
        <time>2024-01-01T10:56:29.813Z</time>
      </trkpt>
      <trkpt lat="49.03378394432366" lon="3.9747419860213995">
        <ele>159.17</ele>
        <time>2024-01-01T10:56:31.885Z</time>
      </trkpt>
      <trkpt lat="49.033792996779084" lon="3.974727988243103">
        <ele>159.2</ele>
        <time>2024-01-01T10:56:33.957Z</time>
      </trkpt>
      <trkpt lat="49.03380397707224" lon="3.9747119788080454">
        <ele>159.22</ele>
        <time>2024-01-01T10:56:36.030Z</time>
      </trkpt>
      <trkpt lat="49.033815963193774" lon="3.974692951887846">
        <ele>159.25</ele>
        <time>2024-01-01T10:56:38.104Z</time>
      </trkpt>
      <trkpt lat="49.03382493183017" lon="3.9746759366244078">
        <ele>159.28</ele>
        <time>2024-01-01T10:56:40.178Z</time>
      </trkpt>
      <trkpt lat="49.0338369179517" lon="3.9746579993516207">
        <ele>159.32</ele>
        <time>2024-01-01T10:56:42.253Z</time>
      </trkpt>
      <trkpt lat="49.03384898789227" lon="3.974644923582673">
        <ele>159.36</ele>
        <time>2024-01-01T10:56:44.329Z</time>
      </trkpt>
      <trkpt lat="49.033859968185425" lon="3.974629919975996">
        <ele>159.4</ele>
        <time>2024-01-01T10:56:46.406Z</time>
      </trkpt>
      <trkpt lat="49.03387094847858" lon="3.9746159221976995">
        <ele>159.45</ele>
        <time>2024-01-01T10:56:48.483Z</time>
      </trkpt>
      <trkpt lat="49.033878995105624" lon="3.974601924419403">
        <ele>159.51</ele>
        <time>2024-01-01T10:56:50.561Z</time>
      </trkpt>
      <trkpt lat="49.03389198705554" lon="3.974588932469487">
        <ele>159.58</ele>
        <time>2024-01-01T10:56:52.640Z</time>
      </trkpt>
      <trkpt lat="49.033900955691934" lon="3.974571917206049">
        <ele>159.65</ele>
        <time>2024-01-01T10:56:54.719Z</time>
      </trkpt>
      <trkpt lat="49.03391193598509" lon="3.974555991590023">
        <ele>159.73</ele>
        <time>2024-01-01T10:56:56.799Z</time>
      </trkpt>
      <trkpt lat="49.03391897678375" lon="3.974535958841443">
        <ele>159.83</ele>
        <time>2024-01-01T10:56:58.880Z</time>
      </trkpt>
      <trkpt lat="49.033924927935004" lon="3.974515926092863">
        <ele>159.93</ele>
        <time>2024-01-01T10:57:00.961Z</time>
      </trkpt>
      <trkpt lat="49.033925933763385" lon="3.974500922486186">
        <ele>160.05</ele>
        <time>2024-01-01T10:57:03.043Z</time>
      </trkpt>
      <trkpt lat="49.03392995707691" lon="3.974479967728257">
        <ele>160.18</ele>
        <time>2024-01-01T10:57:05.125Z</time>
      </trkpt>
      <trkpt lat="49.03392995707691" lon="3.9744559954851866">
        <ele>160.32</ele>
        <time>2024-01-01T10:57:07.208Z</time>
      </trkpt>
      <trkpt lat="49.03393096290529" lon="3.974426994100213">
        <ele>160.47</ele>
        <time>2024-01-01T10:57:09.292Z</time>
      </trkpt>
      <trkpt lat="49.03393398039043" lon="3.974404949694872">
        <ele>160.63</ele>
        <time>2024-01-01T10:57:11.377Z</time>
      </trkpt>
      <trkpt lat="49.033926939591765" lon="3.974383994936943">
        <ele>160.81</ele>
        <time>2024-01-01T10:57:13.462Z</time>
      </trkpt>
      <trkpt lat="49.03391897678375" lon="3.9743649680167437">
        <ele>161.0</ele>
        <time>2024-01-01T10:57:15.548Z</time>
      </trkpt>
      <trkpt lat="49.03390891849995" lon="3.974340995773673">
        <ele>161.2</ele>
        <time>2024-01-01T10:57:17.635Z</time>
      </trkpt>
      <trkpt lat="49.03389793820679" lon="3.9743149280548096">
        <ele>161.42</ele>
        <time>2024-01-01T10:57:19.723Z</time>
      </trkpt>
      <trkpt lat="49.033881928771734" lon="3.974280981346965">
        <ele>161.65</ele>
        <time>2024-01-01T10:57:21.812Z</time>
      </trkpt>
      <trkpt lat="49.03386591933668" lon="3.9742599427700043">
        <ele>161.88</ele>
        <time>2024-01-01T10:57:23.902Z</time>
      </trkpt>
      <trkpt lat="49.03384999372065" lon="3.9742339588701725">
        <ele>162.13</ele>
        <time>2024-01-01T10:57:25.993Z</time>
      </trkpt>
      <trkpt lat="49.0338369179517" lon="3.974214931949973">
        <ele>162.39</ele>
        <time>2024-01-01T10:57:28.085Z</time>
      </trkpt>
      <trkpt lat="49.03382493183017" lon="3.9741909597069025">
        <ele>162.66</ele>
        <time>2024-01-01T10:57:30.178Z</time>
      </trkpt>
      <trkpt lat="49.03381294570863" lon="3.9741679932922125">
        <ele>162.94</ele>
        <time>2024-01-01T10:57:32.272Z</time>
      </trkpt>
      <trkpt lat="49.03380297124386" lon="3.974148966372013">
        <ele>163.23</ele>
        <time>2024-01-01T10:57:34.367Z</time>
      </trkpt>
      <trkpt lat="49.03378796763718" lon="3.974123988300562">
        <ele>163.52</ele>
        <time>2024-01-01T10:57:36.463Z</time>
      </trkpt>
      <trkpt lat="49.033774975687265" lon="3.974095992743969">
        <ele>163.83</ele>
        <time>2024-01-01T10:57:38.560Z</time>
      </trkpt>
      <trkpt lat="49.03375997208059" lon="3.9740699250251055">
        <ele>164.15</ele>
        <time>2024-01-01T10:57:40.658Z</time>
      </trkpt>
      <trkpt lat="49.03374396264553" lon="3.974040923640132">
        <ele>164.48</ele>
        <time>2024-01-01T10:57:42.757Z</time>
      </trkpt>
      <trkpt lat="49.033730970695615" lon="3.9740139339119196">
        <ele>164.81</ele>
        <time>2024-01-01T10:57:44.857Z</time>
      </trkpt>
      <trkpt lat="49.03371596708894" lon="3.9739909674972296">
        <ele>165.15</ele>
        <time>2024-01-01T10:57:46.958Z</time>
      </trkpt>
      <trkpt lat="49.03370096348226" lon="3.9739659894257784">
        <ele>165.49</ele>
        <time>2024-01-01T10:57:49.060Z</time>
      </trkpt>
      <trkpt lat="49.033688977360725" lon="3.9739429391920567">
        <ele>165.85</ele>
        <time>2024-01-01T10:57:51.163Z</time>
      </trkpt>
      <trkpt lat="49.03367699123919" lon="3.973924918100238">
        <ele>166.21</ele>
        <time>2024-01-01T10:57:53.267Z</time>
      </trkpt>
      <trkpt lat="49.033663999289274" lon="3.9739009458571672">
        <ele>166.57</ele>
        <time>2024-01-01T10:57:55.372Z</time>
      </trkpt>
      <trkpt lat="49.03365092352033" lon="3.9738769736140966">
        <ele>166.94</ele>
        <time>2024-01-01T10:57:57.478Z</time>
      </trkpt>
      <trkpt lat="49.03363692574203" lon="3.973850989714265">
        <ele>167.32</ele>
        <time>2024-01-01T10:57:59.585Z</time>
      </trkpt>
      <trkpt lat="49.03362091630697" lon="3.973822994157672">
        <ele>167.71</ele>
        <time>2024-01-01T10:58:01.693Z</time>
      </trkpt>
      <trkpt lat="49.03360792435706" lon="3.973795920610428">
        <ele>168.09</ele>
        <time>2024-01-01T10:58:03.802Z</time>
      </trkpt>
      <trkpt lat="49.03359292075038" lon="3.9737759716808796">
        <ele>168.47</ele>
        <time>2024-01-01T10:58:05.912Z</time>
      </trkpt>
      <trkpt lat="49.033581940457225" lon="3.9737459644675255">
        <ele>168.86</ele>
        <time>2024-01-01T10:58:08.023Z</time>
      </trkpt>
      <trkpt lat="49.03356995433569" lon="3.9737229980528355">
        <ele>169.25</ele>
        <time>2024-01-01T10:58:10.135Z</time>
      </trkpt>
      <trkpt lat="49.03355293907225" lon="3.9736979361623526">
        <ele>169.64</ele>
        <time>2024-01-01T10:58:12.248Z</time>
      </trkpt>
      <trkpt lat="49.03353198431432" lon="3.9736569486558437">
        <ele>170.04</ele>
        <time>2024-01-01T10:58:14.363Z</time>
      </trkpt>
      <trkpt lat="49.03352494351566" lon="3.973645968362689">
        <ele>170.42</ele>
        <time>2024-01-01T10:58:16.478Z</time>
      </trkpt>
      <trkpt lat="49.03351295739412" lon="3.9736199844628572">
        <ele>170.81</ele>
        <time>2024-01-01T10:58:18.594Z</time>
      </trkpt>
      <trkpt lat="49.03350097127259" lon="3.973589977249503">
        <ele>171.19</ele>
        <time>2024-01-01T10:58:20.711Z</time>
      </trkpt>
      <trkpt lat="49.03348898515105" lon="3.973569944500923">
        <ele>171.57</ele>
        <time>2024-01-01T10:58:22.829Z</time>
      </trkpt>
      <trkpt lat="49.03346995823085" lon="3.97354194894433">
        <ele>171.95</ele>
        <time>2024-01-01T10:58:24.948Z</time>
      </trkpt>
      <trkpt lat="49.03345998376608" lon="3.97351898252964">
        <ele>172.33</ele>
        <time>2024-01-01T10:58:27.068Z</time>
      </trkpt>
      <trkpt lat="49.0334449801594" lon="3.9734959322959185">
        <ele>172.7</ele>
        <time>2024-01-01T10:58:29.189Z</time>
      </trkpt>
      <trkpt lat="49.033430982381105" lon="3.973460979759693">
        <ele>173.07</ele>
        <time>2024-01-01T10:58:31.311Z</time>
      </trkpt>
      <trkpt lat="49.03341899625957" lon="3.973433990031481">
        <ele>173.43</ele>
        <time>2024-01-01T10:58:33.434Z</time>
      </trkpt>
      <trkpt lat="49.033407932147384" lon="3.9734129514545202">
        <ele>173.78</ele>
        <time>2024-01-01T10:58:35.558Z</time>
      </trkpt>
      <trkpt lat="49.03339393436909" lon="3.9733869675546885">
        <ele>174.12</ele>
        <time>2024-01-01T10:58:37.683Z</time>
      </trkpt>
      <trkpt lat="49.03338094241917" lon="3.9733619894832373">
        <ele>174.46</ele>
        <time>2024-01-01T10:58:39.809Z</time>
      </trkpt>
      <trkpt lat="49.033366944640875" lon="3.9733369275927544">
        <ele>174.79</ele>
        <time>2024-01-01T10:58:41.936Z</time>
      </trkpt>
      <trkpt lat="49.03335294686258" lon="3.973311949521303">
        <ele>175.12</ele>
        <time>2024-01-01T10:58:44.064Z</time>
      </trkpt>
      <trkpt lat="49.03333894908428" lon="3.9732859656214714">
        <ele>175.44</ele>
        <time>2024-01-01T10:58:46.193Z</time>
      </trkpt>
      <trkpt lat="49.03332796879113" lon="3.9732679445296526">
        <ele>175.75</ele>
        <time>2024-01-01T10:58:48.323Z</time>
      </trkpt>
      <trkpt lat="49.03331598266959" lon="3.973243972286582">
        <ele>176.06</ele>
        <time>2024-01-01T10:58:50.454Z</time>
      </trkpt>
      <trkpt lat="49.033301984891295" lon="3.9732209220528603">
        <ele>176.36</ele>
        <time>2024-01-01T10:58:52.586Z</time>
      </trkpt>
      <trkpt lat="49.03328698128462" lon="3.973198961466551">
        <ele>176.66</ele>
        <time>2024-01-01T10:58:54.719Z</time>
      </trkpt>
      <trkpt lat="49.03327499516308" lon="3.9731699600815773">
        <ele>176.94</ele>
        <time>2024-01-01T10:58:56.853Z</time>
      </trkpt>
      <trkpt lat="49.033261919394135" lon="3.973147999495268">
        <ele>177.22</ele>
        <time>2024-01-01T10:58:58.988Z</time>
      </trkpt>
      <trkpt lat="49.03324792161584" lon="3.9731259550899267">
        <ele>177.49</ele>
        <time>2024-01-01T10:59:01.124Z</time>
      </trkpt>
      <trkpt lat="49.033235935494304" lon="3.973099971190095">
        <ele>177.76</ele>
        <time>2024-01-01T10:59:03.261Z</time>
      </trkpt>
      <trkpt lat="49.03322394937277" lon="3.9730729814618826">
        <ele>178.03</ele>
        <time>2024-01-01T10:59:05.399Z</time>
      </trkpt>
      <trkpt lat="49.03321095742285" lon="3.9730459917336702">
        <ele>178.29</ele>
        <time>2024-01-01T10:59:07.538Z</time>
      </trkpt>
      <trkpt lat="49.03319897130132" lon="3.973013972863555">
        <ele>178.56</ele>
        <time>2024-01-01T10:59:09.678Z</time>
      </trkpt>
      <trkpt lat="49.03318698517978" lon="3.972985977306962">
        <ele>178.82</ele>
        <time>2024-01-01T10:59:11.819Z</time>
      </trkpt>
      <trkpt lat="49.033173993229866" lon="3.9729599934071302">
        <ele>179.08</ele>
        <time>2024-01-01T10:59:13.961Z</time>
      </trkpt>
      <trkpt lat="49.03315999545157" lon="3.9729319978505373">
        <ele>179.34</ele>
        <time>2024-01-01T10:59:16.104Z</time>
      </trkpt>
      <trkpt lat="49.033150942996144" lon="3.9729069359600544">
        <ele>179.61</ele>
        <time>2024-01-01T10:59:18.248Z</time>
      </trkpt>
      <trkpt lat="49.03314096853137" lon="3.9728859812021255">
        <ele>179.87</ele>
        <time>2024-01-01T10:59:20.393Z</time>
      </trkpt>
      <trkpt lat="49.03313199989498" lon="3.9728529565036297">
        <ele>180.14</ele>
        <time>2024-01-01T10:59:22.539Z</time>
      </trkpt>
      <trkpt lat="49.03312294743955" lon="3.972823955118656">
        <ele>180.42</ele>
        <time>2024-01-01T10:59:24.686Z</time>
      </trkpt>
      <trkpt lat="49.03311397880316" lon="3.9727979712188244">
        <ele>180.69</ele>
        <time>2024-01-01T10:59:26.834Z</time>
      </trkpt>
      <trkpt lat="49.03310299851" lon="3.9727629348635674">
        <ele>180.97</ele>
        <time>2024-01-01T10:59:28.983Z</time>
      </trkpt>
      <trkpt lat="49.03309495188296" lon="3.9727399684488773">
        <ele>181.24</ele>
        <time>2024-01-01T10:59:31.133Z</time>
      </trkpt>
      <trkpt lat="49.03308195993304" lon="3.9727139845490456">
        <ele>181.52</ele>
        <time>2024-01-01T10:59:33.284Z</time>
      </trkpt>
      <trkpt lat="49.03307097963989" lon="3.9726819656789303">
        <ele>181.81</ele>
        <time>2024-01-01T10:59:35.436Z</time>
      </trkpt>
      <trkpt lat="49.03306293301284" lon="3.9726559817790985">
        <ele>182.09</ele>
        <time>2024-01-01T10:59:37.588Z</time>
      </trkpt>
      <trkpt lat="49.03305195271969" lon="3.972624968737364">
        <ele>182.37</ele>
        <time>2024-01-01T10:59:39.742Z</time>
      </trkpt>
      <trkpt lat="49.033041978254914" lon="3.9725929498672485">
        <ele>182.65</ele>
        <time>2024-01-01T10:59:41.897Z</time>
      </trkpt>
      <trkpt lat="49.03302999213338" lon="3.9725649543106556">
        <ele>182.94</ele>
        <time>2024-01-01T10:59:44.053Z</time>
      </trkpt>
      <trkpt lat="49.03301792219281" lon="3.972535952925682">
        <ele>183.22</ele>
        <time>2024-01-01T10:59:46.210Z</time>
      </trkpt>
      <trkpt lat="49.03300794772804" lon="3.9725119806826115">
        <ele>183.5</ele>
        <time>2024-01-01T10:59:48.368Z</time>
      </trkpt>
      <trkpt lat="49.0329959616065" lon="3.972484990954399">
        <ele>183.77</ele>
        <time>2024-01-01T10:59:50.527Z</time>
      </trkpt>
      <trkpt lat="49.03298699297011" lon="3.9724519662559032">
        <ele>184.05</ele>
        <time>2024-01-01T10:59:52.687Z</time>
      </trkpt>
      <trkpt lat="49.032978946343064" lon="3.9724289998412132">
        <ele>184.32</ele>
        <time>2024-01-01T10:59:54.848Z</time>
      </trkpt>
      <trkpt lat="49.03296696022153" lon="3.972401926293969">
        <ele>184.59</ele>
        <time>2024-01-01T10:59:57.010Z</time>
      </trkpt>
      <trkpt lat="49.032955979928374" lon="3.972371919080615">
        <ele>184.86</ele>
        <time>2024-01-01T10:59:59.173Z</time>
      </trkpt>
      <trkpt lat="49.03294499963522" lon="3.972346941009164">
        <ele>185.11</ele>
        <time>2024-01-01T11:00:01.336Z</time>
      </trkpt>
      <trkpt lat="49.03293292969465" lon="3.972318945452571">
        <ele>185.36</ele>
        <time>2024-01-01T11:00:03.501Z</time>
      </trkpt>
      <trkpt lat="49.03292094357312" lon="3.9722839929163456">
        <ele>185.61</ele>
        <time>2024-01-01T11:00:05.667Z</time>
      </trkpt>
      <trkpt lat="49.03290895745158" lon="3.9722539857029915">
        <ele>185.85</ele>
        <time>2024-01-01T11:00:07.834Z</time>
      </trkpt>
      <trkpt lat="49.032893953844905" lon="3.9722209610044956">
        <ele>186.09</ele>
        <time>2024-01-01T11:00:10.002Z</time>
      </trkpt>
      <trkpt lat="49.03288196772337" lon="3.9721879363059998">
        <ele>186.32</ele>
        <time>2024-01-01T11:00:12.171Z</time>
      </trkpt>
      <trkpt lat="49.032869981601834" lon="3.972161952406168">
        <ele>186.54</ele>
        <time>2024-01-01T11:00:14.341Z</time>
      </trkpt>
      <trkpt lat="49.03285497799516" lon="3.9721299335360527">
        <ele>186.76</ele>
        <time>2024-01-01T11:00:16.512Z</time>
      </trkpt>
      <trkpt lat="49.032852966338396" lon="3.972098920494318">
        <ele>186.97</ele>
        <time>2024-01-01T11:00:18.684Z</time>
      </trkpt>
      <trkpt lat="49.03283796273172" lon="3.9720729365944862">
        <ele>187.17</ele>
        <time>2024-01-01T11:00:20.857Z</time>
      </trkpt>
      <trkpt lat="49.032825976610184" lon="3.972040917724371">
        <ele>187.36</ele>
        <time>2024-01-01T11:00:23.032Z</time>
      </trkpt>
      <trkpt lat="49.03281399048865" lon="3.972014933824539">
        <ele>187.55</ele>
        <time>2024-01-01T11:00:25.208Z</time>
      </trkpt>
      <trkpt lat="49.03279999271035" lon="3.971987944096327">
        <ele>187.72</ele>
        <time>2024-01-01T11:00:27.385Z</time>
      </trkpt>
      <trkpt lat="49.032787922769785" lon="3.971953997388482">
        <ele>187.89</ele>
        <time>2024-01-01T11:00:29.563Z</time>
      </trkpt>
      <trkpt lat="49.03277694247663" lon="3.971928935497999">
        <ele>188.05</ele>
        <time>2024-01-01T11:00:31.742Z</time>
      </trkpt>
      <trkpt lat="49.032765962183475" lon="3.9718999341130257">
        <ele>188.2</ele>
        <time>2024-01-01T11:00:33.922Z</time>
      </trkpt>
      <trkpt lat="49.03275498189032" lon="3.9718699268996716">
        <ele>188.33</ele>
        <time>2024-01-01T11:00:36.103Z</time>
      </trkpt>
      <trkpt lat="49.032741989940405" lon="3.9718419313430786">
        <ele>188.46</ele>
        <time>2024-01-01T11:00:38.285Z</time>
      </trkpt>
      <trkpt lat="49.03272991999984" lon="3.9718119241297245">
        <ele>188.58</ele>
        <time>2024-01-01T11:00:40.468Z</time>
      </trkpt>
      <trkpt lat="49.032719945535064" lon="3.9717819169163704">
        <ele>188.68</ele>
        <time>2024-01-01T11:00:42.652Z</time>
      </trkpt>
      <trkpt lat="49.03270594775677" lon="3.971749981865287">
        <ele>188.78</ele>
        <time>2024-01-01T11:00:44.837Z</time>
      </trkpt>
      <trkpt lat="49.03269194997847" lon="3.971716957166791">
        <ele>188.87</ele>
        <time>2024-01-01T11:00:47.023Z</time>
      </trkpt>
      <trkpt lat="49.032680969685316" lon="3.971690973266959">
        <ele>188.94</ele>
        <time>2024-01-01T11:00:49.210Z</time>
      </trkpt>
      <trkpt lat="49.03266395442188" lon="3.9716599602252245">
        <ele>189.01</ele>
        <time>2024-01-01T11:00:51.398Z</time>
      </trkpt>
      <trkpt lat="49.03265196830034" lon="3.971625929698348">
        <ele>189.07</ele>
        <time>2024-01-01T11:00:53.588Z</time>
      </trkpt>
      <trkpt lat="49.03264199383557" lon="3.971595922484994">
        <ele>189.11</ele>
        <time>2024-01-01T11:00:55.779Z</time>
      </trkpt>
      <trkpt lat="49.03263092972338" lon="3.971567926928401">
        <ele>189.14</ele>
        <time>2024-01-01T11:00:57.971Z</time>
      </trkpt>
      <trkpt lat="49.03261994943023" lon="3.9715359918773174">
        <ele>189.16</ele>
        <time>2024-01-01T11:01:00.164Z</time>
      </trkpt>
      <trkpt lat="49.03260595165193" lon="3.9715089183300734">
        <ele>189.17</ele>
        <time>2024-01-01T11:01:02.358Z</time>
      </trkpt>
      <trkpt lat="49.032594971358776" lon="3.9714809227734804">
        <ele>189.18</ele>
        <time>2024-01-01T11:01:04.553Z</time>
      </trkpt>
      <trkpt lat="49.03257896192372" lon="3.9714559447020292">
        <ele>189.18</ele>
        <time>2024-01-01T11:01:06.749Z</time>
      </trkpt>
      <trkpt lat="49.0325609408319" lon="3.9714419469237328">
        <ele>189.17</ele>
        <time>2024-01-01T11:01:08.946Z</time>
      </trkpt>
      <trkpt lat="49.03254099190235" lon="3.971428954973817">
        <ele>189.16</ele>
        <time>2024-01-01T11:01:11.144Z</time>
      </trkpt>
      <trkpt lat="49.03251995332539" lon="3.971423925831914">
        <ele>189.14</ele>
        <time>2024-01-01T11:01:13.343Z</time>
      </trkpt>
      <trkpt lat="49.03249899856746" lon="3.9714279491454363">
        <ele>189.11</ele>
        <time>2024-01-01T11:01:15.543Z</time>
      </trkpt>
      <trkpt lat="49.03247594833374" lon="3.971425937488675">
        <ele>189.08</ele>
        <time>2024-01-01T11:01:17.744Z</time>
      </trkpt>
      <trkpt lat="49.03245298191905" lon="3.9714399352669716">
        <ele>189.04</ele>
        <time>2024-01-01T11:01:19.946Z</time>
      </trkpt>
      <trkpt lat="49.03243395499885" lon="3.9714429527521133">
        <ele>189.01</ele>
        <time>2024-01-01T11:01:22.149Z</time>
      </trkpt>
      <trkpt lat="49.03241199441254" lon="3.971448987722397">
        <ele>188.97</ele>
        <time>2024-01-01T11:01:24.353Z</time>
      </trkpt>
      <trkpt lat="49.0323849208653" lon="3.971451921388507">
        <ele>188.94</ele>
        <time>2024-01-01T11:01:26.558Z</time>
      </trkpt>
      <trkpt lat="49.03236094862223" lon="3.971453933045268">
        <ele>188.91</ele>
        <time>2024-01-01T11:01:28.764Z</time>
      </trkpt>
      <trkpt lat="49.0323399938643" lon="3.971468936651945">
        <ele>188.88</ele>
        <time>2024-01-01T11:01:30.972Z</time>
      </trkpt>
      <trkpt lat="49.032313926145434" lon="3.97147698327899">
        <ele>188.86</ele>
        <time>2024-01-01T11:01:33.181Z</time>
      </trkpt>
      <trkpt lat="49.03228894807398" lon="3.9714859519153833">
        <ele>188.84</ele>
        <time>2024-01-01T11:01:35.391Z</time>
      </trkpt>
      <trkpt lat="49.03226497583091" lon="3.971496932208538">
        <ele>188.82</ele>
        <time>2024-01-01T11:01:37.602Z</time>
      </trkpt>
      <trkpt lat="49.03223698027432" lon="3.9715029671788216">
        <ele>188.82</ele>
        <time>2024-01-01T11:01:39.814Z</time>
      </trkpt>
      <trkpt lat="49.03221292421222" lon="3.9715109299868345">
        <ele>188.82</ele>
        <time>2024-01-01T11:01:42.028Z</time>
      </trkpt>
      <trkpt lat="49.03218895196915" lon="3.971516964957118">
        <ele>188.84</ele>
        <time>2024-01-01T11:01:44.243Z</time>
      </trkpt>
      <trkpt lat="49.032161962240934" lon="3.9715179707854986">
        <ele>188.87</ele>
        <time>2024-01-01T11:01:46.459Z</time>
      </trkpt>
      <trkpt lat="49.032138995826244" lon="3.9715259335935116">
        <ele>188.91</ele>
        <time>2024-01-01T11:01:48.676Z</time>
      </trkpt>
      <trkpt lat="49.032111922279" lon="3.9715339802205563">
        <ele>188.97</ele>
        <time>2024-01-01T11:01:50.894Z</time>
      </trkpt>
      <trkpt lat="49.03208795003593" lon="3.9715389255434275">
        <ele>189.04</ele>
        <time>2024-01-01T11:01:53.114Z</time>
      </trkpt>
      <trkpt lat="49.03206297196448" lon="3.97154294885695">
        <ele>189.14</ele>
        <time>2024-01-01T11:01:55.335Z</time>
      </trkpt>
      <trkpt lat="49.032035982236266" lon="3.971541943028569">
        <ele>189.25</ele>
        <time>2024-01-01T11:01:57.557Z</time>
      </trkpt>
      <trkpt lat="49.032008992508054" lon="3.9715409372001886">
        <ele>189.39</ele>
        <time>2024-01-01T11:01:59.780Z</time>
      </trkpt>
      <trkpt lat="49.03198694810271" lon="3.971537919715047">
        <ele>189.53</ele>
        <time>2024-01-01T11:02:02.004Z</time>
      </trkpt>
      <trkpt lat="49.03196197003126" lon="3.971531968563795">
        <ele>189.7</ele>
        <time>2024-01-01T11:02:04.229Z</time>
      </trkpt>
      <trkpt lat="49.03193992562592" lon="3.9715239219367504">
        <ele>189.88</ele>
        <time>2024-01-01T11:02:06.455Z</time>
      </trkpt>
      <trkpt lat="49.03191695921123" lon="3.971514953300357">
        <ele>190.08</ele>
        <time>2024-01-01T11:02:08.683Z</time>
      </trkpt>
      <trkpt lat="49.03189592063427" lon="3.971503973007202">
        <ele>190.3</ele>
        <time>2024-01-01T11:02:10.912Z</time>
      </trkpt>
      <trkpt lat="49.0318769775331" lon="3.971493998542428">
        <ele>190.52</ele>
        <time>2024-01-01T11:02:13.142Z</time>
      </trkpt>
      <trkpt lat="49.03186499141157" lon="3.9714799169451">
        <ele>190.76</ele>
        <time>2024-01-01T11:02:15.372Z</time>
      </trkpt>
      <trkpt lat="49.03185392729938" lon="3.971466924995184">
        <ele>191.02</ele>
        <time>2024-01-01T11:02:17.603Z</time>
      </trkpt>
      <trkpt lat="49.03186499141157" lon="3.971445970237255">
        <ele>191.28</ele>
        <time>2024-01-01T11:02:19.835Z</time>
      </trkpt>
      <trkpt lat="49.03186993673444" lon="3.9714189805090427">
        <ele>191.55</ele>
        <time>2024-01-01T11:02:22.068Z</time>
      </trkpt>
      <trkpt lat="49.03187798336148" lon="3.9713869616389275">
        <ele>191.84</ele>
        <time>2024-01-01T11:02:24.302Z</time>
      </trkpt>
      <trkpt lat="49.03188896365464" lon="3.9713539369404316">
        <ele>192.13</ele>
        <time>2024-01-01T11:02:26.537Z</time>
      </trkpt>
      <trkpt lat="49.03189994394779" lon="3.9713189844042063">
        <ele>192.43</ele>
        <time>2024-01-01T11:02:28.773Z</time>
      </trkpt>
      <trkpt lat="49.03191494755447" lon="3.9712749794125557">
        <ele>192.75</ele>
        <time>2024-01-01T11:02:31.011Z</time>
      </trkpt>
      <trkpt lat="49.031925927847624" lon="3.9712429605424404">
        <ele>193.07</ele>
        <time>2024-01-01T11:02:33.250Z</time>
      </trkpt>
      <trkpt lat="49.031927939504385" lon="3.971206918358803">
        <ele>193.4</ele>
        <time>2024-01-01T11:02:35.490Z</time>
      </trkpt>
      <trkpt lat="49.03193095698953" lon="3.971167942509055">
        <ele>193.74</ele>
        <time>2024-01-01T11:02:37.731Z</time>
      </trkpt>
      <trkpt lat="49.03193095698953" lon="3.9711309783160686">
        <ele>194.07</ele>
        <time>2024-01-01T11:02:39.973Z</time>
      </trkpt>
      <trkpt lat="49.031926933676004" lon="3.971094936132431">
        <ele>194.4</ele>
        <time>2024-01-01T11:02:42.216Z</time>
      </trkpt>
      <trkpt lat="49.031922994181514" lon="3.971053948625922">
        <ele>194.72</ele>
        <time>2024-01-01T11:02:44.460Z</time>
      </trkpt>
      <trkpt lat="49.03192391619086" lon="3.971018996089697">
        <ele>195.03</ele>
        <time>2024-01-01T11:02:46.706Z</time>
      </trkpt>
      <trkpt lat="49.03193891979754" lon="3.9709929283708334">
        <ele>195.31</ele>
        <time>2024-01-01T11:02:48.953Z</time>
      </trkpt>
      <trkpt lat="49.03195694088936" lon="3.970972979441285">
        <ele>195.58</ele>
        <time>2024-01-01T11:02:51.201Z</time>
      </trkpt>
      <trkpt lat="49.03197596780956" lon="3.9709589816629887">
        <ele>195.83</ele>
        <time>2024-01-01T11:02:53.450Z</time>
      </trkpt>
      <trkpt lat="49.03199692256749" lon="3.9709499292075634">
        <ele>196.07</ele>
        <time>2024-01-01T11:02:55.700Z</time>
      </trkpt>
      <trkpt lat="49.03201796114445" lon="3.9709469955414534">
        <ele>196.29</ele>
        <time>2024-01-01T11:02:57.951Z</time>
      </trkpt>
      <trkpt lat="49.03204394504428" lon="3.970944983884692">
        <ele>196.49</ele>
        <time>2024-01-01T11:03:00.203Z</time>
      </trkpt>
      <trkpt lat="49.032066995278" lon="3.970948923379183">
        <ele>196.68</ele>
        <time>2024-01-01T11:03:02.456Z</time>
      </trkpt>
      <trkpt lat="49.03208996169269" lon="3.970950935035944">
        <ele>196.85</ele>
        <time>2024-01-01T11:03:04.710Z</time>
      </trkpt>
      <trkpt lat="49.03211091645062" lon="3.9709479175508022">
        <ele>197.01</ele>
        <time>2024-01-01T11:03:06.965Z</time>
      </trkpt>
      <trkpt lat="49.03213296085596" lon="3.9709389489144087">
        <ele>197.17</ele>
        <time>2024-01-01T11:03:09.221Z</time>
      </trkpt>
      <trkpt lat="49.03215592727065" lon="3.970927968621254">
        <ele>197.33</ele>
        <time>2024-01-01T11:03:11.478Z</time>
      </trkpt>
      <trkpt lat="49.032180989161134" lon="3.970907935872674">
        <ele>197.48</ele>
        <time>2024-01-01T11:03:13.737Z</time>
      </trkpt>
      <trkpt lat="49.0321999322623" lon="3.9708909206092358">
        <ele>197.62</ele>
        <time>2024-01-01T11:03:15.997Z</time>
      </trkpt>
      <trkpt lat="49.03221795335412" lon="3.9708679541945457">
        <ele>197.76</ele>
        <time>2024-01-01T11:03:18.258Z</time>
      </trkpt>
      <trkpt lat="49.03223195113242" lon="3.9708429761230946">
        <ele>197.9</ele>
        <time>2024-01-01T11:03:20.520Z</time>
      </trkpt>
      <trkpt lat="49.03223999775946" lon="3.970821937546134">
        <ele>198.02</ele>
        <time>2024-01-01T11:03:22.782Z</time>
      </trkpt>
      <trkpt lat="49.03224192559719" lon="3.9707929361611605">
        <ele>198.14</ele>
        <time>2024-01-01T11:03:25.045Z</time>
      </trkpt>
      <trkpt lat="49.032247960567474" lon="3.970765946432948">
        <ele>198.24</ele>
        <time>2024-01-01T11:03:27.309Z</time>
      </trkpt>
      <trkpt lat="49.03225399553776" lon="3.9707369450479746">
        <ele>198.33</ele>
        <time>2024-01-01T11:03:29.574Z</time>
      </trkpt>
      <trkpt lat="49.032250978052616" lon="3.9706969633698463">
        <ele>198.43</ele>
        <time>2024-01-01T11:03:31.840Z</time>
      </trkpt>
      <trkpt lat="49.03225399553776" lon="3.97065999917686">
        <ele>198.52</ele>
        <time>2024-01-01T11:03:34.107Z</time>
      </trkpt>
      <trkpt lat="49.03225994668901" lon="3.9706259686499834">
        <ele>198.6</ele>
        <time>2024-01-01T11:03:36.376Z</time>
      </trkpt>
      <trkpt lat="49.032266987487674" lon="3.9705909322947264">
        <ele>198.66</ele>
        <time>2024-01-01T11:03:38.646Z</time>
      </trkpt>
      <trkpt lat="49.032273944467306" lon="3.9705549739301205">
        <ele>198.69</ele>
        <time>2024-01-01T11:03:40.917Z</time>
      </trkpt>
      <trkpt lat="49.03228098526597" lon="3.9705249667167664">
        <ele>198.7</ele>
        <time>2024-01-01T11:03:43.189Z</time>
      </trkpt>
      <trkpt lat="49.032291965559125" lon="3.9704889245331287">
        <ele>198.69</ele>
        <time>2024-01-01T11:03:45.462Z</time>
      </trkpt>
      <trkpt lat="49.03230093419552" lon="3.9704559836536646">
        <ele>198.66</ele>
        <time>2024-01-01T11:03:47.736Z</time>
      </trkpt>
      <trkpt lat="49.032313926145434" lon="3.970406949520111">
        <ele>198.61</ele>
        <time>2024-01-01T11:03:50.012Z</time>
      </trkpt>
      <trkpt lat="49.03231794945896" lon="3.970389934256673">
        <ele>198.54</ele>
        <time>2024-01-01T11:03:52.288Z</time>
      </trkpt>
      <trkpt lat="49.03232892975211" lon="3.970363950356841">
        <ele>198.44</ele>
        <time>2024-01-01T11:03:54.565Z</time>
      </trkpt>
      <trkpt lat="49.0323399938643" lon="3.970335954800248">
        <ele>198.33</ele>
        <time>2024-01-01T11:03:56.843Z</time>
      </trkpt>
      <trkpt lat="49.03234695084393" lon="3.97029597312212">
        <ele>198.22</ele>
        <time>2024-01-01T11:03:59.123Z</time>
      </trkpt>
      <trkpt lat="49.032355919480324" lon="3.970257919281721">
        <ele>198.09</ele>
        <time>2024-01-01T11:04:01.404Z</time>
      </trkpt>
      <trkpt lat="49.032359942793846" lon="3.9702169317752123">
        <ele>197.94</ele>
        <time>2024-01-01T11:04:03.686Z</time>
      </trkpt>
      <trkpt lat="49.03236497193575" lon="3.9701809734106064">
        <ele>197.77</ele>
        <time>2024-01-01T11:04:05.969Z</time>
      </trkpt>
      <trkpt lat="49.03236698359251" lon="3.970138980075717">
        <ele>197.59</ele>
        <time>2024-01-01T11:04:08.253Z</time>
      </trkpt>
      <trkpt lat="49.03236991725862" lon="3.9700969867408276">
        <ele>197.38</ele>
        <time>2024-01-01T11:04:10.539Z</time>
      </trkpt>
      <trkpt lat="49.032376958057284" lon="3.970057927072048">
        <ele>197.14</ele>
        <time>2024-01-01T11:04:12.826Z</time>
      </trkpt>
      <trkpt lat="49.03238198719919" lon="3.970011994242668">
        <ele>196.89</ele>
        <time>2024-01-01T11:04:15.114Z</time>
      </trkpt>
      <trkpt lat="49.03238894417882" lon="3.969961954280734">
        <ele>196.62</ele>
        <time>2024-01-01T11:04:17.404Z</time>
      </trkpt>
      <trkpt lat="49.0324039477855" lon="3.969923984259367">
        <ele>196.32</ele>
        <time>2024-01-01T11:04:19.695Z</time>
      </trkpt>
      <trkpt lat="49.03241794556379" lon="3.9698879420757294">
        <ele>196.02</ele>
        <time>2024-01-01T11:04:21.988Z</time>
      </trkpt>
      <trkpt lat="49.03243496082723" lon="3.9698519837111235">
        <ele>195.69</ele>
        <time>2024-01-01T11:04:24.282Z</time>
      </trkpt>
      <trkpt lat="49.03245097026229" lon="3.969817953184247">
        <ele>195.37</ele>
        <time>2024-01-01T11:04:26.577Z</time>
      </trkpt>
      <trkpt lat="49.032464968040586" lon="3.969784928485751">
        <ele>195.04</ele>
        <time>2024-01-01T11:04:28.874Z</time>
      </trkpt>
      <trkpt lat="49.03247896581888" lon="3.9697509817779064">
        <ele>194.71</ele>
        <time>2024-01-01T11:04:31.172Z</time>
      </trkpt>
      <trkpt lat="49.032484916970134" lon="3.9697249978780746">
        <ele>194.39</ele>
        <time>2024-01-01T11:04:33.471Z</time>
      </trkpt>
      <trkpt lat="49.032486928626895" lon="3.9696929790079594">
        <ele>194.07</ele>
        <time>2024-01-01T11:04:35.771Z</time>
      </trkpt>
      <trkpt lat="49.03249396942556" lon="3.9696519915014505">
        <ele>193.76</ele>
        <time>2024-01-01T11:04:38.072Z</time>
      </trkpt>
      <trkpt lat="49.03249899856746" lon="3.969604969024658">
        <ele>193.45</ele>
        <time>2024-01-01T11:04:40.374Z</time>
      </trkpt>
      <trkpt lat="49.03249992057681" lon="3.96956498734653">
        <ele>193.16</ele>
        <time>2024-01-01T11:04:42.678Z</time>
      </trkpt>
      <trkpt lat="49.032506961375475" lon="3.9694989379495382">
        <ele>192.85</ele>
        <time>2024-01-01T11:04:44.984Z</time>
      </trkpt>
      <trkpt lat="49.03250997886062" lon="3.969473959878087">
        <ele>192.57</ele>
        <time>2024-01-01T11:04:47.290Z</time>
      </trkpt>
      <trkpt lat="49.03251299634576" lon="3.9694279432296753">
        <ele>192.31</ele>
        <time>2024-01-01T11:04:49.598Z</time>
      </trkpt>
      <trkpt lat="49.03251794166863" lon="3.9693869557231665">
        <ele>192.07</ele>
        <time>2024-01-01T11:04:51.907Z</time>
      </trkpt>
      <trkpt lat="49.03252196498215" lon="3.969344962388277">
        <ele>191.86</ele>
        <time>2024-01-01T11:04:54.217Z</time>
      </trkpt>
      <trkpt lat="49.03252095915377" lon="3.9693039748817682">
        <ele>191.68</ele>
        <time>2024-01-01T11:04:56.529Z</time>
      </trkpt>
      <trkpt lat="49.032524982467294" lon="3.9692659210413694">
        <ele>191.5</ele>
        <time>2024-01-01T11:04:58.842Z</time>
      </trkpt>
      <trkpt lat="49.032525988295674" lon="3.9692119415849447">
        <ele>191.35</ele>
        <time>2024-01-01T11:05:01.157Z</time>
      </trkpt>
      <trkpt lat="49.03252397663891" lon="3.9691609796136618">
        <ele>191.24</ele>
        <time>2024-01-01T11:05:03.473Z</time>
      </trkpt>
      <trkpt lat="49.03252095915377" lon="3.969119992107153">
        <ele>191.17</ele>
        <time>2024-01-01T11:05:05.790Z</time>
      </trkpt>
      <trkpt lat="49.032507967203856" lon="3.969076992943883">
        <ele>191.14</ele>
        <time>2024-01-01T11:05:08.109Z</time>
      </trkpt>
      <trkpt lat="49.032488940283656" lon="3.9690529368817806">
        <ele>191.16</ele>
        <time>2024-01-01T11:05:10.429Z</time>
      </trkpt>
      <trkpt lat="49.03246697969735" lon="3.9690359216183424">
        <ele>191.21</ele>
        <time>2024-01-01T11:05:12.750Z</time>
      </trkpt>
      <trkpt lat="49.032441917806864" lon="3.9690209180116653">
        <ele>191.31</ele>
        <time>2024-01-01T11:05:15.072Z</time>
      </trkpt>
      <trkpt lat="49.03241693973541" lon="3.969010943546891">
        <ele>191.43</ele>
        <time>2024-01-01T11:05:17.396Z</time>
      </trkpt>
      <trkpt lat="49.032396990805864" lon="3.9690049923956394">
        <ele>191.58</ele>
        <time>2024-01-01T11:05:19.721Z</time>
      </trkpt>
      <trkpt lat="49.032378969714046" lon="3.969010943546891">
        <ele>191.76</ele>
        <time>2024-01-01T11:05:22.046Z</time>
      </trkpt>
      <trkpt lat="49.03236497193575" lon="3.9690169785171747">
        <ele>191.97</ele>
        <time>2024-01-01T11:05:24.372Z</time>
      </trkpt>
      <trkpt lat="49.032353991642594" lon="3.9690329879522324">
        <ele>192.2</ele>
        <time>2024-01-01T11:05:26.699Z</time>
      </trkpt>
      <trkpt lat="49.03234594501555" lon="3.969056960195303">
        <ele>192.46</ele>
        <time>2024-01-01T11:05:29.027Z</time>
      </trkpt>
      <trkpt lat="49.03234493918717" lon="3.969076992943883">
        <ele>192.72</ele>
        <time>2024-01-01T11:05:31.355Z</time>
      </trkpt>
      <trkpt lat="49.03233898803592" lon="3.9690939243882895">
        <ele>193.01</ele>
        <time>2024-01-01T11:05:33.684Z</time>
      </trkpt>
      <trkpt lat="49.03232892975211" lon="3.9691069163382053">
        <ele>193.32</ele>
        <time>2024-01-01T11:05:36.013Z</time>
      </trkpt>
      <trkpt lat="49.03231996111572" lon="3.969119992107153">
        <ele>193.64</ele>
        <time>2024-01-01T11:05:38.343Z</time>
      </trkpt>
      <trkpt lat="49.032316943630576" lon="3.9691289607435465">
        <ele>193.97</ele>
        <time>2024-01-01T11:05:40.673Z</time>
      </trkpt>
      <trkpt lat="49.032313926145434" lon="3.96913792937994">
        <ele>194.3</ele>
        <time>2024-01-01T11:05:43.004Z</time>
      </trkpt>
      <trkpt lat="49.03230294585228" lon="3.969147987663746">
        <ele>194.66</ele>
        <time>2024-01-01T11:05:45.335Z</time>
      </trkpt>
      <trkpt lat="49.03229498304427" lon="3.96915796212852">
        <ele>195.02</ele>
        <time>2024-01-01T11:05:47.667Z</time>
      </trkpt>
      <trkpt lat="49.03228593058884" lon="3.9691669307649136">
        <ele>195.39</ele>
        <time>2024-01-01T11:05:49.999Z</time>
      </trkpt>
      <trkpt lat="49.03227796778083" lon="3.969172965735197">
        <ele>195.76</ele>
        <time>2024-01-01T11:05:52.332Z</time>
      </trkpt>
      <trkpt lat="49.032272938638926" lon="3.9691779948771">
        <ele>196.14</ele>
        <time>2024-01-01T11:05:54.665Z</time>
      </trkpt>
      <trkpt lat="49.03226296417415" lon="3.9691889751702547">
        <ele>196.52</ele>
        <time>2024-01-01T11:05:56.998Z</time>
      </trkpt>
      <trkpt lat="49.03225692920387" lon="3.9691979438066483">
        <ele>196.9</ele>
        <time>2024-01-01T11:05:59.332Z</time>
      </trkpt>
      <trkpt lat="49.032250978052616" lon="3.969205990433693">
        <ele>197.29</ele>
        <time>2024-01-01T11:06:01.666Z</time>
      </trkpt>
      <trkpt lat="49.03224594891071" lon="3.969215964898467">
        <ele>197.67</ele>
        <time>2024-01-01T11:06:04.001Z</time>
      </trkpt>
      <trkpt lat="49.03224091976881" lon="3.969225939363241">
        <ele>198.06</ele>
        <time>2024-01-01T11:06:06.336Z</time>
      </trkpt>
      <trkpt lat="49.03224091976881" lon="3.969236919656396">
        <ele>198.44</ele>
        <time>2024-01-01T11:06:08.671Z</time>
      </trkpt>
      <trkpt lat="49.03223597444594" lon="3.9692499954253435">
        <ele>198.83</ele>
        <time>2024-01-01T11:06:11.007Z</time>
      </trkpt>
      <trkpt lat="49.032227927818894" lon="3.9692659210413694">
        <ele>199.22</ele>
        <time>2024-01-01T11:06:13.343Z</time>
      </trkpt>
      <trkpt lat="49.0322189591825" lon="3.969273967668414">
        <ele>199.61</ele>
        <time>2024-01-01T11:06:15.680Z</time>
      </trkpt>
      <trkpt lat="49.032206973060966" lon="3.9692809246480465">
        <ele>200.0</ele>
        <time>2024-01-01T11:06:18.018Z</time>
      </trkpt>
      <trkpt lat="49.032187946140766" lon="3.9692749734967947">
        <ele>200.39</ele>
        <time>2024-01-01T11:06:20.356Z</time>
      </trkpt>
      <trkpt lat="49.03217596001923" lon="3.969253934919834">
        <ele>200.76</ele>
        <time>2024-01-01T11:06:22.695Z</time>
      </trkpt>
      <trkpt lat="49.03215995058417" lon="3.9692249335348606">
        <ele>201.13</ele>
        <time>2024-01-01T11:06:25.035Z</time>
      </trkpt>
      <trkpt lat="49.032143941149116" lon="3.9691979438066483">
        <ele>201.5</ele>
        <time>2024-01-01T11:06:27.377Z</time>
      </trkpt>
      <trkpt lat="49.03212399221957" lon="3.969178916886449">
        <ele>201.87</ele>
        <time>2024-01-01T11:06:29.720Z</time>
      </trkpt>
      <trkpt lat="49.032101947814226" lon="3.9691669307649136">
        <ele>202.24</ele>
        <time>2024-01-01T11:06:32.064Z</time>
      </trkpt>
      <trkpt lat="49.032078981399536" lon="3.969165924936533">
        <ele>202.61</ele>
        <time>2024-01-01T11:06:34.409Z</time>
      </trkpt>
      <trkpt lat="49.032055931165814" lon="3.9691719599068165">
        <ele>202.97</ele>
        <time>2024-01-01T11:06:36.755Z</time>
      </trkpt>
      <trkpt lat="49.032033970579505" lon="3.9691849518567324">
        <ele>203.32</ele>
        <time>2024-01-01T11:06:39.102Z</time>
      </trkpt>
      <trkpt lat="49.032011926174164" lon="3.9691949263215065">
        <ele>203.66</ele>
        <time>2024-01-01T11:06:41.450Z</time>
      </trkpt>
      <trkpt lat="49.031989965587854" lon="3.9692019671201706">
        <ele>204.0</ele>
        <time>2024-01-01T11:06:43.799Z</time>
      </trkpt>
      <trkpt lat="49.031969932839274" lon="3.969215964898467">
        <ele>204.33</ele>
        <time>2024-01-01T11:06:46.149Z</time>
      </trkpt>
      <trkpt lat="49.03194394893944" lon="3.9692299626767635">
        <ele>204.65</ele>
        <time>2024-01-01T11:06:48.500Z</time>
      </trkpt>
      <trkpt lat="49.03192198835313" lon="3.969238931313157">
        <ele>204.95</ele>
        <time>2024-01-01T11:06:50.853Z</time>
      </trkpt>
      <trkpt lat="49.03189893811941" lon="3.9692499954253435">
        <ele>205.24</ele>
        <time>2024-01-01T11:06:53.207Z</time>
      </trkpt>
      <trkpt lat="49.03187798336148" lon="3.9692579582333565">
        <ele>205.52</ele>
        <time>2024-01-01T11:06:55.562Z</time>
      </trkpt>
      <trkpt lat="49.03185895644128" lon="3.9692679326981306">
        <ele>205.78</ele>
        <time>2024-01-01T11:06:57.918Z</time>
      </trkpt>
      <trkpt lat="49.0318219922483" lon="3.96928695961833">
        <ele>206.04</ele>
        <time>2024-01-01T11:07:00.275Z</time>
      </trkpt>
      <trkpt lat="49.03181092813611" lon="3.9692929945886135">
        <ele>206.26</ele>
        <time>2024-01-01T11:07:02.633Z</time>
      </trkpt>
      <trkpt lat="49.03178695589304" lon="3.969311937689781">
        <ele>206.47</ele>
        <time>2024-01-01T11:07:04.992Z</time>
      </trkpt>
      <trkpt lat="49.03176591731608" lon="3.9693329762667418">
        <ele>206.65</ele>
        <time>2024-01-01T11:07:07.352Z</time>
      </trkpt>
      <trkpt lat="49.03174496255815" lon="3.969357954338193">
        <ele>206.82</ele>
        <time>2024-01-01T11:07:09.714Z</time>
      </trkpt>
      <trkpt lat="49.03172694146633" lon="3.9693869557231665">
        <ele>206.96</ele>
        <time>2024-01-01T11:07:12.077Z</time>
      </trkpt>
      <trkpt lat="49.03170699253678" lon="3.9694129396229982">
        <ele>207.08</ele>
        <time>2024-01-01T11:07:14.441Z</time>
      </trkpt>
      <trkpt lat="49.031689977273345" lon="3.969432972371578">
        <ele>207.17</ele>
        <time>2024-01-01T11:07:16.806Z</time>
      </trkpt>
      <trkpt lat="49.031667932868004" lon="3.9694499876350164">
        <ele>207.22</ele>
        <time>2024-01-01T11:07:19.172Z</time>
      </trkpt>
      <trkpt lat="49.03164396062493" lon="3.9694619737565517">
        <ele>207.25</ele>
        <time>2024-01-01T11:07:21.539Z</time>
      </trkpt>
      <trkpt lat="49.03162292204797" lon="3.9694649912416935">
        <ele>207.24</ele>
        <time>2024-01-01T11:07:23.907Z</time>
      </trkpt>
      <trkpt lat="49.03159593231976" lon="3.96945895627141">
        <ele>207.2</ele>
        <time>2024-01-01T11:07:26.277Z</time>
      </trkpt>
      <trkpt lat="49.03157095424831" lon="3.9694529213011265">
        <ele>207.13</ele>
        <time>2024-01-01T11:07:28.648Z</time>
      </trkpt>
      <trkpt lat="49.03154597617686" lon="3.969443952664733">
        <ele>207.03</ele>
        <time>2024-01-01T11:07:31.020Z</time>
      </trkpt>
      <trkpt lat="49.03152099810541" lon="3.9694369956851006">
        <ele>206.89</ele>
        <time>2024-01-01T11:07:33.393Z</time>
      </trkpt>
      <trkpt lat="49.031495936214924" lon="3.969422997906804">
        <ele>206.73</ele>
        <time>2024-01-01T11:07:35.767Z</time>
      </trkpt>
      <trkpt lat="49.031472969800234" lon="3.969410927966237">
        <ele>206.54</ele>
        <time>2024-01-01T11:07:38.143Z</time>
      </trkpt>
      <trkpt lat="49.03145092539489" lon="3.9694039709866047">
        <ele>206.33</ele>
        <time>2024-01-01T11:07:40.520Z</time>
      </trkpt>
      <trkpt lat="49.031429970636964" lon="3.969387961551547">
        <ele>206.09</ele>
        <time>2024-01-01T11:07:42.898Z</time>
      </trkpt>
      <trkpt lat="49.03140599839389" lon="3.96937295794487">
        <ele>205.82</ele>
        <time>2024-01-01T11:07:45.277Z</time>
      </trkpt>
      <trkpt lat="49.03138194233179" lon="3.969354936853051">
        <ele>205.53</ele>
        <time>2024-01-01T11:07:47.657Z</time>
      </trkpt>
      <trkpt lat="49.03136098757386" lon="3.9693359937518835">
        <ele>205.21</ele>
        <time>2024-01-01T11:07:50.038Z</time>
      </trkpt>
      <trkpt lat="49.03133592568338" lon="3.9693129435181618">
        <ele>204.87</ele>
        <time>2024-01-01T11:07:52.421Z</time>
      </trkpt>
      <trkpt lat="49.03131396509707" lon="3.9692959282547235">
        <ele>204.52</ele>
        <time>2024-01-01T11:07:54.805Z</time>
      </trkpt>
      <trkpt lat="49.03129996731877" lon="3.9692729618400335">
        <ele>204.14</ele>
        <time>2024-01-01T11:07:57.190Z</time>
      </trkpt>
      <trkpt lat="49.03128596954048" lon="3.9692409429699183">
        <ele>203.74</ele>
        <time>2024-01-01T11:07:59.576Z</time>
      </trkpt>
      <trkpt lat="49.03127691708505" lon="3.969202972948551">
        <ele>203.32</ele>
        <time>2024-01-01T11:08:01.963Z</time>
      </trkpt>
      <trkpt lat="49.03126996010542" lon="3.9691649191081524">
        <ele>202.88</ele>
        <time>2024-01-01T11:08:04.351Z</time>
      </trkpt>
      <trkpt lat="49.03127197176218" lon="3.9691219199448824">
        <ele>202.43</ele>
        <time>2024-01-01T11:08:06.741Z</time>
      </trkpt>
      <trkpt lat="49.03127297759056" lon="3.9690809324383736">
        <ele>201.97</ele>
        <time>2024-01-01T11:08:09.132Z</time>
      </trkpt>
      <trkpt lat="49.03127498924732" lon="3.9690399449318647">
        <ele>201.5</ele>
        <time>2024-01-01T11:08:11.524Z</time>
      </trkpt>
      <trkpt lat="49.03127792291343" lon="3.9690019749104977">
        <ele>201.03</ele>
        <time>2024-01-01T11:08:13.918Z</time>
      </trkpt>
      <trkpt lat="49.03127691708505" lon="3.9689669385552406">
        <ele>200.55</ele>
        <time>2024-01-01T11:08:16.313Z</time>
      </trkpt>
      <trkpt lat="49.03127398341894" lon="3.9689349196851254">
        <ele>200.06</ele>
        <time>2024-01-01T11:08:18.709Z</time>
      </trkpt>
      <trkpt lat="49.03126996010542" lon="3.9688999671489">
        <ele>199.56</ele>
        <time>2024-01-01T11:08:21.106Z</time>
      </trkpt>
      <trkpt lat="49.0312709659338" lon="3.968858979642391">
        <ele>199.06</ele>
        <time>2024-01-01T11:08:23.504Z</time>
      </trkpt>
      <trkpt lat="49.03127297759056" lon="3.968823943287134">
        <ele>198.56</ele>
        <time>2024-01-01T11:08:25.903Z</time>
      </trkpt>
      <trkpt lat="49.03127498924732" lon="3.968783961609006">
        <ele>198.05</ele>
        <time>2024-01-01T11:08:28.303Z</time>
      </trkpt>
      <trkpt lat="49.03127792291343" lon="3.9687449857592583">
        <ele>197.53</ele>
        <time>2024-01-01T11:08:30.704Z</time>
      </trkpt>
      <trkpt lat="49.031280940398574" lon="3.968705926090479">
        <ele>196.99</ele>
        <time>2024-01-01T11:08:33.107Z</time>
      </trkpt>
      <trkpt lat="49.031300973147154" lon="3.968667956069112">
        <ele>196.46</ele>
        <time>2024-01-01T11:08:35.511Z</time>
      </trkpt>
      <trkpt lat="49.031302984803915" lon="3.9686179999262094">
        <ele>195.91</ele>
        <time>2024-01-01T11:08:37.917Z</time>
      </trkpt>
      <trkpt lat="49.031303990632296" lon="3.9686029963195324">
        <ele>195.4</ele>
        <time>2024-01-01T11:08:40.323Z</time>
      </trkpt>
      <trkpt lat="49.031304996460676" lon="3.9685679599642754">
        <ele>194.88</ele>
        <time>2024-01-01T11:08:42.730Z</time>
      </trkpt>
      <trkpt lat="49.031306924298406" lon="3.9685269724577665">
        <ele>194.35</ele>
        <time>2024-01-01T11:08:45.138Z</time>
      </trkpt>
      <trkpt lat="49.031307930126786" lon="3.9684819616377354">
        <ele>193.83</ele>
        <time>2024-01-01T11:08:47.548Z</time>
      </trkpt>
      <trkpt lat="49.03131094761193" lon="3.968437956646085">
        <ele>193.32</ele>
        <time>2024-01-01T11:08:49.959Z</time>
      </trkpt>
      <trkpt lat="49.03131698258221" lon="3.96840694360435">
        <ele>192.83</ele>
        <time>2024-01-01T11:08:52.371Z</time>
      </trkpt>
      <trkpt lat="49.031326957046986" lon="3.9683739189058542">
        <ele>192.35</ele>
        <time>2024-01-01T11:08:54.784Z</time>
      </trkpt>
      <trkpt lat="49.0313399489969" lon="3.96834097802639">
        <ele>191.89</ele>
        <time>2024-01-01T11:08:57.199Z</time>
      </trkpt>
      <trkpt lat="49.03135294094682" lon="3.9683149941265583">
        <ele>191.44</ele>
        <time>2024-01-01T11:08:59.615Z</time>
      </trkpt>
      <trkpt lat="49.03137196786702" lon="3.9682999905198812">
        <ele>191.01</ele>
        <time>2024-01-01T11:09:02.032Z</time>
      </trkpt>
      <trkpt lat="49.03139694593847" lon="3.9682859927415848">
        <ele>190.59</ele>
        <time>2024-01-01T11:09:04.450Z</time>
      </trkpt>
      <trkpt lat="49.031413961201906" lon="3.9682769402861595">
        <ele>190.19</ele>
        <time>2024-01-01T11:09:06.869Z</time>
      </trkpt>
      <trkpt lat="49.03142393566668" lon="3.9682639483362436">
        <ele>189.8</ele>
        <time>2024-01-01T11:09:09.288Z</time>
      </trkpt>
      <trkpt lat="49.03142393566668" lon="3.9682509563863277">
        <ele>189.41</ele>
        <time>2024-01-01T11:09:11.708Z</time>
      </trkpt>
      <trkpt lat="49.03141999617219" lon="3.968245927244425">
        <ele>189.04</ele>
        <time>2024-01-01T11:09:14.128Z</time>
      </trkpt>
      <trkpt lat="49.03141999617219" lon="3.9682589191943407">
        <ele>188.7</ele>
        <time>2024-01-01T11:09:16.548Z</time>
      </trkpt>
      <trkpt lat="49.031430976465344" lon="3.9682709891349077">
        <ele>188.36</ele>
        <time>2024-01-01T11:09:18.969Z</time>
      </trkpt>
      <trkpt lat="49.03143994510174" lon="3.9682839810848236">
        <ele>188.02</ele>
        <time>2024-01-01T11:09:21.390Z</time>
      </trkpt>
      <trkpt lat="49.031435921788216" lon="3.9682619366794825">
        <ele>187.65</ele>
        <time>2024-01-01T11:09:23.812Z</time>
      </trkpt>
      <trkpt lat="49.03141798451543" lon="3.9682489447295666">
        <ele>187.3</ele>
        <time>2024-01-01T11:09:26.235Z</time>
      </trkpt>
      <trkpt lat="49.031386971473694" lon="3.968229917809367">
        <ele>186.94</ele>
        <time>2024-01-01T11:09:28.660Z</time>
      </trkpt>
      <trkpt lat="49.03135797008872" lon="3.9682109747081995">
        <ele>186.58</ele>
        <time>2024-01-01T11:09:31.086Z</time>
      </trkpt>
      <trkpt lat="49.031327962875366" lon="3.9681879244744778">
        <ele>186.22</ele>
        <time>2024-01-01T11:09:33.514Z</time>
      </trkpt>
      <trkpt lat="49.031305918470025" lon="3.9681579172611237">
        <ele>185.86</ele>
        <time>2024-01-01T11:09:35.943Z</time>
      </trkpt>
      <trkpt lat="49.03128596954048" lon="3.96812598221004">
        <ele>185.5</ele>
        <time>2024-01-01T11:09:38.373Z</time>
      </trkpt>
      <trkpt lat="49.03126996010542" lon="3.9680789597332478">
        <ele>185.13</ele>
        <time>2024-01-01T11:09:40.805Z</time>
      </trkpt>
      <trkpt lat="49.031260991469026" lon="3.968037972226739">
        <ele>184.77</ele>
        <time>2024-01-01T11:09:43.238Z</time>
      </trkpt>
      <trkpt lat="49.03124892152846" lon="3.9679989963769913">
        <ele>184.41</ele>
        <time>2024-01-01T11:09:45.673Z</time>
      </trkpt>
      <trkpt lat="49.03124397620559" lon="3.9679459389299154">
        <ele>184.05</ele>
        <time>2024-01-01T11:09:48.109Z</time>
      </trkpt>
      <trkpt lat="49.03123592957854" lon="3.967898916453123">
        <ele>183.7</ele>
        <time>2024-01-01T11:09:50.547Z</time>
      </trkpt>
      <trkpt lat="49.03122696094215" lon="3.9678539894521236">
        <ele>183.37</ele>
        <time>2024-01-01T11:09:52.986Z</time>
      </trkpt>
      <trkpt lat="49.03122394345701" lon="3.967807972803712">
        <ele>183.06</ele>
        <time>2024-01-01T11:09:55.427Z</time>
      </trkpt>
      <trkpt lat="49.03122293762863" lon="3.9677619561553">
        <ele>182.75</ele>
        <time>2024-01-01T11:09:57.869Z</time>
      </trkpt>
      <trkpt lat="49.031218998134136" lon="3.9677179511636496">
        <ele>182.45</ele>
        <time>2024-01-01T11:10:00.312Z</time>
      </trkpt>
      <trkpt lat="49.031215980648994" lon="3.9676709286868572">
        <ele>182.17</ele>
        <time>2024-01-01T11:10:02.757Z</time>
      </trkpt>
      <trkpt lat="49.03120692819357" lon="3.967622984200716">
        <ele>181.9</ele>
        <time>2024-01-01T11:10:05.203Z</time>
      </trkpt>
      <trkpt lat="49.031198965385556" lon="3.9675789792090654">
        <ele>181.64</ele>
        <time>2024-01-01T11:10:07.651Z</time>
      </trkpt>
      <trkpt lat="49.03119293041527" lon="3.9675329625606537">
        <ele>181.39</ele>
        <time>2024-01-01T11:10:10.100Z</time>
      </trkpt>
      <trkpt lat="49.03118094429374" lon="3.967491975054145">
        <ele>181.15</ele>
        <time>2024-01-01T11:10:12.551Z</time>
      </trkpt>
      <trkpt lat="49.03116292320192" lon="3.967452999204397">
        <ele>180.93</ele>
        <time>2024-01-01T11:10:15.003Z</time>
      </trkpt>
      <trkpt lat="49.03112797066569" lon="3.9674249198287725">
        <ele>180.74</ele>
        <time>2024-01-01T11:10:17.457Z</time>
      </trkpt>
      <trkpt lat="49.03111497871578" lon="3.9674199745059013">
        <ele>180.57</ele>
        <time>2024-01-01T11:10:19.912Z</time>
      </trkpt>
      <trkpt lat="49.03108396567404" lon="3.967422991991043">
        <ele>180.42</ele>
        <time>2024-01-01T11:10:22.368Z</time>
      </trkpt>
      <trkpt lat="49.03105898760259" lon="3.9674279373139143">
        <ele>180.28</ele>
        <time>2024-01-01T11:10:24.825Z</time>
      </trkpt>
      <trkpt lat="49.031030992046" lon="3.967430954799056">
        <ele>180.15</ele>
        <time>2024-01-01T11:10:27.284Z</time>
      </trkpt>
      <trkpt lat="49.031001990661025" lon="3.967422991991043">
        <ele>180.03</ele>
        <time>2024-01-01T11:10:29.744Z</time>
      </trkpt>
      <trkpt lat="49.030981957912445" lon="3.967402959242463">
        <ele>179.91</ele>
        <time>2024-01-01T11:10:32.205Z</time>
      </trkpt>
      <trkpt lat="49.03095496818423" lon="3.967377981171012">
        <ele>179.8</ele>
        <time>2024-01-01T11:10:34.668Z</time>
      </trkpt>
      <trkpt lat="49.03093191795051" lon="3.9673489797860384">
        <ele>179.7</ele>
        <time>2024-01-01T11:10:37.132Z</time>
      </trkpt>
      <trkpt lat="49.0309099573642" lon="3.967319978401065">
        <ele>179.61</ele>
        <time>2024-01-01T11:10:39.597Z</time>
      </trkpt>
      <trkpt lat="49.03088699094951" lon="3.9672879595309496">
        <ele>179.52</ele>
        <time>2024-01-01T11:10:42.064Z</time>
      </trkpt>
      <trkpt lat="49.03086695820093" lon="3.9672579523175955">
        <ele>179.44</ele>
        <time>2024-01-01T11:10:44.532Z</time>
      </trkpt>
      <trkpt lat="49.03084499761462" lon="3.967228950932622">
        <ele>179.37</ele>
        <time>2024-01-01T11:10:47.001Z</time>
      </trkpt>
      <trkpt lat="49.03082395903766" lon="3.9671939983963966">
        <ele>179.29</ele>
        <time>2024-01-01T11:10:49.472Z</time>
      </trkpt>
      <trkpt lat="49.0308029204607" lon="3.9671669248491526">
        <ele>179.22</ele>
        <time>2024-01-01T11:10:51.944Z</time>
      </trkpt>
      <trkpt lat="49.03078095987439" lon="3.9671339839696884">
        <ele>179.15</ele>
        <time>2024-01-01T11:10:54.418Z</time>
      </trkpt>
      <trkpt lat="49.03076193295419" lon="3.9671029709279537">
        <ele>179.08</ele>
        <time>2024-01-01T11:10:56.893Z</time>
      </trkpt>
      <trkpt lat="49.030742989853024" lon="3.967079920694232">
        <ele>179.01</ele>
        <time>2024-01-01T11:10:59.369Z</time>
      </trkpt>
      <trkpt lat="49.03074282221496" lon="3.9670797530561686">
        <ele>179.0</ele>
        <time>2024-01-01T11:11:01.845Z</time>
      </trkpt>
      <trkpt lat="49.030722957104445" lon="3.9670459739863873">
        <ele>178.94</ele>
        <time>2024-01-01T11:11:04.322Z</time>
      </trkpt>
      <trkpt lat="49.030704936012626" lon="3.967013955116272">
        <ele>178.87</ele>
        <time>2024-01-01T11:11:06.801Z</time>
      </trkpt>
      <trkpt lat="49.030679957941175" lon="3.9669849537312984">
        <ele>178.79</ele>
        <time>2024-01-01T11:11:09.281Z</time>
      </trkpt>
      <trkpt lat="49.030658919364214" lon="3.966950923204422">
        <ele>178.7</ele>
        <time>2024-01-01T11:11:11.763Z</time>
      </trkpt>
      <trkpt lat="49.030639976263046" lon="3.9669249393045902">
        <ele>178.62</ele>
        <time>2024-01-01T11:11:14.246Z</time>
      </trkpt>
      <trkpt lat="49.030614998191595" lon="3.9668939262628555">
        <ele>178.52</ele>
        <time>2024-01-01T11:11:16.730Z</time>
      </trkpt>
      <trkpt lat="49.030592953786254" lon="3.966861991211772">
        <ele>178.42</ele>
        <time>2024-01-01T11:11:19.216Z</time>
      </trkpt>
      <trkpt lat="49.030570993199944" lon="3.9668359234929085">
        <ele>178.31</ele>
        <time>2024-01-01T11:11:21.703Z</time>
      </trkpt>
      <trkpt lat="49.030533945187926" lon="3.9667899906635284">
        <ele>178.18</ele>
        <time>2024-01-01T11:11:24.192Z</time>
      </trkpt>
      <trkpt lat="49.03052296489477" lon="3.966775992885232">
        <ele>178.05</ele>
        <time>2024-01-01T11:11:26.682Z</time>
      </trkpt>
      <trkpt lat="49.03049698099494" lon="3.9667469915002584">
        <ele>177.91</ele>
        <time>2024-01-01T11:11:29.173Z</time>
      </trkpt>
      <trkpt lat="49.03047393076122" lon="3.9667189959436655">
        <ele>177.75</ele>
        <time>2024-01-01T11:11:31.666Z</time>
      </trkpt>
      <trkpt lat="49.03045096434653" lon="3.966697957366705">
        <ele>177.58</ele>
        <time>2024-01-01T11:11:34.160Z</time>
      </trkpt>
      <trkpt lat="49.03042891994119" lon="3.9666759967803955">
        <ele>177.4</ele>
        <time>2024-01-01T11:11:36.655Z</time>
      </trkpt>
      <trkpt lat="49.03040695935488" lon="3.966647917404771">
        <ele>177.19</ele>
        <time>2024-01-01T11:11:39.152Z</time>
      </trkpt>
      <trkpt lat="49.03038298711181" lon="3.966619921848178">
        <ele>176.96</ele>
        <time>2024-01-01T11:11:41.650Z</time>
      </trkpt>
      <trkpt lat="49.03035398572683" lon="3.966596955433488">
        <ele>176.72</ele>
        <time>2024-01-01T11:11:44.150Z</time>
      </trkpt>
      <trkpt lat="49.03032892383635" lon="3.966573989018798">
        <ele>176.47</ele>
        <time>2024-01-01T11:11:46.651Z</time>
      </trkpt>
      <trkpt lat="49.03030595742166" lon="3.9665519446134567">
        <ele>176.19</ele>
        <time>2024-01-01T11:11:49.153Z</time>
      </trkpt>
      <trkpt lat="49.03028097935021" lon="3.966525960713625">
        <ele>175.9</ele>
        <time>2024-01-01T11:11:51.657Z</time>
      </trkpt>
      <trkpt lat="49.03026094660163" lon="3.9664949476718903">
        <ele>175.59</ele>
        <time>2024-01-01T11:11:54.162Z</time>
      </trkpt>
      <trkpt lat="49.03024099767208" lon="3.966469969600439">
        <ele>175.26</ele>
        <time>2024-01-01T11:11:56.668Z</time>
      </trkpt>
      <trkpt lat="49.03022297658026" lon="3.9664389565587044">
        <ele>174.91</ele>
        <time>2024-01-01T11:11:59.175Z</time>
      </trkpt>
      <trkpt lat="49.03020394966006" lon="3.966391934081912">
        <ele>174.54</ele>
        <time>2024-01-01T11:12:01.684Z</time>
      </trkpt>
      <trkpt lat="49.03019699268043" lon="3.966374918818474">
        <ele>174.17</ele>
        <time>2024-01-01T11:12:04.194Z</time>
      </trkpt>
      <trkpt lat="49.03019598685205" lon="3.966327980160713">
        <ele>173.77</ele>
        <time>2024-01-01T11:12:06.705Z</time>
      </trkpt>
      <trkpt lat="49.030188946053386" lon="3.966280957683921">
        <ele>173.35</ele>
        <time>2024-01-01T11:12:09.218Z</time>
      </trkpt>
      <trkpt lat="49.03017695993185" lon="3.966239970177412">
        <ele>172.93</ele>
        <time>2024-01-01T11:12:11.732Z</time>
      </trkpt>
      <trkpt lat="49.03016095049679" lon="3.966199988499284">
        <ele>172.5</ele>
        <time>2024-01-01T11:12:14.248Z</time>
      </trkpt>
      <trkpt lat="49.030143935233355" lon="3.966159923002124">
        <ele>172.05</ele>
        <time>2024-01-01T11:12:16.765Z</time>
      </trkpt>
      <trkpt lat="49.030121974647045" lon="3.966125976294279">
        <ele>171.58</ele>
        <time>2024-01-01T11:12:19.283Z</time>
      </trkpt>
      <trkpt lat="49.03009791858494" lon="3.966093957424164">
        <ele>171.1</ele>
        <time>2024-01-01T11:12:21.803Z</time>
      </trkpt>
      <trkpt lat="49.03007394634187" lon="3.9660689793527126">
        <ele>170.62</ele>
        <time>2024-01-01T11:12:24.324Z</time>
      </trkpt>
      <trkpt lat="49.03005198575556" lon="3.9660449232906103">
        <ele>170.13</ele>
        <time>2024-01-01T11:12:26.847Z</time>
      </trkpt>
      <trkpt lat="49.03002994135022" lon="3.9660209510475397">
        <ele>169.63</ele>
        <time>2024-01-01T11:12:29.371Z</time>
      </trkpt>
      <trkpt lat="49.0300119202584" lon="3.9660009182989597">
        <ele>169.12</ele>
        <time>2024-01-01T11:12:31.896Z</time>
      </trkpt>
      <trkpt lat="49.029994988813996" lon="3.9659809693694115">
        <ele>168.61</ele>
        <time>2024-01-01T11:12:34.422Z</time>
      </trkpt>
      <trkpt lat="49.02998794801533" lon="3.9659779518842697">
        <ele>168.11</ele>
        <time>2024-01-01T11:12:36.948Z</time>
      </trkpt>
      <trkpt lat="49.0299759618938" lon="3.9659809693694115">
        <ele>167.6</ele>
        <time>2024-01-01T11:12:39.475Z</time>
      </trkpt>
      <trkpt lat="49.02995592914522" lon="3.9659659657627344">
        <ele>167.07</ele>
        <time>2024-01-01T11:12:42.003Z</time>
      </trkpt>
      <trkpt lat="49.02993598021567" lon="3.9659439213573933">
        <ele>166.54</ele>
        <time>2024-01-01T11:12:44.532Z</time>
      </trkpt>
      <trkpt lat="49.029906978830695" lon="3.9659129921346903">
        <ele>166.0</ele>
        <time>2024-01-01T11:12:47.063Z</time>
      </trkpt>
      <trkpt lat="49.02987596578896" lon="3.9658779557794333">
        <ele>165.46</ele>
        <time>2024-01-01T11:12:49.595Z</time>
      </trkpt>
      <trkpt lat="49.02985098771751" lon="3.9658539835363626">
        <ele>164.91</ele>
        <time>2024-01-01T11:12:52.129Z</time>
      </trkpt>
      <trkpt lat="49.029822992160916" lon="3.965824982151389">
        <ele>164.36</ele>
        <time>2024-01-01T11:12:54.664Z</time>
      </trkpt>
      <trkpt lat="49.02979793027043" lon="3.9657909516245127">
        <ele>163.81</ele>
        <time>2024-01-01T11:12:57.201Z</time>
      </trkpt>
      <trkpt lat="49.02975199744105" lon="3.965738983824849">
        <ele>163.25</ele>
        <time>2024-01-01T11:12:59.741Z</time>
      </trkpt>
      <trkpt lat="49.029736993834376" lon="3.9657199569046497">
        <ele>162.71</ele>
        <time>2024-01-01T11:13:02.282Z</time>
      </trkpt>
      <trkpt lat="49.0297079924494" lon="3.965691961348057">
        <ele>162.16</ele>
        <time>2024-01-01T11:13:04.824Z</time>
      </trkpt>
      <trkpt lat="49.02967899106443" lon="3.965663965791464">
        <ele>161.62</ele>
        <time>2024-01-01T11:13:07.368Z</time>
      </trkpt>
      <trkpt lat="49.029653929173946" lon="3.965637981891632">
        <ele>161.09</ele>
        <time>2024-01-01T11:13:09.913Z</time>
      </trkpt>
      <trkpt lat="49.029628951102495" lon="3.965617949143052">
        <ele>160.57</ele>
        <time>2024-01-01T11:13:12.459Z</time>
      </trkpt>
      <trkpt lat="49.0296009555459" lon="3.9655869361013174">
        <ele>160.06</ele>
        <time>2024-01-01T11:13:15.007Z</time>
      </trkpt>
      <trkpt lat="49.02957698330283" lon="3.9655639696866274">
        <ele>159.56</ele>
        <time>2024-01-01T11:13:17.556Z</time>
      </trkpt>
      <trkpt lat="49.029550999403" lon="3.965536979958415">
        <ele>159.07</ele>
        <time>2024-01-01T11:13:20.107Z</time>
      </trkpt>
      <trkpt lat="49.02952895499766" lon="3.9655059669166803">
        <ele>158.6</ele>
        <time>2024-01-01T11:13:22.659Z</time>
      </trkpt>
      <trkpt lat="49.02950598858297" lon="3.9654849283397198">
        <ele>158.15</ele>
        <time>2024-01-01T11:13:25.213Z</time>
      </trkpt>
      <trkpt lat="49.029481932520866" lon="3.965456932783127">
        <ele>157.71</ele>
        <time>2024-01-01T11:13:27.768Z</time>
      </trkpt>
      <trkpt lat="49.02946097776294" lon="3.965428937226534">
        <ele>157.3</ele>
        <time>2024-01-01T11:13:30.324Z</time>
      </trkpt>
      <trkpt lat="49.029437927529216" lon="3.9654039591550827">
        <ele>156.91</ele>
        <time>2024-01-01T11:13:32.882Z</time>
      </trkpt>
      <trkpt lat="49.029412949457765" lon="3.965374957770109">
        <ele>156.54</ele>
        <time>2024-01-01T11:13:35.441Z</time>
      </trkpt>
      <trkpt lat="49.029390988871455" lon="3.9653439447283745">
        <ele>156.2</ele>
        <time>2024-01-01T11:13:38.001Z</time>
      </trkpt>
      <trkpt lat="49.02936793863773" lon="3.965319972485304">
        <ele>155.89</ele>
        <time>2024-01-01T11:13:40.563Z</time>
      </trkpt>
      <trkpt lat="49.02933893725276" lon="3.9652909711003304">
        <ele>155.6</ele>
        <time>2024-01-01T11:13:43.126Z</time>
      </trkpt>
      <trkpt lat="49.02931496500969" lon="3.965263981372118">
        <ele>155.34</ele>
        <time>2024-01-01T11:13:45.691Z</time>
      </trkpt>
      <trkpt lat="49.029291998595" lon="3.9652379974722862">
        <ele>155.12</ele>
        <time>2024-01-01T11:13:48.257Z</time>
      </trkpt>
      <trkpt lat="49.029266936704516" lon="3.9652039669454098">
        <ele>154.92</ele>
        <time>2024-01-01T11:13:50.825Z</time>
      </trkpt>
      <trkpt lat="49.0292539447546" lon="3.9651669189333916">
        <ele>154.77</ele>
        <time>2024-01-01T11:13:53.394Z</time>
      </trkpt>
      <trkpt lat="49.02924598194659" lon="3.965121991932392">
        <ele>154.65</ele>
        <time>2024-01-01T11:13:55.964Z</time>
      </trkpt>
      <trkpt lat="49.02924698777497" lon="3.965078992769122">
        <ele>154.55</ele>
        <time>2024-01-01T11:13:58.536Z</time>
      </trkpt>
      <trkpt lat="49.02925193309784" lon="3.9650329761207104">
        <ele>154.49</ele>
        <time>2024-01-01T11:14:01.109Z</time>
      </trkpt>
      <trkpt lat="49.029263919219375" lon="3.9649919886142015">
        <ele>154.46</ele>
        <time>2024-01-01T11:14:03.684Z</time>
      </trkpt>
      <trkpt lat="49.02928194031119" lon="3.9649539347738028">
        <ele>154.45</ele>
        <time>2024-01-01T11:14:06.260Z</time>
      </trkpt>
      <trkpt lat="49.02930096723139" lon="3.9649139530956745">
        <ele>154.46</ele>
        <time>2024-01-01T11:14:08.837Z</time>
      </trkpt>
      <trkpt lat="49.02931496500969" lon="3.964879922568798">
        <ele>154.49</ele>
        <time>2024-01-01T11:14:11.416Z</time>
      </trkpt>
      <trkpt lat="49.02933298610151" lon="3.964841952547431">
        <ele>154.53</ele>
        <time>2024-01-01T11:14:13.996Z</time>
      </trkpt>
      <trkpt lat="49.029349917545915" lon="3.9648049883544445">
        <ele>154.58</ele>
        <time>2024-01-01T11:14:16.578Z</time>
      </trkpt>
      <trkpt lat="49.029368944466114" lon="3.9647679403424263">
        <ele>154.64</ele>
        <time>2024-01-01T11:14:19.161Z</time>
      </trkpt>
      <trkpt lat="49.02938797138631" lon="3.9647299703210592">
        <ele>154.7</ele>
        <time>2024-01-01T11:14:21.745Z</time>
      </trkpt>
      <trkpt lat="49.02940196916461" lon="3.9646939281374216">
        <ele>154.75</ele>
        <time>2024-01-01T11:14:24.331Z</time>
      </trkpt>
      <trkpt lat="49.02942099608481" lon="3.964651934802532">
        <ele>154.8</ele>
        <time>2024-01-01T11:14:26.918Z</time>
      </trkpt>
      <trkpt lat="49.029434993863106" lon="3.9646229334175587">
        <ele>154.83</ele>
        <time>2024-01-01T11:14:29.506Z</time>
      </trkpt>
      <trkpt lat="49.02944798581302" lon="3.9645879808813334">
        <ele>154.85</ele>
        <time>2024-01-01T11:14:32.096Z</time>
      </trkpt>
      <trkpt lat="49.02946097776294" lon="3.9645529445260763">
        <ele>154.85</ele>
        <time>2024-01-01T11:14:34.687Z</time>
      </trkpt>
      <trkpt lat="49.02947195805609" lon="3.9645189978182316">
        <ele>154.83</ele>
        <time>2024-01-01T11:14:37.279Z</time>
      </trkpt>
      <trkpt lat="49.02948696166277" lon="3.9644789323210716">
        <ele>154.79</ele>
        <time>2024-01-01T11:14:39.872Z</time>
      </trkpt>
      <trkpt lat="49.02950297109783" lon="3.964441968128085">
        <ele>154.73</ele>
        <time>2024-01-01T11:14:42.467Z</time>
      </trkpt>
      <trkpt lat="49.0295269433409" lon="3.9643859770148993">
        <ele>154.63</ele>
        <time>2024-01-01T11:14:45.064Z</time>
      </trkpt>
      <trkpt lat="49.02953498996794" lon="3.9643669500947">
        <ele>154.51</ele>
        <time>2024-01-01T11:14:47.662Z</time>
      </trkpt>
      <trkpt lat="49.02954697608948" lon="3.964333925396204">
        <ele>154.36</ele>
        <time>2024-01-01T11:14:50.261Z</time>
      </trkpt>
      <trkpt lat="49.029564997181296" lon="3.9642949495464563">
        <ele>154.18</ele>
        <time>2024-01-01T11:14:52.861Z</time>
      </trkpt>
      <trkpt lat="49.0295819286257" lon="3.9642569795250893">
        <ele>153.96</ele>
        <time>2024-01-01T11:14:55.463Z</time>
      </trkpt>
      <trkpt lat="49.02959693223238" lon="3.9642189256846905">
        <ele>153.71</ele>
        <time>2024-01-01T11:14:58.066Z</time>
      </trkpt>
      <trkpt lat="49.029608918353915" lon="3.964176932349801">
        <ele>153.42</ele>
        <time>2024-01-01T11:15:00.670Z</time>
      </trkpt>
      <trkpt lat="49.0296149533242" lon="3.964138962328434">
        <ele>153.1</ele>
        <time>2024-01-01T11:15:03.276Z</time>
      </trkpt>
      <trkpt lat="49.02961294166744" lon="3.9640969689935446">
        <ele>152.74</ele>
        <time>2024-01-01T11:15:05.883Z</time>
      </trkpt>
      <trkpt lat="49.02958896942437" lon="3.9640589989721775">
        <ele>152.33</ele>
        <time>2024-01-01T11:15:08.491Z</time>
      </trkpt>
      <trkpt lat="49.02957094833255" lon="3.9640169218182564">
        <ele>151.89</ele>
        <time>2024-01-01T11:15:11.101Z</time>
      </trkpt>
      <trkpt lat="49.02955192141235" lon="3.9639789517968893">
        <ele>151.42</ele>
        <time>2024-01-01T11:15:13.712Z</time>
      </trkpt>
      <trkpt lat="49.02953297831118" lon="3.9639429934322834">
        <ele>150.92</ele>
        <time>2024-01-01T11:15:16.325Z</time>
      </trkpt>
      <trkpt lat="49.02950699441135" lon="3.963901922106743">
        <ele>150.39</ele>
        <time>2024-01-01T11:15:18.940Z</time>
      </trkpt>
      <trkpt lat="49.029480926692486" lon="3.9638719987124205">
        <ele>149.83</ele>
        <time>2024-01-01T11:15:21.556Z</time>
      </trkpt>
      <trkpt lat="49.029456954449415" lon="3.9638369623571634">
        <ele>149.24</ele>
        <time>2024-01-01T11:15:24.174Z</time>
      </trkpt>
      <trkpt lat="49.029436921700835" lon="3.963802931830287">
        <ele>148.62</ele>
        <time>2024-01-01T11:15:26.793Z</time>
      </trkpt>
      <trkpt lat="49.029413955286145" lon="3.9637679792940617">
        <ele>147.98</ele>
        <time>2024-01-01T11:15:29.414Z</time>
      </trkpt>
      <trkpt lat="49.029389983043075" lon="3.9637229684740305">
        <ele>147.3</ele>
        <time>2024-01-01T11:15:32.036Z</time>
      </trkpt>
      <trkpt lat="49.029368944466114" lon="3.963686926290393">
        <ele>146.6</ele>
        <time>2024-01-01T11:15:34.660Z</time>
      </trkpt>
      <trkpt lat="49.029345978051424" lon="3.9636569190770388">
        <ele>145.89</ele>
        <time>2024-01-01T11:15:37.285Z</time>
      </trkpt>
      <trkpt lat="49.02932393364608" lon="3.9636169373989105">
        <ele>145.14</ele>
        <time>2024-01-01T11:15:39.912Z</time>
      </trkpt>
      <trkpt lat="49.02930197305977" lon="3.963582990691066">
        <ele>144.39</ele>
        <time>2024-01-01T11:15:42.540Z</time>
      </trkpt>
      <trkpt lat="49.02927498333156" lon="3.963538985699415">
        <ele>143.61</ele>
        <time>2024-01-01T11:15:45.170Z</time>
      </trkpt>
      <trkpt lat="49.02925193309784" lon="3.9635059610009193">
        <ele>142.83</ele>
        <time>2024-01-01T11:15:47.802Z</time>
      </trkpt>
      <trkpt lat="49.02922997251153" lon="3.963473942130804">
        <ele>142.05</ele>
        <time>2024-01-01T11:15:50.435Z</time>
      </trkpt>
      <trkpt lat="49.02920792810619" lon="3.9634329546242952">
        <ele>141.25</ele>
        <time>2024-01-01T11:15:53.070Z</time>
      </trkpt>
      <trkpt lat="49.02918596751988" lon="3.9633999299257994">
        <ele>140.46</ele>
        <time>2024-01-01T11:15:55.706Z</time>
      </trkpt>
      <trkpt lat="49.02916098944843" lon="3.9633639715611935">
        <ele>139.65</ele>
        <time>2024-01-01T11:15:58.344Z</time>
      </trkpt>
      <trkpt lat="49.02913894504309" lon="3.9633189607411623">
        <ele>138.85</ele>
        <time>2024-01-01T11:16:00.984Z</time>
      </trkpt>
      <trkpt lat="49.029114972800016" lon="3.9632779732346535">
        <ele>138.05</ele>
        <time>2024-01-01T11:16:03.625Z</time>
      </trkpt>
      <trkpt lat="49.029090916737914" lon="3.9632409252226353">
        <ele>137.25</ele>
        <time>2024-01-01T11:16:06.268Z</time>
      </trkpt>
      <trkpt lat="49.029067950323224" lon="3.9632129296660423">
        <ele>136.47</ele>
        <time>2024-01-01T11:16:08.912Z</time>
      </trkpt>
      <trkpt lat="49.02904096059501" lon="3.963175965473056">
        <ele>135.69</ele>
        <time>2024-01-01T11:16:11.558Z</time>
      </trkpt>
      <trkpt lat="49.02901992201805" lon="3.9631379954516888">
        <ele>134.94</ele>
        <time>2024-01-01T11:16:14.205Z</time>
      </trkpt>
      <trkpt lat="49.02899896726012" lon="3.9630989357829094">
        <ele>134.19</ele>
        <time>2024-01-01T11:16:16.854Z</time>
      </trkpt>
      <trkpt lat="49.02897398918867" lon="3.9630499854683876">
        <ele>133.45</ele>
        <time>2024-01-01T11:16:19.505Z</time>
      </trkpt>
      <trkpt lat="49.02895194478333" lon="3.9630149491131306">
        <ele>132.73</ele>
        <time>2024-01-01T11:16:22.157Z</time>
      </trkpt>
      <trkpt lat="49.02893199585378" lon="3.9629849418997765">
        <ele>132.02</ele>
        <time>2024-01-01T11:16:24.811Z</time>
      </trkpt>
      <trkpt lat="49.02891296893358" lon="3.962940936908126">
        <ele>131.33</ele>
        <time>2024-01-01T11:16:27.466Z</time>
      </trkpt>
      <trkpt lat="49.028892936185" lon="3.962909923866391">
        <ele>130.64</ele>
        <time>2024-01-01T11:16:30.123Z</time>
      </trkpt>
      <trkpt lat="49.02885798364878" lon="3.9628529269248247">
        <ele>129.95</ele>
        <time>2024-01-01T11:16:32.782Z</time>
      </trkpt>
      <trkpt lat="49.02884792536497" lon="3.9628389291465282">
        <ele>129.3</ele>
        <time>2024-01-01T11:16:35.442Z</time>
      </trkpt>
      <trkpt lat="49.02881992980838" lon="3.9627989474684">
        <ele>128.65</ele>
        <time>2024-01-01T11:16:38.103Z</time>
      </trkpt>
      <trkpt lat="49.02879897505045" lon="3.96275594830513">
        <ele>128.02</ele>
        <time>2024-01-01T11:16:40.766Z</time>
      </trkpt>
      <trkpt lat="49.02877693064511" lon="3.962725941091776">
        <ele>127.41</ele>
        <time>2024-01-01T11:16:43.430Z</time>
      </trkpt>
      <trkpt lat="49.02875597588718" lon="3.962684953585267">
        <ele>126.81</ele>
        <time>2024-01-01T11:16:46.096Z</time>
      </trkpt>
      <trkpt lat="49.02873694896698" lon="3.96264991723001">
        <ele>126.24</ele>
        <time>2024-01-01T11:16:48.763Z</time>
      </trkpt>
      <trkpt lat="49.02871398255229" lon="3.96260691806674">
        <ele>125.67</ele>
        <time>2024-01-01T11:16:51.432Z</time>
      </trkpt>
      <trkpt lat="49.02868992649019" lon="3.962568948045373">
        <ele>125.12</ele>
        <time>2024-01-01T11:16:54.103Z</time>
      </trkpt>
      <trkpt lat="49.02866494841874" lon="3.9625299721956253">
        <ele>124.59</ele>
        <time>2024-01-01T11:16:56.775Z</time>
      </trkpt>
      <trkpt lat="49.028640976175666" lon="3.962487978860736">
        <ele>124.08</ele>
        <time>2024-01-01T11:16:59.449Z</time>
      </trkpt>
      <trkpt lat="49.028615998104215" lon="3.9624559599906206">
        <ele>123.61</ele>
        <time>2024-01-01T11:17:02.125Z</time>
      </trkpt>
      <trkpt lat="49.02859194204211" lon="3.9624179899692535">
        <ele>123.16</ele>
        <time>2024-01-01T11:17:04.802Z</time>
      </trkpt>
      <trkpt lat="49.028571993112564" lon="3.9623879827558994">
        <ele>122.74</ele>
        <time>2024-01-01T11:17:07.481Z</time>
      </trkpt>
      <trkpt lat="49.02855799533427" lon="3.9623379427939653">
        <ele>122.34</ele>
        <time>2024-01-01T11:17:10.161Z</time>
      </trkpt>
      <trkpt lat="49.02854894287884" lon="3.962287986651063">
        <ele>121.95</ele>
        <time>2024-01-01T11:17:12.843Z</time>
      </trkpt>
      <trkpt lat="49.028552966192365" lon="3.962229983881116">
        <ele>121.6</ele>
        <time>2024-01-01T11:17:15.527Z</time>
      </trkpt>
      <trkpt lat="49.02856595814228" lon="3.962181955575943">
        <ele>121.3</ele>
        <time>2024-01-01T11:17:18.212Z</time>
      </trkpt>
      <trkpt lat="49.02858196757734" lon="3.9621319994330406">
        <ele>121.02</ele>
        <time>2024-01-01T11:17:20.899Z</time>
      </trkpt>
      <trkpt lat="49.02860099449754" lon="3.9620899222791195">
        <ele>120.77</ele>
        <time>2024-01-01T11:17:23.588Z</time>
      </trkpt>
      <trkpt lat="49.02862899005413" lon="3.9620539639145136">
        <ele>120.55</ele>
        <time>2024-01-01T11:17:26.278Z</time>
      </trkpt>
      <trkpt lat="49.02865195646882" lon="3.9620209392160177">
        <ele>120.34</ele>
        <time>2024-01-01T11:17:28.970Z</time>
      </trkpt>
      <trkpt lat="49.02867391705513" lon="3.9619909320026636">
        <ele>120.14</ele>
        <time>2024-01-01T11:17:31.663Z</time>
      </trkpt>
      <trkpt lat="49.02869596146047" lon="3.9619579911231995">
        <ele>119.95</ele>
        <time>2024-01-01T11:17:34.358Z</time>
      </trkpt>
      <trkpt lat="49.02871993370354" lon="3.9619249664247036">
        <ele>119.77</ele>
        <time>2024-01-01T11:17:37.054Z</time>
      </trkpt>
      <trkpt lat="49.02873896062374" lon="3.96189596503973">
        <ele>119.58</ele>
        <time>2024-01-01T11:17:39.751Z</time>
      </trkpt>
      <trkpt lat="49.02876092121005" lon="3.9618619345128536">
        <ele>119.39</ele>
        <time>2024-01-01T11:17:42.450Z</time>
      </trkpt>
      <trkpt lat="49.02878195978701" lon="3.96183293312788">
        <ele>119.17</ele>
        <time>2024-01-01T11:17:45.150Z</time>
      </trkpt>
      <trkpt lat="49.02880098670721" lon="3.9618019200861454">
        <ele>118.94</ele>
        <time>2024-01-01T11:17:47.851Z</time>
      </trkpt>
      <trkpt lat="49.02881892398" lon="3.9617659617215395">
        <ele>118.7</ele>
        <time>2024-01-01T11:17:50.554Z</time>
      </trkpt>
      <trkpt lat="49.028830993920565" lon="3.961729919537902">
        <ele>118.42</ele>
        <time>2024-01-01T11:17:53.258Z</time>
      </trkpt>
      <trkpt lat="49.02884499169886" lon="3.961686920374632">
        <ele>118.13</ele>
        <time>2024-01-01T11:17:55.963Z</time>
      </trkpt>
      <trkpt lat="49.02884993702173" lon="3.9616449270397425">
        <ele>117.81</ele>
        <time>2024-01-01T11:17:58.670Z</time>
      </trkpt>
      <trkpt lat="49.02885094285011" lon="3.961584996432066">
        <ele>117.45</ele>
        <time>2024-01-01T11:18:01.379Z</time>
      </trkpt>
      <trkpt lat="49.02884993702173" lon="3.961562952026725">
        <ele>117.08</ele>
        <time>2024-01-01T11:18:04.088Z</time>
      </trkpt>
      <trkpt lat="49.02884096838534" lon="3.961529927328229">
        <ele>116.68</ele>
        <time>2024-01-01T11:18:06.798Z</time>
      </trkpt>
      <trkpt lat="49.02882697060704" lon="3.9614979922771454">
        <ele>116.26</ele>
        <time>2024-01-01T11:18:09.510Z</time>
      </trkpt>
      <trkpt lat="49.028809955343604" lon="3.961463961750269">
        <ele>115.81</ele>
        <time>2024-01-01T11:18:12.223Z</time>
      </trkpt>
      <trkpt lat="49.02879696339369" lon="3.961392967030406">
        <ele>115.32</ele>
        <time>2024-01-01T11:18:14.938Z</time>
      </trkpt>
      <trkpt lat="49.02879495173693" lon="3.9613669831305742">
        <ele>114.86</ele>
        <time>2024-01-01T11:18:17.654Z</time>
      </trkpt>
      <trkpt lat="49.02880098670721" lon="3.961312919855118">
        <ele>114.36</ele>
        <time>2024-01-01T11:18:20.372Z</time>
      </trkpt>
      <trkpt lat="49.02880794368684" lon="3.9612649753689766">
        <ele>113.87</ele>
        <time>2024-01-01T11:18:23.091Z</time>
      </trkpt>
      <trkpt lat="49.02882294729352" lon="3.961215941235423">
        <ele>113.36</ele>
        <time>2024-01-01T11:18:25.812Z</time>
      </trkpt>
      <trkpt lat="49.02883996255696" lon="3.961172942072153">
        <ele>112.85</ele>
        <time>2024-01-01T11:18:28.534Z</time>
      </trkpt>
      <trkpt lat="49.028852954506874" lon="3.9611319545656443">
        <ele>112.34</ele>
        <time>2024-01-01T11:18:31.258Z</time>
      </trkpt>
      <trkpt lat="49.028875920921564" lon="3.9610679168254137">
        <ele>111.81</ele>
        <time>2024-01-01T11:18:33.984Z</time>
      </trkpt>
      <trkpt lat="49.02888195589185" lon="3.961046962067485">
        <ele>111.32</ele>
        <time>2024-01-01T11:18:36.711Z</time>
      </trkpt>
      <trkpt lat="49.02891095727682" lon="3.960988959297538">
        <ele>110.83</ele>
        <time>2024-01-01T11:18:39.440Z</time>
      </trkpt>
      <trkpt lat="49.028919925913215" lon="3.9609699323773384">
        <ele>110.35</ele>
        <time>2024-01-01T11:18:42.170Z</time>
      </trkpt>
      <trkpt lat="49.02893593534827" lon="3.9609309565275908">
        <ele>109.87</ele>
        <time>2024-01-01T11:18:44.901Z</time>
      </trkpt>
      <trkpt lat="49.028962925076485" lon="3.9608759712427855">
        <ele>109.39</ele>
        <time>2024-01-01T11:18:47.634Z</time>
      </trkpt>
      <trkpt lat="49.02897197753191" lon="3.9608589559793472">
        <ele>108.95</ele>
        <time>2024-01-01T11:18:50.368Z</time>
      </trkpt>
      <trkpt lat="49.02899092063308" lon="3.96082391962409">
        <ele>108.51</ele>
        <time>2024-01-01T11:18:53.103Z</time>
      </trkpt>
      <trkpt lat="49.02901195921004" lon="3.9607849437743425">
        <ele>108.09</ele>
        <time>2024-01-01T11:18:55.840Z</time>
      </trkpt>
      <trkpt lat="49.029028974473476" lon="3.960747979581356">
        <ele>107.69</ele>
        <time>2024-01-01T11:18:58.578Z</time>
      </trkpt>
      <trkpt lat="49.02905294671655" lon="3.9607139490544796">
        <ele>107.32</ele>
        <time>2024-01-01T11:19:01.318Z</time>
      </trkpt>
      <trkpt lat="49.02907398529351" lon="3.9606889709830284">
        <ele>106.98</ele>
        <time>2024-01-01T11:19:04.059Z</time>
      </trkpt>
      <trkpt lat="49.0290969517082" lon="3.9606589637696743">
        <ele>106.67</ele>
        <time>2024-01-01T11:19:06.801Z</time>
      </trkpt>
      <trkpt lat="49.02914095669985" lon="3.960616970434785">
        <ele>106.38</ele>
        <time>2024-01-01T11:19:09.546Z</time>
      </trkpt>
      <trkpt lat="49.029153948649764" lon="3.960603978484869">
        <ele>106.15</ele>
        <time>2024-01-01T11:19:12.292Z</time>
      </trkpt>
      <trkpt lat="49.0291849616915" lon="3.960578916594386">
        <ele>105.94</ele>
        <time>2024-01-01T11:19:15.039Z</time>
      </trkpt>
      <trkpt lat="49.02921396307647" lon="3.960558967664838">
        <ele>105.78</ele>
        <time>2024-01-01T11:19:17.788Z</time>
      </trkpt>
      <trkpt lat="49.02925796806812" lon="3.96054295822978">
        <ele>105.67</ele>
        <time>2024-01-01T11:19:20.539Z</time>
      </trkpt>
      <trkpt lat="49.02927498333156" lon="3.960540946573019">
        <ele>105.59</ele>
        <time>2024-01-01T11:19:23.291Z</time>
      </trkpt>
      <trkpt lat="49.02929996140301" lon="3.96056299097836">
        <ele>105.57</ele>
        <time>2024-01-01T11:19:26.044Z</time>
      </trkpt>
      <trkpt lat="49.029329968616366" lon="3.960575982928276">
        <ele>105.57</ele>
        <time>2024-01-01T11:19:28.798Z</time>
      </trkpt>
      <trkpt lat="49.02935796417296" lon="3.960596937686205">
        <ele>105.59</ele>
        <time>2024-01-01T11:19:31.554Z</time>
      </trkpt>
      <trkpt lat="49.02938595972955" lon="3.9606149587780237">
        <ele>105.64</ele>
        <time>2024-01-01T11:19:34.311Z</time>
      </trkpt>
      <trkpt lat="49.029412949457765" lon="3.9606379251927137">
        <ele>105.71</ele>
        <time>2024-01-01T11:19:37.070Z</time>
      </trkpt>
      <trkpt lat="49.029436921700835" lon="3.9606609754264355">
        <ele>105.81</ele>
        <time>2024-01-01T11:19:39.830Z</time>
      </trkpt>
      <trkpt lat="49.029458966106176" lon="3.960679918527603">
        <ele>105.93</ele>
        <time>2024-01-01T11:19:42.591Z</time>
      </trkpt>
      <trkpt lat="49.02948293834925" lon="3.960704980418086">
        <ele>106.07</ele>
        <time>2024-01-01T11:19:45.354Z</time>
      </trkpt>
      <trkpt lat="49.02950498275459" lon="3.960725935176015">
        <ele>106.22</ele>
        <time>2024-01-01T11:19:48.118Z</time>
      </trkpt>
      <trkpt lat="49.02952996082604" lon="3.9607489854097366">
        <ele>106.38</ele>
        <time>2024-01-01T11:19:50.883Z</time>
      </trkpt>
      <trkpt lat="49.02955493889749" lon="3.9607789926230907">
        <ele>106.56</ele>
        <time>2024-01-01T11:19:53.650Z</time>
      </trkpt>
      <trkpt lat="49.02957991696894" lon="3.9608009532094">
        <ele>106.74</ele>
        <time>2024-01-01T11:19:56.418Z</time>
      </trkpt>
      <trkpt lat="49.029607996344566" lon="3.9608219917863607">
        <ele>106.92</ele>
        <time>2024-01-01T11:19:59.187Z</time>
      </trkpt>
      <trkpt lat="49.02963498607278" lon="3.9608379174023867">
        <ele>107.11</ele>
        <time>2024-01-01T11:20:01.958Z</time>
      </trkpt>
      <trkpt lat="49.02966197580099" lon="3.9608529210090637">
        <ele>107.29</ele>
        <time>2024-01-01T11:20:04.730Z</time>
      </trkpt>
      <trkpt lat="49.02970095165074" lon="3.96086691878736">
        <ele>107.47</ele>
        <time>2024-01-01T11:20:07.504Z</time>
      </trkpt>
      <trkpt lat="49.029713943600655" lon="3.9608709421008825">
        <ele>107.65</ele>
        <time>2024-01-01T11:20:10.279Z</time>
      </trkpt>
      <trkpt lat="49.02974395081401" lon="3.9608729537576437">
        <ele>107.81</ele>
        <time>2024-01-01T11:20:13.055Z</time>
      </trkpt>
      <trkpt lat="49.02979499660432" lon="3.9608659967780113">
        <ele>107.97</ele>
        <time>2024-01-01T11:20:15.833Z</time>
      </trkpt>
      <trkpt lat="49.02980899438262" lon="3.9608609676361084">
        <ele>108.13</ele>
        <time>2024-01-01T11:20:18.612Z</time>
      </trkpt>
      <trkpt lat="49.02983992360532" lon="3.960841940715909">
        <ele>108.28</ele>
        <time>2024-01-01T11:20:21.393Z</time>
      </trkpt>
      <trkpt lat="49.02986699715257" lon="3.9608199801295996">
        <ele>108.41</ele>
        <time>2024-01-01T11:20:24.175Z</time>
      </trkpt>
      <trkpt lat="49.029885940253735" lon="3.9607999473810196">
        <ele>108.54</ele>
        <time>2024-01-01T11:20:26.958Z</time>
      </trkpt>
      <trkpt lat="49.029904967173934" lon="3.960770945996046">
        <ele>108.65</ele>
        <time>2024-01-01T11:20:29.742Z</time>
      </trkpt>
      <trkpt lat="49.02990999631584" lon="3.9607399329543114">
        <ele>108.73</ele>
        <time>2024-01-01T11:20:32.527Z</time>
      </trkpt>
      <trkpt lat="49.029905973002315" lon="3.9606989454478025">
        <ele>108.79</ele>
        <time>2024-01-01T11:20:35.314Z</time>
      </trkpt>
      <trkpt lat="49.029907984659076" lon="3.9606589637696743">
        <ele>108.84</ele>
        <time>2024-01-01T11:20:38.102Z</time>
      </trkpt>
      <trkpt lat="49.029908990487456" lon="3.9606259390711784">
        <ele>108.87</ele>
        <time>2024-01-01T11:20:40.891Z</time>
      </trkpt>
      <trkpt lat="49.02989398688078" lon="3.9605929981917143">
        <ele>108.87</ele>
        <time>2024-01-01T11:20:43.681Z</time>
      </trkpt>
      <trkpt lat="49.029887951910496" lon="3.9605849515646696">
        <ele>108.87</ele>
        <time>2024-01-01T11:20:46.472Z</time>
      </trkpt>
      <trkpt lat="49.02988191694021" lon="3.960575982928276">
        <ele>108.84</ele>
        <time>2024-01-01T11:20:49.263Z</time>
      </trkpt>
      <trkpt lat="49.02987596578896" lon="3.9605679363012314">
        <ele>108.8</ele>
        <time>2024-01-01T11:20:52.054Z</time>
      </trkpt>
      <trkpt lat="49.02986993081868" lon="3.960558967664838">
        <ele>108.75</ele>
        <time>2024-01-01T11:20:54.846Z</time>
      </trkpt>
      <trkpt lat="49.029862973839045" lon="3.960550921037793">
        <ele>108.67</ele>
        <time>2024-01-01T11:20:57.638Z</time>
      </trkpt>
      <trkpt lat="49.02985693886876" lon="3.96054295822978">
        <ele>108.58</ele>
        <time>2024-01-01T11:21:00.430Z</time>
      </trkpt>
      <trkpt lat="49.02985098771751" lon="3.9605339895933867">
        <ele>108.46</ele>
        <time>2024-01-01T11:21:03.223Z</time>
      </trkpt>
      <trkpt lat="49.029844952747226" lon="3.960525942966342">
        <ele>108.33</ele>
        <time>2024-01-01T11:21:06.016Z</time>
      </trkpt>
      <trkpt lat="49.02983891777694" lon="3.9605169743299484">
        <ele>108.18</ele>
        <time>2024-01-01T11:21:08.810Z</time>
      </trkpt>
      <trkpt lat="49.02983296662569" lon="3.9605089277029037">
        <ele>108.01</ele>
        <time>2024-01-01T11:21:11.604Z</time>
      </trkpt>
      <trkpt lat="49.02982693165541" lon="3.960500964894891">
        <ele>107.82</ele>
        <time>2024-01-01T11:21:14.398Z</time>
      </trkpt>
      <trkpt lat="49.02980798855424" lon="3.960446985438466">
        <ele>107.6</ele>
        <time>2024-01-01T11:21:17.194Z</time>
      </trkpt>
      <trkpt lat="49.02979499660432" lon="3.9604129549115896">
        <ele>107.36</ele>
        <time>2024-01-01T11:21:19.991Z</time>
      </trkpt>
      <trkpt lat="49.029775969684124" lon="3.960373979061842">
        <ele>107.1</ele>
        <time>2024-01-01T11:21:22.790Z</time>
      </trkpt>
      <trkpt lat="49.029759960249066" lon="3.960330979898572">
        <ele>106.83</ele>
        <time>2024-01-01T11:21:25.590Z</time>
      </trkpt>
      <trkpt lat="49.02973799966276" lon="3.9602709654718637">
        <ele>106.53</ele>
        <time>2024-01-01T11:21:28.393Z</time>
      </trkpt>
      <trkpt lat="49.02973095886409" lon="3.960246993228793">
        <ele>106.23</ele>
        <time>2024-01-01T11:21:31.196Z</time>
      </trkpt>
      <trkpt lat="49.02972693555057" lon="3.9602009765803814">
        <ele>105.9</ele>
        <time>2024-01-01T11:21:34.001Z</time>
      </trkpt>
      <trkpt lat="49.029716961085796" lon="3.9601579774171114">
        <ele>105.56</ele>
        <time>2024-01-01T11:21:36.807Z</time>
      </trkpt>
      <trkpt lat="49.0297079924494" lon="3.960113972425461">
        <ele>105.19</ele>
        <time>2024-01-01T11:21:39.615Z</time>
      </trkpt>
      <trkpt lat="49.02969994582236" lon="3.960070973262191">
        <ele>104.8</ele>
        <time>2024-01-01T11:21:42.424Z</time>
      </trkpt>
      <trkpt lat="49.029691983014345" lon="3.9599989727139473">
        <ele>104.39</ele>
        <time>2024-01-01T11:21:45.235Z</time>
      </trkpt>
      <trkpt lat="49.029689971357584" lon="3.959976928308606">
        <ele>103.97</ele>
        <time>2024-01-01T11:21:48.047Z</time>
      </trkpt>
      <trkpt lat="49.02968293055892" lon="3.959925966337323">
        <ele>103.53</ele>
        <time>2024-01-01T11:21:50.861Z</time>
      </trkpt>
      <trkpt lat="49.02967899106443" lon="3.959882967174053">
        <ele>103.09</ele>
        <time>2024-01-01T11:21:53.676Z</time>
      </trkpt>
      <trkpt lat="49.029673961922526" lon="3.959839968010783">
        <ele>102.62</ele>
        <time>2024-01-01T11:21:56.492Z</time>
      </trkpt>
      <trkpt lat="49.029669938609004" lon="3.959794957190752">
        <ele>102.12</ele>
        <time>2024-01-01T11:21:59.310Z</time>
      </trkpt>
      <trkpt lat="49.02965694665909" lon="3.959721950814128">
        <ele>101.6</ele>
        <time>2024-01-01T11:22:02.130Z</time>
      </trkpt>
      <trkpt lat="49.02965493500233" lon="3.959700996056199">
        <ele>101.09</ele>
        <time>2024-01-01T11:22:04.951Z</time>
      </trkpt>
      <trkpt lat="49.02964496053755" lon="3.9596479386091232">
        <ele>100.54</ele>
        <time>2024-01-01T11:22:07.773Z</time>
      </trkpt>
      <trkpt lat="49.02963196858764" lon="3.9595859963446856">
        <ele>99.99</ele>
        <time>2024-01-01T11:22:10.597Z</time>
      </trkpt>
      <trkpt lat="49.029626939445734" lon="3.9595679752528667">
        <ele>99.44</ele>
        <time>2024-01-01T11:22:13.422Z</time>
      </trkpt>
      <trkpt lat="49.02961797080934" lon="3.959529921412468">
        <ele>98.85</ele>
        <time>2024-01-01T11:22:16.248Z</time>
      </trkpt>
      <trkpt lat="49.029606990516186" lon="3.9594929572194815">
        <ele>98.26</ele>
        <time>2024-01-01T11:22:19.075Z</time>
      </trkpt>
      <trkpt lat="49.02959198690951" lon="3.9594549871981144">
        <ele>97.65</ele>
        <time>2024-01-01T11:22:21.904Z</time>
      </trkpt>
      <trkpt lat="49.02957597747445" lon="3.959417939186096">
        <ele>97.03</ele>
        <time>2024-01-01T11:22:24.734Z</time>
      </trkpt>
      <trkpt lat="49.02955896221101" lon="3.9593809749931097">
        <ele>96.41</ele>
        <time>2024-01-01T11:22:27.565Z</time>
      </trkpt>
      <trkpt lat="49.029540941119194" lon="3.959334958344698">
        <ele>95.79</ele>
        <time>2024-01-01T11:22:30.398Z</time>
      </trkpt>
      <trkpt lat="49.029522920027375" lon="3.959298999980092">
        <ele>95.17</ele>
        <time>2024-01-01T11:22:33.232Z</time>
      </trkpt>
      <trkpt lat="49.029497941955924" lon="3.959256922826171">
        <ele>94.54</ele>
        <time>2024-01-01T11:22:36.068Z</time>
      </trkpt>
      <trkpt lat="49.02947296388447" lon="3.9592169411480427">
        <ele>93.92</ele>
        <time>2024-01-01T11:22:38.906Z</time>
      </trkpt>
      <trkpt lat="49.029432982206345" lon="3.9591689966619015">
        <ele>93.29</ele>
        <time>2024-01-01T11:22:41.746Z</time>
      </trkpt>
      <trkpt lat="49.02941999025643" lon="3.959149969741702">
        <ele>92.71</ele>
        <time>2024-01-01T11:22:44.587Z</time>
      </trkpt>
      <trkpt lat="49.02939694002271" lon="3.959119962528348">
        <ele>92.13</ele>
        <time>2024-01-01T11:22:47.430Z</time>
      </trkpt>
      <trkpt lat="49.029372967779636" lon="3.9590649772435427">
        <ele>91.56</ele>
        <time>2024-01-01T11:22:50.275Z</time>
      </trkpt>
      <trkpt lat="49.02936693280935" lon="3.9590459503233433">
        <ele>91.03</ele>
        <time>2024-01-01T11:22:53.120Z</time>
      </trkpt>
      <trkpt lat="49.029352935031056" lon="3.959005968645215">
        <ele>90.51</ele>
        <time>2024-01-01T11:22:55.967Z</time>
      </trkpt>
      <trkpt lat="49.02933994308114" lon="3.9589619636535645">
        <ele>90.02</ele>
        <time>2024-01-01T11:22:58.815Z</time>
      </trkpt>
      <trkpt lat="49.02933198027313" lon="3.9589169528335333">
        <ele>89.56</ele>
        <time>2024-01-01T11:23:01.665Z</time>
      </trkpt>
      <trkpt lat="49.029325945302844" lon="3.9588739536702633">
        <ele>89.12</ele>
        <time>2024-01-01T11:23:04.516Z</time>
      </trkpt>
      <trkpt lat="49.02931798249483" lon="3.958798935636878">
        <ele>88.7</ele>
        <time>2024-01-01T11:23:07.369Z</time>
      </trkpt>
      <trkpt lat="49.02931496500969" lon="3.9587749633938074">
        <ele>88.33</ele>
        <time>2024-01-01T11:23:10.223Z</time>
      </trkpt>
      <trkpt lat="49.02931395918131" lon="3.958722995594144">
        <ele>87.99</ele>
        <time>2024-01-01T11:23:13.079Z</time>
      </trkpt>
      <trkpt lat="49.029309935867786" lon="3.9586709439754486">
        <ele>87.68</ele>
        <time>2024-01-01T11:23:15.936Z</time>
      </trkpt>
      <trkpt lat="49.029302978888154" lon="3.9586209878325462">
        <ele>87.4</ele>
        <time>2024-01-01T11:23:18.795Z</time>
      </trkpt>
      <trkpt lat="49.029291998595" lon="3.958573965355754">
        <ele>87.15</ele>
        <time>2024-01-01T11:23:21.655Z</time>
      </trkpt>
      <trkpt lat="49.02926995418966" lon="3.958502970635891">
        <ele>86.91</ele>
        <time>2024-01-01T11:23:24.518Z</time>
      </trkpt>
      <trkpt lat="49.029261991381645" lon="3.958482937887311">
        <ele>86.71</ele>
        <time>2024-01-01T11:23:27.381Z</time>
      </trkpt>
      <trkpt lat="49.02923692949116" lon="3.958456953987479">
        <ele>86.52</ele>
        <time>2024-01-01T11:23:30.246Z</time>
      </trkpt>
      <trkpt lat="49.02921295724809" lon="3.958461983129382">
        <ele>86.36</ele>
        <time>2024-01-01T11:23:33.112Z</time>
      </trkpt>
      <trkpt lat="49.02919191867113" lon="3.9585069939494133">
        <ele>86.22</ele>
        <time>2024-01-01T11:23:35.980Z</time>
      </trkpt>
      <trkpt lat="49.02917196974158" lon="3.9585419464856386">
        <ele>86.1</ele>
        <time>2024-01-01T11:23:38.849Z</time>
      </trkpt>
      <trkpt lat="49.02916291728616" lon="3.95858695730567">
        <ele>86.01</ele>
        <time>2024-01-01T11:23:41.720Z</time>
      </trkpt>
      <trkpt lat="49.029151936993" lon="3.958636997267604">
        <ele>85.94</ele>
        <time>2024-01-01T11:23:44.592Z</time>
      </trkpt>
      <trkpt lat="49.02914196252823" lon="3.9586779847741127">
        <ele>85.89</ele>
        <time>2024-01-01T11:23:47.465Z</time>
      </trkpt>
      <trkpt lat="49.02912695892155" lon="3.9587269350886345">
        <ele>85.85</ele>
        <time>2024-01-01T11:23:50.340Z</time>
      </trkpt>
      <trkpt lat="49.0291019808501" lon="3.958760965615511">
        <ele>85.82</ele>
        <time>2024-01-01T11:23:53.217Z</time>
      </trkpt>
      <trkpt lat="49.02907691895962" lon="3.958780998364091">
        <ele>85.8</ele>
        <time>2024-01-01T11:23:56.095Z</time>
      </trkpt>
      <trkpt lat="49.029045989736915" lon="3.9587879553437233">
        <ele>85.77</ele>
        <time>2024-01-01T11:23:58.974Z</time>
      </trkpt>
      <trkpt lat="49.02901598252356" lon="3.95878192037344">
        <ele>85.76</ele>
        <time>2024-01-01T11:24:01.855Z</time>
      </trkpt>
      <trkpt lat="49.02899092063308" lon="3.9587769750505686">
        <ele>85.75</ele>
        <time>2024-01-01T11:24:04.737Z</time>
      </trkpt>
      <trkpt lat="49.02896795421839" lon="3.9587799925357103">
        <ele>85.76</ele>
        <time>2024-01-01T11:24:07.620Z</time>
      </trkpt>
      <trkpt lat="49.0289449878037" lon="3.9587979298084974">
        <ele>85.78</ele>
        <time>2024-01-01T11:24:10.504Z</time>
      </trkpt>
      <trkpt lat="49.028922943398356" lon="3.9588229916989803">
        <ele>85.81</ele>
        <time>2024-01-01T11:24:13.390Z</time>
      </trkpt>
      <trkpt lat="49.0289119631052" lon="3.9588659908622503">
        <ele>85.86</ele>
        <time>2024-01-01T11:24:16.277Z</time>
      </trkpt>
      <trkpt lat="49.028899976983666" lon="3.9588989317417145">
        <ele>85.91</ele>
        <time>2024-01-01T11:24:19.165Z</time>
      </trkpt>
      <trkpt lat="49.02888597920537" lon="3.958932962268591">
        <ele>85.96</ele>
        <time>2024-01-01T11:24:22.054Z</time>
      </trkpt>
      <trkpt lat="49.02886996977031" lon="3.958967998623848">
        <ele>86.02</ele>
        <time>2024-01-01T11:24:24.945Z</time>
      </trkpt>
      <trkpt lat="49.028853960335255" lon="3.959005968645215">
        <ele>86.08</ele>
        <time>2024-01-01T11:24:27.837Z</time>
      </trkpt>
      <trkpt lat="49.028830993920565" lon="3.959061959758401">
        <ele>86.15</ele>
        <time>2024-01-01T11:24:30.731Z</time>
      </trkpt>
      <trkpt lat="49.02882294729352" lon="3.9590809866786003">
        <ele>86.21</ele>
        <time>2024-01-01T11:24:33.626Z</time>
      </trkpt>
      <trkpt lat="49.02880693785846" lon="3.9591189566999674">
        <ele>86.28</ele>
        <time>2024-01-01T11:24:36.522Z</time>
      </trkpt>
      <trkpt lat="49.028787994757295" lon="3.9591569267213345">
        <ele>86.36</ele>
        <time>2024-01-01T11:24:39.420Z</time>
      </trkpt>
      <trkpt lat="49.028773996979" lon="3.959197998046875">
        <ele>86.43</ele>
        <time>2024-01-01T11:24:42.319Z</time>
      </trkpt>
      <trkpt lat="49.02875899337232" lon="3.9592379797250032">
        <ele>86.51</ele>
        <time>2024-01-01T11:24:45.220Z</time>
      </trkpt>
      <trkpt lat="49.02873694896698" lon="3.959288941696286">
        <ele>86.59</ele>
        <time>2024-01-01T11:24:48.122Z</time>
      </trkpt>
      <trkpt lat="49.02872898615897" lon="3.9593059569597244">
        <ele>86.67</ele>
        <time>2024-01-01T11:24:51.025Z</time>
      </trkpt>
      <trkpt lat="49.02871096506715" lon="3.9593439269810915">
        <ele>86.76</ele>
        <time>2024-01-01T11:24:53.929Z</time>
      </trkpt>
      <trkpt lat="49.02869093231857" lon="3.959377957507968">
        <ele>86.84</ele>
        <time>2024-01-01T11:24:56.835Z</time>
      </trkpt>
      <trkpt lat="49.02867098338902" lon="3.9594099763780832">
        <ele>86.92</ele>
        <time>2024-01-01T11:24:59.742Z</time>
      </trkpt>
      <trkpt lat="49.02865095064044" lon="3.9594419952481985">
        <ele>87.0</ele>
        <time>2024-01-01T11:25:02.651Z</time>
      </trkpt>
      <trkpt lat="49.02862396091223" lon="3.9594899397343397">
        <ele>87.09</ele>
        <time>2024-01-01T11:25:05.562Z</time>
      </trkpt>
      <trkpt lat="49.028614992275834" lon="3.959506954997778">
        <ele>87.17</ele>
        <time>2024-01-01T11:25:08.473Z</time>
      </trkpt>
      <trkpt lat="49.028597977012396" lon="3.959541991353035">
        <ele>87.26</ele>
        <time>2024-01-01T11:25:11.386Z</time>
      </trkpt>
      <trkpt lat="49.02857995592058" lon="3.959577949717641">
        <ele>87.35</ele>
        <time>2024-01-01T11:25:14.300Z</time>
      </trkpt>
      <trkpt lat="49.02855891734362" lon="3.959617931395769">
        <ele>87.44</ele>
        <time>2024-01-01T11:25:17.216Z</time>
      </trkpt>
      <trkpt lat="49.02853896841407" lon="3.959655985236168">
        <ele>87.52</ele>
        <time>2024-01-01T11:25:20.133Z</time>
      </trkpt>
      <trkpt lat="49.02851298451424" lon="3.959706947207451">
        <ele>87.6</ele>
        <time>2024-01-01T11:25:23.052Z</time>
      </trkpt>
      <trkpt lat="49.02850393205881" lon="3.959723962470889">
        <ele>87.68</ele>
        <time>2024-01-01T11:25:25.972Z</time>
      </trkpt>
      <trkpt lat="49.02848498895764" lon="3.9597579929977655">
        <ele>87.76</ele>
        <time>2024-01-01T11:25:28.893Z</time>
      </trkpt>
      <trkpt lat="49.0284629445523" lon="3.959794957190752">
        <ele>87.85</ele>
        <time>2024-01-01T11:25:31.816Z</time>
      </trkpt>
      <trkpt lat="49.028442995622754" lon="3.959832927212119">
        <ele>87.94</ele>
        <time>2024-01-01T11:25:34.740Z</time>
      </trkpt>
      <trkpt lat="49.02842095121741" lon="3.959867963567376">
        <ele>88.03</ele>
        <time>2024-01-01T11:25:37.666Z</time>
      </trkpt>
      <trkpt lat="49.02838993817568" lon="3.9599169977009296">
        <ele>88.13</ele>
        <time>2024-01-01T11:25:40.594Z</time>
      </trkpt>
      <trkpt lat="49.028380969539285" lon="3.9599329233169556">
        <ele>88.21</ele>
        <time>2024-01-01T11:25:43.522Z</time>
      </trkpt>
      <trkpt lat="49.028362948447466" lon="3.9599659480154514">
        <ele>88.3</ele>
        <time>2024-01-01T11:25:46.452Z</time>
      </trkpt>
      <trkpt lat="49.02834492735565" lon="3.9599989727139473">
        <ele>88.38</ele>
        <time>2024-01-01T11:25:49.383Z</time>
      </trkpt>
      <trkpt lat="49.02832598425448" lon="3.9600289799273014">
        <ele>88.46</ele>
        <time>2024-01-01T11:25:52.315Z</time>
      </trkpt>
      <trkpt lat="49.0283059515059" lon="3.960059992969036">
        <ele>88.53</ele>
        <time>2024-01-01T11:25:55.249Z</time>
      </trkpt>
      <trkpt lat="49.028272926807404" lon="3.9601049199700356">
        <ele>88.6</ele>
        <time>2024-01-01T11:25:58.185Z</time>
      </trkpt>
      <trkpt lat="49.02826094068587" lon="3.9601199235767126">
        <ele>88.69</ele>
        <time>2024-01-01T11:26:01.121Z</time>
      </trkpt>
      <trkpt lat="49.02823998592794" lon="3.9601499307900667">
        <ele>88.78</ele>
        <time>2024-01-01T11:26:04.059Z</time>
      </trkpt>
      <trkpt lat="49.028209978714585" lon="3.9601939357817173">
        <ele>88.87</ele>
        <time>2024-01-01T11:26:06.999Z</time>
      </trkpt>
      <trkpt lat="49.02819899842143" lon="3.9602089393883944">
        <ele>88.95</ele>
        <time>2024-01-01T11:26:09.939Z</time>
      </trkpt>
      <trkpt lat="49.02817795984447" lon="3.9602389466017485">
        <ele>89.05</ele>
        <time>2024-01-01T11:26:12.881Z</time>
      </trkpt>
      <trkpt lat="49.028146946802735" lon="3.9602819457650185">
        <ele>89.14</ele>
        <time>2024-01-01T11:26:15.825Z</time>
      </trkpt>
      <trkpt lat="49.02813596650958" lon="3.9602969493716955">
        <ele>89.21</ele>
        <time>2024-01-01T11:26:18.769Z</time>
      </trkpt>
      <trkpt lat="49.028115933761" lon="3.9603269565850496">
        <ele>89.27</ele>
        <time>2024-01-01T11:26:21.715Z</time>
      </trkpt>
      <trkpt lat="49.02809497900307" lon="3.9603599812835455">
        <ele>89.32</ele>
        <time>2024-01-01T11:26:24.662Z</time>
      </trkpt>
      <trkpt lat="49.02807192876935" lon="3.9603939279913902">
        <ele>89.36</ele>
        <time>2024-01-01T11:26:27.611Z</time>
      </trkpt>
      <trkpt lat="49.02804996818304" lon="3.960421923547983">
        <ele>89.39</ele>
        <time>2024-01-01T11:26:30.561Z</time>
      </trkpt>
      <trkpt lat="49.0280139259994" lon="3.96045695990324">
        <ele>89.41</ele>
        <time>2024-01-01T11:26:33.513Z</time>
      </trkpt>
      <trkpt lat="49.027998922392726" lon="3.960467940196395">
        <ele>89.38</ele>
        <time>2024-01-01T11:26:36.466Z</time>
      </trkpt>
      <trkpt lat="49.027974950149655" lon="3.960489984601736">
        <ele>89.32</ele>
        <time>2024-01-01T11:26:39.420Z</time>
      </trkpt>
      <trkpt lat="49.027951983734965" lon="3.9605139568448067">
        <ele>89.23</ele>
        <time>2024-01-01T11:26:42.375Z</time>
      </trkpt>
      <trkpt lat="49.02793698012829" lon="3.9605339895933867">
        <ele>89.13</ele>
        <time>2024-01-01T11:26:45.331Z</time>
      </trkpt>
      <trkpt lat="49.027912924066186" lon="3.9605519268661737">
        <ele>88.99</ele>
        <time>2024-01-01T11:26:48.288Z</time>
      </trkpt>
      <trkpt lat="49.027886940166354" lon="3.960553938522935">
        <ele>88.83</ele>
        <time>2024-01-01T11:26:51.247Z</time>
      </trkpt>
      <trkpt lat="49.02786799706519" lon="3.9605349954217672">
        <ele>88.65</ele>
        <time>2024-01-01T11:26:54.207Z</time>
      </trkpt>
      <trkpt lat="49.02785198763013" lon="3.960500964894891">
        <ele>88.46</ele>
        <time>2024-01-01T11:26:57.168Z</time>
      </trkpt>
      <trkpt lat="49.027842935174704" lon="3.9604659285396338">
        <ele>88.27</ele>
        <time>2024-01-01T11:27:00.130Z</time>
      </trkpt>
      <trkpt lat="49.02783597819507" lon="3.960426952689886">
        <ele>88.1</ele>
        <time>2024-01-01T11:27:03.093Z</time>
      </trkpt>
      <trkpt lat="49.02782893739641" lon="3.96039099432528">
        <ele>87.95</ele>
        <time>2024-01-01T11:27:06.058Z</time>
      </trkpt>
      <trkpt lat="49.02782089076936" lon="3.9603557903319597">
        <ele>87.83</ele>
        <time>2024-01-01T11:27:09.024Z</time>
      </trkpt>
    </trkseg>
  </trk>
</gpx>
